GFSNGP_prec_cthk_000.txt.gz
RH
45 42 44 48 49 50 49 47 42 34 34 33 34 34 35 37 40 44 47 47 45 44 44 44 45 44 42 44 47 49 50 48 44 40 36 31 28 26 24 22 22 23 22 24
51 47 46 44 43 42 40 39 38 36 35 42 45 44 41 41 43 44 44 43 43 44 45 46 45 46 50 51 53 52 49 43 39 36 34 30 27 25 23 23 23 24 24 24
50 54 52 48 40 37 32 31 35 41 43 35 32 35 38 39 40 41 42 44 45 47 48 47 50 51 50 50 51 48 44 41 38 32 29 28 26 27 27 26 26 28 30 29
52 47 50 37 38 45 47 48 46 44 35 35 36 37 38 39 41 43 46 48 50 50 49 50 53 55 56 53 49 44 43 40 34 32 31 30 30 29 29 30 30 29 26 25
47 47 42 44 46 47 48 47 40 38 38 38 38 38 40 42 44 46 48 49 47 49 54 59 63 62 57 52 47 45 44 40 35 33 33 34 33 33 32 32 30 27 24 21
62 61 58 47 46 40 36 39 39 40 41 42 43 47 43 43 44 45 46 50 57 60 62 66 66 60 53 48 47 45 40 37 36 38 37 35 35 36 34 30 26 25 23 23
70 64 51 40 39 36 40 37 42 43 44 44 48 49 48 47 48 49 54 59 62 65 68 65 59 54 52 49 42 39 38 39 42 42 42 42 42 38 32 30 28 28 27 26
58 58 53 40 41 42 43 44 44 45 47 47 48 48 47 48 49 50 54 56 59 62 59 61 55 53 48 44 42 43 42 44 45 44 45 42 35 33 33 31 30 29 29 28
47 47 42 43 44 45 47 49 50 50 49 49 47 47 47 48 51 54 56 61 63 64 64 62 52 47 45 42 42 43 43 44 41 35 32 34 35 33 31 31 30 30 31 31
46 45 48 49 50 51 51 52 51 49 46 45 46 45 44 45 47 52 56 60 62 63 59 54 49 46 41 37 39 39 31 30 32 35 37 36 33 30 28 28 32 36 40 42
49 47 48 51 51 51 51 49 47 46 48 48 44 41 43 47 51 53 55 58 57 55 49 43 39 36 34 31 28 29 32 35 37 36 32 28 27 28 29 32 41 46 44 45
50 46 47 48 48 48 48 49 51 50 47 45 45 46 48 51 54 56 56 56 53 42 37 33 30 26 26 29 32 36 38 36 30 28 28 29 29 27 27 31 35 41 45 48
46 48 48 48 50 50 50 47 45 47 48 48 49 51 52 52 53 55 55 44 36 34 28 24 24 27 31 35 38 36 29 27 28 30 30 31 32 33 33 28 36 38 41 46
49 50 51 50 49 49 48 48 48 48 50 51 52 52 51 52 53 49 40 34 30 26 25 26 29 33 38 37 31 28 28 29 31 31 31 32 34 37 40 38 36 34 36 47
50 51 52 53 53 51 49 48 49 49 50 51 52 52 54 54 46 37 33 29 27 27 28 30 35 38 35 30 29 29 31 31 32 33 34 37 38 38 38 40 42 42 44 45
54 56 57 55 50 48 46 44 47 48 49 50 52 54 50 40 36 32 30 29 29 27 32 36 36 35 32 31 31 31 31 32 35 36 37 37 36 38 42 45 47 48 49 50
58 59 55 49 47 45 46 47 48 47 51 52 54 45 36 33 30 30 31 30 29 34 38 37 36 35 34 33 32 30 29 31 34 32 32 34 40 45 47 50 51 51 51 52
54 49 49 48 48 48 48 48 50 53 53 51 38 33 30 31 33 33 31 32 36 39 42 40 38 35 33 31 30 30 30 28 29 34 37 41 45 48 51 53 56 58 58 57
49 49 49 49 50 48 48 49 50 49 42 35 33 33 36 38 38 35 35 38 42 43 41 39 36 32 31 30 29 28 29 32 35 38 42 45 46 50 55 59 61 62 65 65
52 51 47 46 46 48 50 49 47 38 35 36 36 40 44 44 41 38 41 45 49 44 41 36 33 32 29 26 27 32 36 39 40 41 43 48 53 55 59 62 65 68 69 70
50 48 45 44 45 49 50 47 42 39 40 41 44 49 50 50 45 46 50 49 48 45 39 36 34 28 27 28 33 37 39 40 41 43 48 53 59 62 64 65 68 70 73 73
52 52 50 50 50 51 51 49 48 44 45 48 53 56 57 54 53 57 57 53 47 43 39 34 31 29 32 35 35 38 40 42 43 47 52 57 62 65 67 68 70 71 73 75
56 59 56 52 52 52 53 53 52 52 55 57 61 66 63 58 61 59 54 52 47 42 36 33 32 31 36 37 38 40 40 42 47 52 58 63 67 70 72 72 72 74 75 78
55 61 58 59 59 57 56 56 58 61 63 65 72 71 65 63 62 62 54 50 45 39 36 34 33 33 38 37 39 41 42 47 53 59 65 68 72 74 75 75 74 76 78 77
58 62 60 60 60 59 60 61 65 67 70 77 79 72 69 66 59 53 52 47 41 37 36 35 35 35 36 39 42 44 48 53 60 67 71 73 77 79 79 78 78 79 80 77
60 58 58 60 61 65 70 73 74 79 83 80 74 70 66 60 57 54 49 42 38 38 38 36 36 37 40 43 46 49 54 60 68 71 75 78 82 82 84 85 84 83 81 78
57 58 60 64 71 77 77 79 84 85 77 70 69 63 59 58 55 49 43 39 39 39 39 38 38 41 44 48 51 55 61 68 75 77 78 80 84 86 88 88 86 84 81 78

GFSNGP_prec_cthk_003.txt.gz
RH
48 37 40 39 42 44 44 45 47 46 51 44 39 39 38 35 40 43 42 44 46 48 48 47 46 44 43 45 48 46 43 42 39 33 31 29 29 27 26 26 25 24 24 25
43 39 42 41 44 49 49 50 50 50 47 40 34 35 45 51 42 41 42 43 45 46 47 47 45 45 45 45 47 48 51 45 36 34 33 32 28 28 28 28 27 27 29 31
47 49 45 45 45 45 47 46 42 38 33 34 43 53 45 37 37 38 41 42 44 47 48 46 46 46 47 52 56 58 50 41 37 37 36 32 32 30 30 30 30 33 38 39
55 56 58 46 52 50 45 43 36 42 45 52 55 41 38 38 38 39 42 44 48 48 46 44 48 53 59 63 58 49 40 41 41 37 33 33 32 32 32 33 37 41 41 38
66 65 56 56 50 47 45 51 53 55 54 44 39 38 39 40 40 42 44 45 45 43 44 49 55 60 66 59 49 43 44 42 37 35 32 31 32 33 36 37 35 33 33 32
61 59 53 43 41 42 46 59 56 51 42 39 40 44 44 42 42 42 42 43 46 48 52 58 65 63 54 48 47 46 43 40 35 33 32 31 30 29 30 31 32 31 29 27
53 52 47 43 43 47 54 43 39 38 41 42 44 45 43 42 42 43 44 46 49 52 54 57 58 54 51 51 48 43 37 33 30 26 24 24 26 29 30 29 25 22 21 20
64 66 65 52 47 43 40 40 41 44 44 45 45 44 41 40 41 43 46 48 49 53 56 58 56 52 50 47 39 34 30 25 21 20 23 27 28 26 23 21 22 22 22 21
61 56 43 40 41 42 43 45 46 47 47 48 46 43 42 42 43 44 47 51 54 56 55 52 52 48 43 35 29 23 19 19 20 26 27 25 22 22 22 23 25 25 28 28
52 50 47 45 45 46 47 49 49 50 49 46 45 44 42 41 44 47 52 54 54 53 54 52 47 38 29 24 20 19 20 22 28 26 24 22 23 23 25 26 27 29 34 39
57 54 54 51 49 48 49 49 48 47 46 45 45 45 44 46 49 51 55 57 56 54 51 44 34 28 22 20 21 21 26 29 28 25 24 23 23 24 25 27 34 41 42 41
56 48 48 49 49 48 49 48 47 45 43 43 46 47 48 49 51 52 53 56 54 51 39 32 27 24 23 23 23 28 30 30 27 26 25 25 23 21 23 29 32 32 39 41
47 47 47 49 49 49 49 46 42 41 43 46 47 48 50 53 54 53 54 55 46 35 32 28 26 26 25 26 31 32 32 30 28 28 27 25 24 24 26 25 29 26 35 43
43 45 48 50 52 51 48 45 44 45 47 46 47 49 52 54 55 56 54 41 36 34 30 27 27 26 28 32 35 34 33 32 30 28 26 25 26 27 29 30 32 32 33 40
47 48 48 49 49 49 45 45 46 44 42 43 47 50 52 56 59 49 37 37 34 30 28 28 28 30 33 37 36 36 35 31 29 28 28 28 28 28 31 33 37 39 39 40
51 52 51 51 49 45 48 46 43 42 44 47 50 52 55 56 43 38 35 33 31 30 31 31 30 36 40 38 38 37 33 31 30 29 29 29 30 33 35 38 41 44 46 48
51 52 51 48 50 50 47 47 47 47 48 49 51 54 53 41 36 33 33 33 33 34 34 33 38 42 41 39 37 35 33 29 29 30 30 31 34 37 40 43 46 48 49 50
49 49 51 51 50 47 45 45 48 49 49 50 53 48 38 34 34 36 38 39 40 39 38 42 46 45 42 40 39 35 31 31 33 33 34 35 39 43 45 49 52 57 56 56
52 54 54 50 46 45 44 46 47 49 51 52 46 38 36 37 39 42 43 46 45 40 45 50 52 47 44 41 36 33 34 37 36 35 37 40 42 44 48 51 55 59 60 61
55 51 50 48 47 46 45 47 50 52 53 47 40 39 41 43 45 48 52 54 51 49 51 55 50 47 42 38 35 37 40 40 39 38 39 42 44 45 48 53 58 61 62 63
49 47 46 47 49 48 47 49 51 52 50 43 42 43 45 48 52 57 61 57 58 60 60 54 50 43 39 36 40 42 42 40 39 39 40 42 44 48 52 58 61 64 65 65
44 44 46 49 51 51 51 51 53 51 48 47 48 50 52 55 60 66 68 64 62 62 55 50 45 41 39 42 42 42 40 39 38 39 42 45 49 53 57 62 65 66 66 66
46 45 47 49 51 54 56 57 55 53 54 54 55 57 58 63 69 71 67 68 65 58 52 47 44 41 38 43 41 39 39 39 39 43 47 51 54 58 63 67 69 69 68 68
46 46 47 51 57 57 57 57 57 58 57 57 60 65 69 72 78 76 70 65 58 53 49 45 41 38 41 41 40 40 40 40 44 49 52 55 60 66 69 71 71 72 71 72
47 48 51 54 56 56 57 61 62 61 62 68 75 77 80 79 70 67 64 59 55 49 43 41 39 40 41 41 41 41 42 46 50 55 58 63 69 72 72 73 75 76 76 77
51 54 56 56 56 57 60 64 66 70 72 76 80 80 78 74 70 65 61 56 48 44 42 40 41 41 41 41 41 44 48 51 57 60 65 72 74 75 74 75 77 79 77 76
53 56 58 59 60 61 65 69 72 75 77 78 76 79 73 70 68 63 54 48 45 42 41 40 39 40 41 42 46 49 54 59 63 67 73 75 76 77 74 74 79 78 75 74

GFSNGP_prec_cthk_006.txt.gz
RH
63 63 62 66 63 47 36 31 40 38 46 46 43 47 47 42 38 40 47 49 48 46 46 47 48 48 46 47 48 47 47 44 42 39 35 31 31 30 27 25 24 23 22 22
66 62 55 51 51 39 37 39 40 45 47 47 46 46 45 40 39 50 47 40 41 44 46 48 48 48 48 48 48 48 47 46 42 40 34 32 29 27 25 24 22 21 21 20
65 60 54 45 37 49 47 46 49 51 50 50 51 47 40 44 55 48 40 39 41 44 47 47 47 46 47 49 50 53 52 48 42 34 32 30 27 24 23 20 17 16 18 18
59 57 52 37 42 40 45 47 47 48 48 42 44 45 52 58 51 40 39 41 42 45 46 45 45 48 51 53 56 53 48 42 38 34 31 27 24 19 15 15 18 17 17 17
59 58 51 49 46 49 49 53 49 48 50 50 55 58 52 45 39 40 40 41 43 46 46 46 48 51 55 58 53 46 40 40 36 32 27 19 15 16 19 19 17 16 17 17
73 73 64 54 58 55 52 59 55 56 60 61 60 54 45 41 41 40 40 41 43 46 47 49 52 54 53 53 47 42 41 36 29 23 17 16 19 22 20 18 18 18 18 18
70 67 60 53 50 50 57 49 53 56 58 54 47 42 42 41 41 40 41 43 46 48 49 51 54 55 54 46 43 42 32 26 21 18 18 22 24 22 20 20 20 20 19 18
68 65 60 48 47 47 50 52 49 45 43 42 43 43 42 42 40 41 43 45 47 50 53 56 56 53 46 43 39 31 25 21 19 21 24 27 24 22 23 23 22 21 18 18
66 63 59 59 59 55 50 45 44 44 45 45 45 44 41 40 42 43 44 47 49 53 56 55 52 47 43 38 30 25 22 21 23 25 28 26 24 25 25 24 23 22 24 25
64 60 61 58 52 45 45 46 47 47 47 45 43 42 42 41 41 43 47 50 53 58 58 54 50 45 37 29 26 24 23 25 27 29 27 26 27 27 25 25 27 27 28 31
68 67 62 55 53 52 51 50 48 46 45 43 42 42 42 43 44 47 51 53 55 54 53 52 48 36 30 28 26 25 26 27 30 28 27 27 27 28 27 29 31 31 32 36
64 62 61 59 56 52 50 49 46 44 43 42 42 42 43 45 49 52 53 53 53 52 55 46 35 32 29 28 28 28 28 31 30 29 28 28 28 26 28 29 29 28 30 38
64 63 59 60 54 51 48 48 45 42 41 41 41 42 45 49 52 53 53 53 55 55 41 35 33 31 29 30 30 31 32 31 30 30 30 30 29 29 30 27 26 24 30 37
54 53 53 52 50 49 49 47 42 40 40 40 41 45 48 48 50 51 51 55 50 39 36 33 32 32 32 31 34 35 34 33 31 32 32 30 32 35 33 32 29 26 30 39
49 48 49 49 49 48 45 41 41 41 41 41 42 45 49 50 52 52 54 45 39 36 33 33 35 34 34 38 38 36 35 34 35 34 33 35 36 35 35 35 35 35 39 41
48 50 52 51 49 45 44 42 42 41 41 42 43 46 49 51 53 51 41 39 36 36 36 38 40 39 42 41 39 38 38 39 36 35 35 37 38 38 39 39 39 42 45 45
53 56 53 47 44 42 41 40 38 41 43 46 49 51 52 52 46 40 38 37 38 40 44 45 45 46 44 42 41 40 41 38 36 37 37 38 40 42 41 42 42 44 45 50
51 46 44 42 39 39 41 42 43 46 47 48 49 50 50 45 39 38 39 41 43 47 50 53 53 49 48 46 44 44 41 38 38 39 39 41 43 43 41 40 42 45 48 54
47 44 43 43 47 48 46 44 44 44 45 48 49 50 45 40 38 40 42 46 50 52 58 60 56 53 51 49 48 44 40 40 41 41 42 43 41 41 40 40 45 50 53 58
49 49 52 52 48 45 44 44 43 44 45 47 49 48 41 40 42 43 46 52 55 57 61 62 56 54 52 49 45 43 43 44 43 42 41 43 41 40 40 44 50 53 58 63
55 52 49 47 45 44 44 43 43 45 47 49 49 45 44 44 45 48 53 55 62 67 68 61 58 55 52 47 46 46 44 42 42 42 41 41 41 42 45 49 53 58 63 67
49 48 46 43 43 43 43 45 47 48 48 50 48 46 46 48 51 55 58 61 68 71 62 59 57 54 49 50 46 44 42 42 42 41 41 42 44 46 50 54 59 65 67 69
49 46 43 41 41 42 44 47 48 49 49 49 47 47 50 53 57 60 65 76 73 65 61 60 56 50 46 48 43 41 41 41 41 42 43 45 48 52 55 61 67 69 69 70
46 44 43 42 42 44 46 46 46 47 49 49 50 53 57 61 67 73 74 69 65 62 60 55 50 46 44 42 41 40 39 40 41 43 47 51 55 58 64 70 70 69 70 71
44 43 42 44 47 48 48 49 52 54 54 56 58 62 68 73 76 72 70 68 66 60 52 48 46 43 41 39 38 38 40 41 44 49 54 58 60 65 71 73 71 69 70 71
44 45 46 48 49 50 51 54 57 59 63 65 68 73 76 73 69 67 66 63 53 48 47 45 41 39 39 39 39 40 42 46 51 56 60 64 68 72 73 73 72 69 71 70
48 50 51 52 51 52 55 58 62 67 69 72 73 71 70 68 68 63 55 50 48 46 42 40 39 39 38 39 40 44 49 53 59 64 68 72 73 72 73 73 71 72 73 68

GFSNGP_prec_cthk_009.txt.gz
RH
61 59 60 59 58 66 62 59 64 57 43 32 36 41 44 46 49 51 46 44 50 52 48 48 48 48 47 48 49 48 48 49 49 45 41 36 29 27 26 23 19 15 15 16
65 63 63 66 65 63 63 66 51 38 30 31 39 44 47 51 52 50 44 47 55 52 48 50 47 47 48 49 50 51 50 51 44 41 36 30 28 27 22 17 16 17 17 15
76 68 66 62 58 60 60 58 37 35 31 41 46 49 52 52 49 45 45 58 55 50 45 45 46 49 51 51 52 53 50 44 42 36 33 29 26 20 17 18 19 18 16 15
73 69 71 57 56 51 47 45 42 40 42 48 52 55 51 49 48 51 57 53 43 41 43 47 49 51 52 54 54 53 48 43 38 35 30 25 20 18 20 21 20 17 17 18
74 69 59 56 52 44 41 45 44 47 49 52 53 52 53 53 57 55 46 39 38 41 46 48 50 52 54 56 54 50 44 41 36 30 24 20 20 23 23 21 18 18 19 18
85 68 60 50 55 55 48 49 47 50 53 53 54 57 61 63 56 44 37 35 38 43 46 49 51 53 55 55 52 47 42 38 30 24 22 22 25 25 22 20 19 19 19 19
75 69 62 58 55 53 59 51 54 54 53 56 60 62 61 52 43 37 35 37 42 45 48 51 54 56 56 54 49 44 41 30 25 24 24 26 27 24 21 21 20 20 20 21
78 75 67 61 58 56 55 54 54 59 61 59 57 50 46 42 38 36 39 42 46 47 50 54 57 57 54 49 46 41 31 27 25 26 28 29 26 23 22 21 22 23 22 24
67 60 56 51 51 51 55 53 56 56 51 49 47 45 41 38 37 39 43 46 48 49 52 56 58 54 47 48 42 32 29 27 27 29 31 28 24 23 22 24 25 25 28 31
54 60 68 65 62 65 65 61 51 47 47 46 44 42 40 39 40 43 45 46 48 50 54 56 51 49 50 41 33 30 28 28 31 32 29 25 24 25 25 26 29 32 35 39
72 71 69 67 64 60 56 56 54 52 49 47 42 41 41 42 43 43 45 47 50 53 53 51 53 50 38 34 32 29 30 32 33 31 27 25 25 27 27 32 36 38 40 43
62 59 62 64 67 68 66 62 57 53 48 42 39 40 41 42 43 44 46 49 51 53 54 56 50 38 35 32 31 31 32 35 33 29 26 27 28 27 32 34 39 40 41 45
54 50 54 61 68 70 68 64 58 48 40 39 39 39 40 41 43 45 49 52 54 57 59 43 38 34 32 32 33 35 37 35 32 29 30 30 30 31 33 35 36 38 41 42
57 53 55 58 61 67 66 55 46 40 39 39 38 38 41 40 43 47 53 54 59 53 40 37 34 34 35 36 39 41 39 37 33 33 32 32 34 39 39 38 38 38 38 40
56 56 50 51 52 51 46 41 39 40 40 41 37 33 39 45 50 52 55 57 45 37 34 34 36 38 41 43 46 42 40 38 37 35 34 37 40 40 40 41 42 40 38 37
62 59 54 50 47 43 40 42 44 42 37 33 34 39 46 50 53 53 51 39 36 34 36 38 41 44 47 50 47 43 42 41 38 36 38 41 41 40 41 44 43 42 41 40
48 50 50 49 46 47 45 41 37 32 33 38 44 48 48 49 50 46 37 35 35 37 39 42 44 48 52 54 49 44 42 39 38 41 43 41 39 42 45 46 44 42 42 41
54 54 50 46 43 40 38 35 34 39 44 46 46 47 47 47 46 38 36 36 37 39 41 44 48 54 59 55 48 45 41 40 43 44 42 41 43 45 43 44 44 43 42 45
45 45 43 41 40 39 37 42 46 45 43 45 45 45 47 46 40 37 36 37 38 42 46 50 56 59 57 52 47 44 43 45 45 42 41 42 41 41 42 42 43 44 48 52
46 44 42 41 42 49 50 50 47 44 43 43 44 45 46 41 37 36 37 40 42 46 50 56 59 58 54 49 47 47 46 45 43 41 40 41 40 39 40 42 47 50 53 59
47 44 46 53 54 53 52 49 45 42 42 42 43 44 43 37 37 38 40 43 47 51 58 62 60 56 50 49 48 47 44 42 40 39 39 38 38 38 42 47 50 54 58 62
53 54 53 52 50 48 46 43 41 40 41 42 42 42 41 38 39 42 45 49 55 62 63 62 58 54 51 47 44 43 40 38 37 38 38 37 38 42 47 51 54 58 63 62
54 53 50 47 45 43 41 41 41 42 42 43 43 42 43 43 45 49 54 59 65 62 61 58 56 50 45 43 40 37 37 37 37 36 36 39 44 48 52 56 60 65 63 59
52 48 47 45 44 42 43 44 44 44 45 44 45 47 48 51 55 60 65 63 61 60 56 52 46 43 41 38 37 37 36 35 34 36 40 44 48 53 58 62 64 63 62 59
49 48 48 46 45 46 46 46 46 47 47 48 52 55 59 63 66 64 62 62 59 53 48 45 43 41 39 39 37 36 34 35 38 42 46 51 55 60 64 65 64 63 61 60
51 50 49 49 49 49 48 48 49 50 52 56 59 61 62 60 59 58 56 53 46 45 45 43 41 40 39 38 35 33 36 40 44 49 55 61 65 66 65 64 63 61 60 61
53 53 52 52 52 51 51 53 54 56 58 60 58 56 57 56 53 52 47 45 46 44 43 43 42 40 39 35 34 38 42 47 54 60 67 69 69 65 61 62 62 61 63 62

GFSNGP_prec_cthk_012.txt.gz
RH
62 57 56 57 60 58 58 57 57 53 54 52 52 42 35 34 40 43 47 54 56 53 50 58 57 53 53 51 50 52 51 49 50 51 43 38 34 30 27 24 23 23 23 21
62 62 59 57 55 57 56 59 54 57 48 50 38 34 35 40 44 48 53 56 56 51 54 63 58 55 50 50 52 54 53 53 53 47 39 35 31 27 26 25 25 25 23 19
66 63 61 62 54 54 52 50 50 52 47 42 34 32 36 42 49 53 54 53 53 55 64 61 54 49 49 52 55 56 56 55 51 42 36 32 28 27 27 26 27 25 21 18
68 72 71 51 52 50 51 48 48 49 46 40 38 39 43 49 53 53 52 53 56 59 60 49 46 48 52 56 57 57 55 52 45 39 34 30 29 28 27 29 28 23 19 18
76 69 57 52 53 52 52 48 43 43 43 44 46 48 51 53 54 56 56 57 61 55 45 44 46 50 54 56 56 54 52 47 42 35 32 31 29 28 31 30 25 21 19 20
80 73 65 55 55 52 50 42 37 39 44 48 51 52 54 57 56 56 61 64 52 44 40 43 49 52 53 54 54 53 51 45 38 34 33 30 29 32 32 26 22 22 21 20
80 92 61 58 60 59 55 51 53 52 51 53 55 55 59 62 65 65 61 47 40 37 40 45 49 52 54 54 53 54 49 41 36 34 30 30 34 33 28 23 22 21 22 23
80 90 75 60 61 59 55 56 55 54 51 52 58 61 63 63 60 49 42 36 35 40 44 48 51 54 55 53 54 50 43 37 35 31 32 35 34 28 23 23 23 23 25 27
70 66 66 67 63 59 56 52 54 56 57 59 58 57 53 48 42 36 34 36 40 44 47 50 53 55 54 52 50 46 38 35 31 33 37 36 31 25 25 25 26 28 29 33
72 72 65 56 50 60 61 59 62 59 58 53 54 49 42 38 35 35 38 41 43 46 48 51 54 52 52 51 44 38 34 32 33 38 38 34 29 28 28 30 31 31 33 37
61 60 58 62 70 68 65 63 62 59 57 55 48 43 39 37 40 42 41 42 44 47 50 53 52 51 52 41 36 32 32 35 40 40 36 30 30 31 31 32 34 36 37 40
56 63 63 62 63 65 66 67 67 66 61 53 46 43 41 41 40 40 41 43 46 50 54 53 54 50 38 32 31 34 38 41 42 38 33 32 32 32 33 34 36 40 40 42
60 60 59 55 53 54 59 63 66 66 59 50 42 41 39 38 37 37 41 46 51 55 54 55 43 34 31 32 35 38 42 44 40 37 35 36 35 34 33 34 39 40 41 44
51 52 57 55 54 55 57 59 62 62 46 41 40 37 34 34 37 40 44 52 53 52 51 37 32 31 33 34 38 42 45 45 41 38 38 37 36 36 36 37 38 42 43 45
53 54 54 52 54 57 58 58 49 40 40 38 34 32 34 35 38 46 49 48 49 46 35 32 32 32 34 37 43 47 49 46 40 37 37 38 39 39 40 41 45 45 43 42
58 58 59 63 60 59 53 45 42 40 37 35 36 33 33 43 47 47 47 47 42 33 31 31 32 34 38 43 47 50 50 43 38 37 39 41 41 41 41 45 45 44 44 42
55 52 53 55 52 45 40 41 42 42 39 34 33 41 47 45 45 47 47 39 33 31 30 32 34 38 43 47 50 51 47 41 40 39 42 42 42 42 43 44 42 43 41 41
63 55 55 54 50 50 48 43 38 34 33 38 47 46 45 45 47 47 39 33 31 30 32 35 39 43 47 51 53 51 45 42 40 41 42 42 41 40 40 41 40 41 41 44
66 58 51 46 43 40 38 36 34 37 47 46 45 46 46 46 47 42 34 31 31 32 35 38 43 47 53 56 53 48 44 40 42 42 42 40 39 38 38 37 39 42 46 51
55 48 45 42 40 37 36 39 49 49 46 45 45 45 44 43 42 36 32 32 34 37 41 45 50 56 57 54 50 45 42 43 43 41 39 38 36 35 36 39 42 46 51 54
50 47 42 38 37 44 52 52 48 46 44 43 42 42 42 41 38 36 35 36 38 42 47 54 59 56 53 49 45 43 42 42 40 38 37 36 34 36 39 43 46 51 55 59
52 45 45 50 53 52 50 48 46 44 42 42 41 40 40 40 39 38 40 42 46 52 58 59 56 53 48 41 41 40 39 38 36 35 34 33 36 40 43 47 51 56 59 60
53 54 55 54 51 50 49 47 45 44 43 42 41 40 40 41 42 44 48 53 58 60 56 55 49 43 39 38 39 39 38 36 35 34 31 34 39 44 49 53 57 60 59 57
58 57 55 52 50 49 48 47 45 45 45 44 44 44 45 47 51 55 59 59 55 54 50 42 38 39 38 38 39 38 36 36 34 32 34 40 46 52 57 59 60 59 57 56
58 56 53 52 51 51 51 50 49 48 48 47 47 48 52 55 58 56 54 54 49 43 37 38 39 39 39 38 38 37 36 33 33 37 43 48 54 60 63 62 59 57 55 52
57 55 54 53 53 54 54 52 52 51 51 51 53 56 57 55 54 55 50 44 39 37 38 37 38 38 38 38 36 35 33 34 38 43 50 58 63 65 64 60 54 54 53 51
56 55 55 55 56 56 56 55 55 56 56 57 57 56 55 55 54 50 43 39 39 39 37 38 39 39 37 35 34 33 37 41 46 54 61 64 64 63 60 55 55 53 52 53

GFSNGP_prec_cthk_015.txt.gz
RH
63 59 62 70 70 70 68 63 56 54 54 53 55 50 49 47 44 40 43 45 46 48 53 56 56 53 56 62 57 55 54 53 54 54 51 47 41 33 30 29 28 28 30 31
63 60 58 58 58 58 57 55 56 52 49 57 51 51 47 47 39 40 42 45 49 54 58 58 56 53 63 61 55 54 53 55 56 55 50 43 36 32 31 30 30 32 33 30
69 62 63 60 51 50 49 48 49 48 47 49 51 52 41 36 36 36 41 47 53 57 59 57 57 60 61 55 52 52 56 57 56 52 46 38 34 33 32 31 34 34 31 26
73 66 73 52 48 48 48 46 48 47 50 50 50 51 42 40 34 39 45 53 56 57 59 60 61 61 54 51 51 55 57 56 53 49 41 36 34 33 33 35 35 31 27 23
77 74 67 55 52 52 51 48 48 46 48 48 52 49 48 44 44 48 53 55 57 59 61 64 64 55 52 49 54 56 55 52 49 44 39 35 35 33 34 35 31 27 24 22
81 75 71 58 54 51 52 51 46 45 46 46 49 50 49 49 52 52 53 56 59 63 65 66 52 48 46 52 55 54 52 49 45 41 37 36 32 33 35 33 27 24 23 23
93 81 69 59 57 54 56 55 52 46 44 45 49 50 52 54 55 59 61 61 64 64 58 47 42 43 49 53 54 51 48 48 45 39 35 30 33 35 31 26 24 24 24 25
92 90 83 65 61 61 61 58 56 53 52 53 55 55 57 58 56 56 59 62 54 46 40 39 44 49 51 51 48 47 50 47 38 32 29 32 34 31 26 26 26 26 26 27
69 71 69 65 64 63 62 60 57 54 54 55 56 57 57 58 57 53 48 45 41 37 41 45 48 49 48 47 48 52 47 36 29 29 33 35 33 29 28 29 28 28 28 29
68 69 70 70 70 67 61 54 60 59 59 62 61 59 58 52 51 42 37 36 39 43 45 45 46 48 49 51 52 42 33 28 30 33 37 36 33 32 31 31 30 30 32 34
71 73 71 67 59 54 58 69 66 64 62 59 57 55 51 47 41 39 40 44 45 42 42 44 48 52 52 52 37 30 28 30 34 38 38 36 34 33 32 32 34 36 37 38
62 57 54 54 57 63 65 63 63 63 64 65 63 57 52 47 44 44 44 42 42 42 45 50 53 50 47 34 29 29 30 35 39 40 40 37 34 32 33 34 35 36 39 45
55 58 56 60 62 62 59 54 55 57 57 57 55 50 45 43 42 40 38 38 40 46 51 51 49 44 32 28 28 31 35 39 41 42 41 38 37 35 32 30 33 35 39 44
54 53 53 53 54 55 56 56 55 53 52 51 47 40 40 37 34 34 35 40 47 50 50 49 41 31 28 29 31 34 39 42 45 45 42 40 38 35 34 32 32 34 38 42
46 45 48 51 54 57 55 55 57 55 54 46 40 36 32 32 34 37 40 45 49 48 48 38 31 28 29 30 33 38 43 46 48 46 43 40 36 34 33 34 37 39 38 35
55 57 58 58 60 63 64 62 58 52 44 40 34 32 34 36 37 40 46 48 48 46 36 31 28 29 30 32 37 42 46 49 49 47 42 37 35 34 36 39 39 38 36 37
53 53 52 50 52 57 58 54 45 39 37 36 38 38 34 36 45 48 49 48 45 35 31 28 28 30 33 36 41 47 51 51 49 43 37 36 35 37 40 38 37 36 36 41
51 52 53 53 56 57 50 44 44 42 40 37 33 33 42 48 49 47 46 43 35 31 28 29 31 33 37 42 47 52 53 49 43 37 37 35 38 39 37 38 36 36 39 43
59 62 64 64 61 55 49 43 39 34 34 32 36 47 48 48 45 44 43 38 32 30 31 31 35 38 44 49 54 54 50 42 39 38 36 37 37 37 37 35 35 39 45 48
66 64 57 51 46 41 39 36 36 35 35 45 48 47 45 42 42 43 41 35 32 33 34 37 41 47 52 55 53 48 39 40 38 36 36 37 37 36 35 35 40 45 49 52
60 56 49 45 42 39 38 37 38 44 50 47 44 42 41 42 42 41 38 36 37 37 40 45 51 55 55 52 44 36 39 37 36 35 36 37 36 34 35 40 46 51 54 55
54 50 46 43 41 42 43 46 52 50 47 44 43 42 42 43 42 40 39 39 41 46 50 55 55 53 48 39 36 36 35 33 34 36 37 36 34 36 40 45 51 55 56 55
55 52 45 44 46 49 54 53 50 48 46 46 45 45 45 42 41 42 45 48 52 55 54 51 49 41 38 36 35 34 33 34 36 36 35 33 35 41 45 51 55 57 56 53
55 48 51 56 57 56 55 52 51 50 50 49 49 48 45 44 46 50 53 56 54 51 49 44 40 38 37 35 34 33 34 35 35 34 32 38 42 47 54 57 58 57 53 51
56 58 60 59 59 56 54 54 54 54 53 52 50 49 50 52 54 55 53 52 50 45 42 42 39 38 36 35 33 32 33 33 33 34 38 42 48 56 58 58 58 54 51 50
61 61 61 60 58 57 57 58 57 56 54 53 53 54 56 55 51 51 51 47 42 42 42 39 38 36 34 32 31 32 32 32 34 39 44 51 57 59 57 55 53 50 49 48
63 61 60 59 60 62 61 59 57 56 57 56 56 55 52 51 51 49 45 42 43 42 40 38 36 34 32 31 32 32 32 36 41 46 53 57 58 56 55 54 51 49 49 50

GFSNGP_prec_cthk_018.txt.gz
RH
93 77 70 77 79 79 69 63 64 58 55 52 52 51 47 47 48 46 46 47 46 49 50 48 49 52 56 57 59 55 65 61 53 53 54 53 50 44 35 31 31 30 31 32
75 75 71 73 69 67 63 65 62 61 57 56 52 50 54 54 48 50 48 47 46 49 49 48 51 57 59 59 56 62 62 55 55 55 55 53 48 38 32 32 31 32 32 27
70 62 62 64 64 62 58 56 55 60 55 60 57 55 54 52 47 42 46 45 44 47 50 52 58 60 58 58 62 65 56 58 54 56 54 49 40 34 33 33 34 31 26 21
72 64 71 55 51 48 49 47 49 50 51 55 52 53 52 52 54 46 40 39 42 49 54 60 62 60 60 65 68 63 56 51 55 54 48 41 35 35 34 33 31 26 22 20
77 74 67 59 54 52 50 49 48 47 50 54 51 51 57 58 55 48 47 45 48 54 60 62 60 63 65 69 64 52 50 54 53 48 43 39 37 34 31 32 27 23 21 20
89 81 76 64 57 51 49 56 50 48 50 49 51 57 57 58 56 54 53 54 56 60 61 66 68 67 65 57 49 50 53 51 49 45 42 38 33 31 33 28 24 23 21 21
89 89 74 65 63 56 58 59 52 50 50 50 50 48 51 53 55 55 55 56 61 64 63 65 65 56 50 45 50 52 50 47 46 43 37 31 33 34 30 26 24 23 22 21
92 91 87 67 65 63 64 60 57 55 54 55 54 55 55 55 56 57 57 57 57 57 60 53 49 42 45 49 50 47 48 47 41 35 29 34 34 32 29 26 25 23 23 24
79 78 71 70 70 65 64 63 61 58 58 57 57 58 59 59 57 56 56 59 57 51 46 40 42 47 49 48 46 49 46 38 33 29 34 34 33 31 29 27 26 26 27 27
73 72 72 69 70 69 67 64 62 57 59 60 59 60 60 60 59 59 54 49 41 37 39 45 49 48 48 47 51 45 37 30 29 33 33 33 34 32 29 29 28 29 29 30
73 74 72 73 71 70 71 62 53 63 66 63 62 60 58 55 51 48 44 42 42 45 46 46 46 45 47 49 45 36 28 29 31 33 34 35 35 33 31 31 32 33 33 33
74 73 71 71 67 62 59 60 62 63 62 61 58 59 58 57 54 51 47 47 46 43 42 41 44 50 49 45 34 28 29 30 32 34 36 37 34 32 32 31 32 31 32 38
70 64 58 55 51 54 63 62 61 58 55 55 53 51 50 47 45 44 42 41 40 39 40 48 50 49 45 33 28 29 29 31 34 38 39 38 36 34 29 28 29 30 31 35
56 59 63 61 59 59 59 57 56 56 57 52 49 49 46 40 37 37 37 36 37 43 50 50 49 43 33 28 28 29 31 34 38 42 42 40 37 34 34 32 28 26 29 35
50 49 48 49 48 49 52 54 54 54 54 53 51 50 40 36 35 34 36 41 44 48 50 49 42 32 28 27 29 30 33 39 43 44 44 41 36 35 33 31 30 31 32 31
48 49 50 50 52 56 59 60 60 61 59 53 47 39 32 32 36 40 38 43 48 49 48 40 31 28 27 29 31 34 40 45 47 45 42 36 36 34 31 31 31 34 33 32
50 55 56 58 58 56 56 59 58 55 46 41 35 34 40 42 37 36 45 49 48 46 38 31 29 28 30 31 35 41 46 49 46 41 36 36 34 33 32 32 34 33 32 37
53 52 51 50 51 52 55 57 53 46 41 38 40 42 38 35 37 47 49 47 45 37 32 31 30 31 33 36 43 48 49 46 39 37 36 35 33 32 31 34 33 32 35 41
57 55 55 57 58 60 60 56 49 45 41 38 37 36 35 40 48 47 45 43 39 35 34 33 34 35 39 45 50 50 45 36 35 37 35 31 30 31 33 33 32 36 41 46
68 68 70 70 66 61 54 45 40 38 38 37 36 36 44 48 48 47 45 40 39 37 36 36 39 43 49 51 48 41 35 35 35 34 31 30 30 32 33 32 36 40 45 50
67 68 67 62 55 51 46 41 39 39 39 38 39 47 49 48 47 45 43 42 41 38 39 43 49 53 49 44 36 35 34 34 33 31 30 30 32 32 31 34 39 45 50 51
63 63 60 51 48 43 40 40 40 40 40 44 51 51 50 49 47 46 45 43 42 44 49 53 50 46 40 35 36 35 34 33 31 29 29 32 32 32 35 39 46 50 51 51
58 56 51 48 44 43 43 43 43 45 52 54 54 52 50 49 48 46 45 47 50 53 51 47 43 37 36 36 35 34 32 30 28 29 32 31 32 37 41 46 51 51 51 50
58 54 50 47 48 48 47 51 56 58 57 55 54 53 51 50 48 49 52 54 51 48 44 39 37 36 35 35 33 31 29 28 30 30 30 35 39 43 47 51 51 50 50 46
60 52 52 53 55 57 60 62 60 58 57 57 55 53 51 52 54 55 52 49 46 41 38 37 36 35 34 32 31 29 29 29 28 31 36 40 44 48 51 51 50 49 47 45
56 54 56 59 61 62 61 60 59 59 58 56 54 54 56 56 54 51 49 44 39 38 37 36 36 34 31 30 29 28 26 27 32 38 42 45 49 51 50 49 48 46 44 46
58 59 60 61 62 63 62 61 60 57 56 56 56 56 54 52 51 49 44 40 39 38 38 36 33 30 29 28 25 25 28 34 40 42 46 50 51 49 48 49 47 43 44 54

GFSNGP_prec_cthk_021.txt.gz
RH
92 87 86 91 88 94 93 82 77 66 62 56 51 48 46 47 47 47 47 47 48 49 50 51 51 52 51 53 56 59 63 67 63 68 64 56 57 51 44 36 30 32 34 32
90 79 78 83 85 85 86 75 72 70 65 57 55 53 52 51 52 52 52 52 53 53 53 53 52 51 52 56 62 66 68 65 70 71 66 60 51 46 38 31 34 36 34 29
85 89 88 88 79 81 76 71 69 71 67 60 57 55 56 55 55 54 49 48 50 51 51 51 49 52 58 64 68 66 67 73 76 70 57 50 50 37 31 35 37 35 29 23
82 77 80 65 65 68 69 65 64 64 65 60 59 57 55 54 54 55 54 51 44 45 47 49 52 58 65 68 67 70 74 78 70 54 52 50 38 33 35 37 35 30 24 21
87 82 72 64 58 56 58 56 54 54 57 59 56 54 55 54 55 56 59 56 50 50 48 52 59 66 68 70 74 76 74 63 53 53 50 38 35 36 38 35 31 25 22 20
92 85 77 62 59 54 54 58 51 52 52 51 53 57 60 57 56 57 58 58 59 60 61 63 68 72 73 71 74 67 58 52 52 48 39 38 37 37 35 32 27 23 21 21
88 89 76 65 63 57 59 58 52 53 53 54 54 55 59 60 59 59 59 59 61 63 65 68 67 66 67 67 58 51 51 51 46 41 39 36 37 36 33 29 24 23 23 23
91 92 87 64 65 62 62 60 58 55 53 56 56 56 56 58 59 60 61 62 65 65 64 64 66 65 57 48 48 51 52 46 40 38 36 37 36 34 31 27 26 25 24 24
80 77 72 70 67 64 63 62 63 57 58 58 61 61 61 61 60 62 60 59 60 61 64 61 54 44 45 51 53 50 43 40 37 35 37 36 34 32 29 29 28 26 26 27
76 70 69 70 70 69 67 64 65 62 60 60 60 61 62 62 60 61 61 63 61 54 48 42 43 49 53 51 45 44 41 36 34 36 35 35 34 32 32 31 28 29 30 29
72 73 71 70 68 69 68 67 67 63 60 61 61 61 60 61 60 57 54 51 49 48 48 49 51 50 46 44 47 41 35 33 34 34 34 34 35 35 34 30 31 31 30 32
73 71 71 71 70 72 72 69 62 58 64 65 62 59 55 53 51 50 50 50 48 47 48 46 44 45 48 48 40 35 32 33 33 34 34 36 36 35 32 29 29 29 32 32
74 73 74 73 69 68 63 59 59 62 62 59 55 53 50 49 49 48 44 43 43 41 41 43 48 48 48 41 35 32 32 32 32 35 38 39 37 31 27 28 28 28 27 30
73 67 64 62 62 61 59 60 63 61 60 55 53 51 50 48 48 42 42 42 40 42 47 47 48 50 42 35 32 31 31 32 35 40 40 39 34 30 29 27 25 24 25 28
56 55 60 65 61 58 56 55 54 53 51 51 53 53 51 46 44 40 38 40 46 45 45 50 51 42 35 31 30 31 32 36 41 41 40 34 30 29 28 28 28 26 23 25
54 55 55 53 52 52 52 52 54 58 59 60 58 51 45 40 37 38 45 46 40 45 51 50 40 34 31 31 31 33 37 43 43 40 33 30 29 28 28 28 27 26 26 27
49 52 54 55 55 56 59 61 62 61 60 56 50 41 40 40 44 47 41 39 46 51 47 38 34 33 33 33 33 40 44 44 39 32 30 30 29 28 28 26 26 27 26 31
51 53 55 56 58 56 55 55 57 57 54 49 41 41 43 45 42 40 40 47 50 45 40 37 36 35 35 36 42 46 45 38 31 30 30 29 28 27 26 26 26 26 29 33
55 58 59 60 59 57 60 60 61 58 52 46 43 42 43 41 39 40 50 50 45 42 40 39 39 38 39 45 47 44 35 30 30 29 28 27 26 26 26 26 26 30 34 39
65 70 71 71 72 72 71 67 57 47 43 42 44 43 41 40 42 52 52 48 46 44 42 41 40 43 49 47 41 32 31 30 29 28 27 26 26 25 24 26 31 35 39 44
72 74 74 75 74 69 61 56 48 45 44 43 42 42 41 45 54 53 51 48 46 45 43 43 49 50 45 36 32 31 30 29 28 27 26 25 24 23 26 31 36 39 44 46
70 73 71 69 65 58 54 47 43 43 42 42 43 43 50 56 55 52 50 49 47 46 49 51 47 40 34 32 31 30 29 27 26 26 24 22 24 28 33 37 40 43 45 44
65 65 63 60 52 48 48 49 47 44 43 44 48 57 58 56 54 52 51 50 51 51 47 44 37 33 32 31 31 29 27 26 25 22 21 25 30 35 38 41 44 45 44 44
61 59 58 53 48 48 49 49 48 48 51 57 60 58 57 56 54 52 53 51 47 45 41 36 34 33 32 32 29 27 26 24 21 22 27 32 37 38 41 44 44 43 43 41
65 64 57 51 52 54 53 54 56 58 60 61 60 59 57 55 54 51 48 46 44 40 37 35 34 33 32 28 27 26 22 22 24 29 32 35 38 42 44 42 42 42 41 43
62 57 53 53 54 56 56 57 60 62 62 61 59 57 56 53 49 47 46 43 40 38 36 35 34 32 29 27 24 21 23 27 30 32 35 39 42 42 41 41 43 42 40 53
60 57 54 56 57 58 60 63 64 64 64 61 58 55 50 48 47 45 43 40 38 37 36 35 32 29 26 22 22 25 28 32 35 37 41 43 42 41 40 42 42 40 52 58

GFSNGP_prec_cthk_024.txt.gz
RH
96 94 98 89 77 83 93 93 97 87 75 62 54 53 51 51 52 52 52 51 50 49 48 49 51 52 53 55 57 58 59 61 65 70 73 70 72 72 62 48 34 36 33 35
97 94 97 98 96 93 95 97 97 95 70 57 55 51 50 50 51 52 53 53 54 54 54 56 57 57 57 57 58 58 60 66 71 73 72 76 78 69 48 37 36 34 37 36
98 92 95 99 96 97 97 95 96 88 68 60 59 57 58 57 57 58 55 54 55 57 58 59 59 60 59 57 56 61 66 72 75 76 81 79 68 50 40 35 36 40 37 32
95 94 86 74 79 84 85 79 75 70 64 61 59 59 59 60 60 61 62 59 54 53 54 55 57 58 57 58 62 68 73 76 80 82 79 64 50 39 34 38 41 39 33 27
96 94 76 69 67 68 71 67 62 67 67 68 65 61 60 58 60 60 60 60 61 61 54 54 56 58 59 64 72 76 78 80 80 76 61 47 38 37 39 42 39 34 28 24
90 89 80 64 60 56 58 63 55 57 57 57 60 60 60 58 58 58 59 62 64 64 65 67 68 69 71 75 77 74 75 77 66 54 46 40 36 39 43 39 34 29 26 24
85 90 75 69 65 60 62 59 54 55 54 54 54 56 58 58 58 60 62 65 68 67 67 68 70 72 74 73 71 75 68 54 51 48 39 34 40 43 39 35 30 27 25 24
88 89 81 65 64 61 60 57 57 55 56 57 59 60 59 60 61 61 60 62 64 66 69 71 71 70 70 72 66 55 50 52 46 36 34 41 42 39 35 32 29 27 24 23
79 76 68 70 67 65 63 63 63 58 61 60 62 63 64 64 65 66 67 68 69 68 68 68 70 69 62 52 49 53 51 43 34 35 41 41 38 36 34 32 29 26 24 25
77 71 73 74 72 70 68 66 67 66 63 63 64 66 67 67 68 68 68 67 67 68 68 61 54 51 51 54 54 49 40 36 37 40 39 37 36 35 33 31 27 25 26 27
74 74 72 71 71 71 71 69 69 69 67 66 66 66 65 65 64 64 64 62 58 55 52 49 47 50 53 49 43 41 37 37 38 37 35 36 35 35 34 30 27 29 29 29
76 70 70 70 72 72 70 69 69 68 65 63 65 67 67 63 58 54 52 50 49 48 46 47 50 49 45 45 42 39 37 37 35 33 35 36 36 36 33 28 27 26 25 28
73 71 73 74 75 74 72 72 69 62 60 60 61 59 55 52 50 48 45 42 43 45 47 48 46 48 46 43 41 37 35 33 32 34 37 38 37 33 28 27 26 25 24 24
74 76 79 77 75 72 68 63 62 62 63 61 59 55 51 49 48 44 43 44 46 45 44 48 49 46 45 41 36 33 32 32 34 38 39 38 33 29 27 25 24 23 23 23
76 71 67 66 66 67 66 62 60 60 58 54 51 49 49 49 47 46 47 44 42 45 51 47 46 46 40 35 33 33 33 35 39 41 40 33 29 27 26 25 24 22 21 20
61 59 59 65 68 64 58 55 53 52 52 55 57 56 53 46 43 44 45 44 50 48 44 46 45 39 36 35 35 35 38 41 42 40 32 29 27 26 25 24 23 22 20 21
56 60 58 56 55 55 55 54 55 58 60 57 54 49 44 42 44 46 48 49 43 43 45 44 40 39 38 37 38 41 44 44 37 30 28 27 26 25 25 24 23 20 21 24
51 49 50 52 53 56 59 59 57 57 56 54 50 46 45 45 45 45 44 41 42 46 45 43 42 41 40 41 44 46 43 35 30 28 27 26 25 25 24 22 21 22 25 29
52 52 56 60 61 58 57 56 57 56 57 56 50 48 46 45 47 44 41 43 49 48 46 45 44 44 45 48 46 39 32 29 28 27 26 25 24 22 21 21 24 28 31 33
63 60 62 64 66 67 68 67 66 64 56 47 46 48 48 47 44 42 45 51 51 49 48 46 46 48 49 43 35 31 29 28 27 26 24 23 20 20 22 26 30 33 35 37
66 67 70 72 73 74 75 71 65 54 49 48 47 46 44 43 45 52 57 54 51 49 48 49 50 45 40 34 31 30 28 27 26 24 21 18 20 24 26 30 33 36 38 39
66 70 73 70 71 70 68 60 52 48 46 45 45 44 44 48 58 57 54 52 50 49 50 48 43 37 33 31 30 29 27 26 24 20 18 22 26 28 30 33 37 39 39 39
67 70 71 69 68 64 57 51 48 47 46 46 46 48 55 59 56 54 52 52 52 50 46 41 36 33 31 31 29 27 26 23 19 19 24 27 29 31 34 38 39 38 37 38
64 65 65 64 57 50 46 48 48 50 51 52 55 58 59 57 55 54 54 53 48 44 39 36 34 32 32 30 28 26 22 19 21 26 28 31 33 36 37 38 37 38 40 40
67 65 64 59 53 50 51 52 54 55 57 58 59 60 59 57 56 54 49 45 42 38 36 34 33 33 31 28 26 22 21 24 27 29 32 35 37 37 38 38 36 40 39 48
68 66 61 55 52 52 53 55 55 57 59 61 61 61 60 56 51 47 45 41 38 36 35 34 33 31 28 25 22 22 25 29 31 34 36 38 38 41 42 37 38 40 49 55
64 63 59 56 55 55 56 57 59 60 63 64 63 61 56 50 47 44 41 39 37 36 35 34 32 28 25 22 23 26 30 32 35 37 39 39 42 44 41 37 39 49 57 55

GFSNGP_prec_cthk_027.txt.gz
RH
95 90 93 98 98 92 94 86 90 73 71 65 67 75 74 77 68 64 63 61 58 58 56 55 54 52 51 51 53 56 58 60 63 65 66 69 73 77 74 76 70 54 40 38
95 91 94 97 96 92 87 85 87 84 79 66 79 82 71 70 59 56 57 57 58 57 55 54 53 53 55 56 58 60 62 64 63 64 69 75 80 79 81 73 54 40 37 37
92 97 96 98 94 93 93 89 92 95 87 80 74 70 67 66 59 57 57 57 58 60 61 59 58 59 60 62 63 63 63 61 64 70 77 82 82 82 74 53 39 39 39 38
98 99 98 93 96 94 96 95 95 94 87 82 76 70 64 61 61 59 60 60 61 63 64 64 63 65 66 66 65 63 61 65 72 79 84 83 81 73 48 40 42 38 40 41
99 97 84 76 83 95 96 97 95 95 86 79 75 70 68 67 66 66 67 68 66 65 62 64 64 64 64 64 62 64 68 76 82 84 82 79 65 43 42 42 38 43 40 33
90 93 83 75 69 68 83 77 79 85 81 79 73 68 66 67 67 67 66 65 64 65 68 69 65 66 68 69 68 72 79 82 81 80 76 53 43 42 39 40 44 39 33 28
86 88 77 68 67 65 68 66 63 65 70 69 68 69 67 65 62 61 62 63 65 68 72 74 74 74 73 76 80 80 78 79 77 59 49 44 40 37 42 43 39 34 29 27
85 87 78 67 63 59 58 58 56 56 56 59 59 61 62 62 62 62 63 65 69 72 73 70 72 77 78 75 74 75 74 59 53 51 42 36 39 43 42 38 34 31 28 26
80 76 69 70 67 65 61 62 60 59 59 59 60 61 63 62 63 64 63 63 66 70 74 75 74 73 75 76 66 57 55 56 49 36 36 40 42 41 38 35 33 30 27 24
81 74 71 70 70 68 66 65 66 64 62 62 62 64 65 65 66 67 69 71 73 73 73 74 75 68 60 57 55 55 52 41 37 39 39 40 39 37 36 35 32 28 25 23
79 76 74 72 72 71 70 70 69 69 68 66 66 67 66 67 68 69 70 71 71 69 62 57 55 53 52 53 52 46 41 40 38 38 38 36 37 37 37 34 29 26 24 24
75 71 72 70 72 71 72 73 71 70 70 70 69 67 68 71 71 68 64 57 54 53 51 49 47 50 51 49 45 44 39 37 36 35 35 37 39 39 35 29 26 24 23 23
74 73 72 73 75 75 75 74 73 72 71 67 65 66 63 60 56 54 51 50 47 43 47 47 49 49 45 47 44 39 37 35 35 36 39 41 38 34 28 26 25 23 22 22
76 74 76 77 79 79 73 73 73 67 64 66 65 63 57 53 51 49 46 44 43 47 47 48 47 48 48 43 38 36 36 36 38 41 41 39 34 28 26 24 22 21 21 21
78 76 78 79 80 79 76 69 65 63 62 60 56 52 51 50 49 48 47 45 48 49 48 49 50 47 41 38 37 38 38 40 43 42 40 32 28 25 23 23 22 21 19 19
80 78 74 72 72 71 69 64 59 56 53 52 54 55 56 54 48 46 42 46 49 50 51 47 45 41 39 39 40 40 42 44 44 39 30 27 25 23 23 22 20 18 19 21
63 64 65 67 67 65 63 60 57 56 56 58 58 57 50 44 44 43 46 50 51 48 45 44 42 41 41 42 42 44 46 44 35 29 26 25 24 23 22 19 18 20 22 25
58 58 58 58 56 56 56 57 58 60 60 57 54 50 42 43 45 48 48 47 46 45 42 44 44 44 44 44 46 47 42 33 28 27 26 24 23 21 18 19 21 23 24 27
56 55 54 54 55 58 59 60 59 56 53 52 52 48 47 48 47 47 48 45 44 45 47 47 47 46 47 49 46 38 31 29 28 26 24 22 20 18 19 22 24 26 28 32
59 58 58 58 62 65 65 61 60 60 62 60 50 46 48 48 48 46 43 44 50 51 50 48 48 50 50 43 35 31 30 28 26 24 23 19 19 20 24 26 28 30 33 35
64 66 66 65 65 65 67 69 71 68 64 52 47 48 47 46 46 44 48 54 52 51 50 50 51 46 40 34 32 30 29 27 25 22 19 19 22 25 26 29 32 34 34 34
64 66 68 70 68 68 71 72 69 61 51 49 48 46 46 46 46 53 55 54 52 51 51 48 44 38 34 31 30 29 27 25 22 19 20 23 26 28 30 32 33 33 34 35
69 72 72 72 71 70 70 67 59 51 49 47 47 48 49 52 58 57 55 53 52 50 46 42 37 34 32 31 30 28 25 22 20 21 25 27 29 31 33 33 35 34 34 37
66 70 73 69 66 67 64 57 51 50 49 49 52 54 57 60 59 56 54 52 47 45 41 36 34 32 32 30 28 25 22 21 22 26 28 30 32 33 34 37 36 33 37 43
66 66 70 66 67 60 52 50 51 53 54 56 57 59 61 60 58 55 51 47 44 40 37 34 33 33 31 28 25 22 21 23 26 28 30 32 33 34 38 39 35 36 43 52
72 74 71 69 61 56 54 53 53 55 57 58 60 62 61 59 55 50 46 43 40 37 35 35 34 31 28 25 23 22 23 26 28 29 33 35 35 39 40 38 34 41 51 56
76 72 70 63 57 54 52 54 55 57 60 62 63 63 59 52 48 46 43 41 38 37 36 34 31 29 26 23 21 23 26 27 29 32 34 35 39 41 40 36 37 49 54 63

GFSNGP_prec_cthk_030.txt.gz
RH
92 93 96 97 98 97 97 92 97 78 71 55 53 54 54 49 59 69 76 70 67 69 67 66 65 65 65 62 57 56 56 57 59 61 64 67 68 68 71 75 79 79 70 60
95 94 98 97 97 98 97 97 95 92 86 71 67 60 67 66 68 79 78 76 74 71 65 62 60 59 58 58 58 57 58 60 62 65 67 68 68 70 77 82 81 71 61 41
91 94 98 98 97 97 93 97 95 96 77 80 82 82 81 74 73 81 80 75 74 69 64 63 61 59 58 57 58 59 62 64 67 68 68 69 72 79 83 81 72 58 40 42
97 97 98 95 94 90 88 86 86 87 87 89 91 85 78 71 71 72 70 69 69 67 64 62 60 60 60 62 63 65 68 68 68 69 71 76 82 84 80 73 51 41 42 40
99 97 92 83 88 94 92 82 80 83 87 85 82 74 72 68 68 67 66 66 66 68 68 68 67 66 67 68 69 70 69 67 69 74 80 84 84 78 69 44 44 40 41 42
97 97 94 75 74 78 86 80 84 85 84 82 79 75 72 72 71 70 70 72 72 72 72 71 68 70 70 68 69 70 72 74 78 83 84 81 77 53 46 42 38 43 42 37
92 92 86 73 68 66 66 71 75 83 84 86 85 82 77 77 74 72 74 75 74 73 71 73 76 76 74 76 76 75 79 84 81 79 78 62 51 45 37 40 43 41 36 32
84 91 82 76 68 62 62 60 59 63 70 76 78 77 80 78 75 73 71 70 70 72 75 79 83 82 78 78 81 81 78 78 76 63 57 48 38 38 42 42 39 36 33 29
82 80 74 77 73 69 67 63 62 62 63 65 69 72 74 75 74 73 72 71 72 74 75 75 77 81 80 78 79 78 69 61 59 52 40 37 41 40 39 38 37 34 30 27
83 75 74 73 73 71 68 70 67 66 68 70 72 73 73 73 72 71 72 71 74 76 77 78 78 80 79 72 62 59 57 55 45 39 40 39 38 38 38 39 36 30 27 25
80 78 75 73 75 75 73 72 71 70 70 71 70 72 72 73 74 75 76 77 78 78 77 75 69 62 57 55 54 54 50 43 41 40 37 36 37 39 41 38 31 28 25 22
79 74 75 72 75 75 74 74 74 72 73 73 74 73 73 73 75 76 76 76 73 66 58 54 53 53 52 52 51 45 44 41 38 36 36 38 42 43 38 31 27 24 22 21
74 74 74 74 75 77 76 76 76 75 75 75 73 73 75 72 68 62 57 55 53 51 48 47 49 49 50 46 45 45 40 36 36 37 40 44 43 36 29 27 24 22 20 19
73 75 77 76 77 78 76 77 76 77 73 69 67 67 66 64 56 52 50 47 46 45 46 48 49 48 46 46 43 37 36 37 39 43 46 43 34 28 26 24 22 19 17 16
79 80 77 76 77 80 79 77 77 74 67 63 63 59 52 49 49 50 50 49 45 44 47 48 47 47 45 40 37 38 40 42 45 47 41 31 28 26 24 22 20 17 16 17
75 82 81 81 80 80 78 75 72 68 60 56 53 52 54 54 52 48 46 44 43 45 47 48 46 44 39 40 41 42 44 48 47 37 30 28 27 24 22 20 17 17 18 20
80 83 79 74 74 71 70 66 62 58 57 58 57 58 55 49 43 42 44 46 49 50 47 46 45 39 43 44 45 47 51 44 34 30 29 26 24 22 20 18 19 20 22 23
63 60 61 65 66 66 65 63 62 62 60 60 58 54 46 41 43 48 50 50 49 47 47 42 43 45 47 47 51 50 40 33 30 29 26 24 22 20 19 20 21 23 25 27
60 60 60 62 62 60 58 57 58 60 61 57 52 52 46 47 48 49 50 50 47 45 44 46 48 48 49 53 46 37 32 30 29 26 24 21 19 19 21 23 25 26 27 28
62 60 59 60 63 63 62 64 66 64 62 58 59 51 48 49 50 50 48 45 44 46 49 49 50 52 50 42 35 31 30 28 26 23 21 19 21 22 24 26 27 27 28 29
65 65 65 64 66 67 69 69 67 66 67 64 54 50 49 48 50 47 45 47 51 51 51 50 52 47 39 34 31 30 29 26 23 21 20 22 23 24 25 26 27 29 30 30
64 67 69 71 72 73 71 69 70 73 70 58 51 50 49 48 48 46 50 54 52 51 51 50 44 38 34 31 30 29 26 23 22 22 23 24 25 26 27 28 31 32 30 32
66 70 74 77 77 75 72 72 72 67 56 51 50 48 49 49 50 55 56 53 51 51 47 43 37 33 32 31 29 27 24 22 22 23 24 25 26 28 29 32 34 33 31 34
69 72 75 77 75 73 72 72 69 59 51 49 49 51 52 54 58 57 54 52 51 46 41 36 33 33 32 30 27 24 23 23 24 24 25 26 28 31 33 35 35 32 33 45
68 68 69 69 67 67 70 67 56 50 50 52 55 56 57 58 58 55 53 49 44 40 36 34 34 33 30 27 24 23 22 23 23 24 26 29 31 32 36 37 34 31 41 53
68 68 73 70 67 72 63 55 53 54 56 56 57 59 59 59 57 52 47 44 40 37 36 35 33 30 28 25 23 22 22 22 23 26 29 32 33 35 37 37 34 39 51 59
73 71 75 76 75 63 58 57 56 55 57 58 59 61 62 57 51 48 45 42 38 37 36 33 31 28 26 23 20 20 21 22 25 28 32 33 35 37 37 36 40 49 57 65

GFSNGP_prec_cthk_033.txt.gz
RH
88 87 91 97 98 98 98 92 96 78 91 70 62 55 54 65 67 68 66 57 62 63 62 64 68 75 79 81 83 82 78 73 70 66 60 63 67 69 72 74 72 72 75 77
90 90 93 98 97 94 95 94 92 80 78 64 57 59 69 70 74 74 73 74 74 72 74 74 78 81 83 82 82 79 76 71 63 61 65 68 72 74 73 72 73 78 80 71
87 86 94 98 95 91 91 86 85 87 65 69 75 71 82 73 76 79 90 82 74 76 78 78 81 84 82 79 76 70 65 63 64 67 70 74 74 72 73 76 80 81 71 59
92 95 96 95 95 91 90 82 80 78 76 77 77 75 71 66 71 81 88 79 76 77 77 75 74 73 69 68 66 63 62 65 70 73 74 73 74 76 79 83 82 67 51 44
96 95 84 82 87 89 93 93 91 94 82 75 78 76 67 67 72 80 85 81 79 77 74 73 72 70 67 65 64 65 69 72 73 73 74 76 79 84 85 76 61 45 43 40
92 92 92 79 79 83 87 87 92 92 91 91 90 88 79 78 76 78 78 76 76 77 77 77 75 73 72 70 69 70 71 71 74 78 79 83 86 81 70 49 45 38 43 43
90 93 80 73 71 69 72 81 89 91 91 89 88 84 80 78 78 78 77 78 81 82 81 81 78 75 74 75 73 74 77 78 79 84 84 81 73 54 46 38 39 44 40 36
86 86 84 71 65 66 65 65 71 76 86 88 89 86 84 82 79 80 81 81 81 81 81 81 80 81 81 81 80 79 81 83 81 80 73 57 49 40 37 42 41 39 37 33
81 78 70 71 69 67 65 62 66 68 73 81 83 80 78 78 79 79 79 78 78 79 80 81 82 82 81 81 81 80 81 78 66 58 53 43 38 40 41 38 40 38 34 30
79 75 74 72 72 68 68 68 65 66 67 70 72 74 75 79 81 81 79 79 78 77 79 79 81 83 83 82 80 71 61 57 54 46 39 39 40 37 39 41 39 34 30 26
79 78 74 74 77 74 72 70 68 68 69 70 71 74 76 78 79 80 79 81 82 82 83 83 82 79 71 64 59 56 52 49 42 40 39 37 37 41 43 40 34 29 26 23
76 76 76 76 78 76 77 76 75 73 73 74 75 75 77 79 81 81 82 83 84 83 78 69 64 61 58 54 50 50 44 41 41 37 36 39 43 44 40 32 28 25 22 19
77 77 78 78 79 80 79 78 78 78 77 77 79 79 80 81 83 81 74 71 68 64 60 55 53 53 50 50 46 43 42 37 36 38 42 45 45 37 31 29 25 21 18 16
75 76 77 79 81 81 80 79 83 79 81 77 76 76 76 76 74 67 60 57 54 52 49 48 49 49 47 44 43 40 37 38 41 44 48 43 33 30 27 23 20 17 15 16
75 76 76 81 82 82 83 82 79 79 80 73 70 70 65 58 52 51 51 51 50 48 47 48 48 46 44 41 38 38 40 43 48 48 38 32 29 26 23 20 17 16 17 18
77 81 86 84 85 86 86 88 84 79 74 66 60 55 52 52 53 52 50 49 47 47 48 50 48 44 40 39 39 42 46 50 44 35 31 28 25 22 19 17 17 18 20 21
77 83 90 85 82 81 80 77 73 69 63 61 59 60 57 53 51 45 46 50 53 52 50 47 44 41 39 43 45 49 48 39 33 30 27 24 22 19 18 19 20 22 22 23
75 76 75 74 78 75 72 70 68 66 64 62 64 57 53 48 43 47 51 53 51 48 47 43 40 43 46 47 50 44 35 31 29 27 24 21 19 19 20 21 23 23 23 23
69 67 67 68 69 69 66 63 61 62 61 62 60 56 48 46 50 50 49 51 50 47 41 42 45 47 49 48 40 33 31 28 27 24 21 19 19 20 22 24 24 24 25 25
66 66 64 66 67 66 65 64 65 66 68 67 60 52 48 51 50 49 51 49 44 42 45 48 48 49 45 37 33 30 29 27 24 21 20 20 21 22 24 24 25 26 28 27
66 66 66 66 66 65 67 69 68 69 72 66 58 51 52 52 50 51 48 44 45 48 50 49 50 43 37 33 30 29 27 24 22 20 20 21 22 23 24 25 27 29 30 28
64 66 66 68 69 70 70 72 74 74 70 69 60 54 52 50 50 47 46 48 51 51 51 50 43 37 32 31 29 27 24 21 20 20 21 22 23 24 26 28 30 31 29 29
66 65 67 71 72 75 77 80 74 75 68 61 55 53 50 48 48 48 51 54 52 52 49 43 36 33 31 30 27 24 22 20 20 21 22 23 24 27 28 31 33 32 28 33
65 69 71 74 75 76 78 75 74 72 67 58 52 48 48 49 51 54 56 53 53 48 42 36 34 32 31 27 24 22 20 20 20 21 23 25 27 29 31 34 35 31 31 48
65 69 71 74 73 73 71 71 68 63 54 51 51 53 55 56 57 57 54 52 47 41 38 35 34 31 28 26 22 20 20 20 20 21 25 27 29 30 32 35 34 33 44 56
69 68 69 72 71 69 68 71 67 57 54 54 56 58 58 58 59 56 51 47 42 39 37 35 33 31 28 24 20 20 19 20 22 25 28 29 29 30 34 34 34 45 54 64
73 72 74 76 75 72 78 70 59 58 57 58 58 59 61 62 57 51 48 44 42 40 37 34 32 30 25 20 19 19 20 22 25 27 28 29 30 34 34 34 43 54 64 74

GFSNGP_prec_cthk_036.txt.gz
RH
79 78 84 92 92 96 98 92 95 63 74 72 81 84 70 65 57 55 64 68 63 56 51 52 54 54 58 64 70 79 85 86 85 82 76 74 72 76 73 71 75 78 79 77
91 86 92 94 94 94 92 89 85 80 69 65 66 63 60 57 58 71 75 72 65 58 54 64 66 64 70 75 82 86 88 89 84 79 78 76 78 71 72 76 80 81 76 76
91 89 85 92 94 91 88 77 75 73 61 62 67 72 79 86 84 81 75 72 62 61 65 65 75 76 79 85 85 86 90 85 83 81 79 73 72 76 79 82 80 76 79 76
95 91 94 87 85 85 88 71 69 63 66 72 83 92 88 84 80 78 77 70 75 75 76 82 87 86 87 87 91 91 85 84 81 74 73 76 79 82 82 77 80 82 77 66
93 93 84 81 82 84 97 96 88 77 73 71 80 80 88 90 88 93 91 89 88 89 91 91 92 91 90 89 86 84 77 73 74 77 80 83 82 79 81 84 83 71 58 45
95 96 85 75 77 78 91 97 96 97 90 83 86 79 80 92 97 94 89 87 89 90 90 90 88 85 81 77 75 74 74 78 80 82 80 81 84 87 88 77 62 45 42 39
91 94 81 71 74 68 70 79 86 93 96 94 92 82 82 84 90 94 91 89 87 86 84 83 81 79 78 78 78 78 79 79 82 85 85 87 89 80 65 47 42 38 41 39
89 89 86 73 72 71 69 71 75 86 93 95 91 88 90 91 89 88 86 86 87 87 86 85 85 83 80 79 81 84 86 86 87 89 87 81 66 49 43 38 39 41 38 35
77 74 72 75 74 75 70 69 69 75 87 93 92 92 88 87 90 90 90 88 87 87 84 82 83 85 87 86 85 85 86 87 85 77 60 51 45 38 38 40 40 38 35 34
75 72 73 74 76 75 72 72 71 72 77 80 83 84 84 87 88 88 87 86 83 81 80 80 81 82 83 84 85 84 80 67 58 54 47 39 37 39 40 40 38 35 35 32
73 72 73 73 76 75 74 75 75 75 75 76 77 81 83 83 84 85 84 82 82 83 83 83 83 84 83 77 70 63 59 55 49 41 38 38 38 41 41 38 35 32 27 23
69 72 76 74 77 77 77 78 78 78 77 77 77 78 80 82 84 84 84 85 85 86 85 79 71 68 65 62 58 54 50 43 39 39 37 40 43 42 38 34 30 25 21 17
69 72 76 78 78 79 80 79 79 80 81 80 80 81 82 83 84 86 83 80 78 75 71 67 62 60 55 52 50 46 41 39 37 38 43 44 41 36 32 28 23 19 16 16
70 73 77 77 78 79 80 80 81 82 81 81 81 81 81 81 80 78 71 67 65 63 60 56 52 51 48 47 44 41 38 38 41 45 44 38 34 30 26 21 18 16 17 18
75 76 78 78 78 83 84 84 84 83 81 77 78 77 74 70 64 59 58 58 56 52 49 49 49 49 47 44 39 38 40 44 46 42 36 32 28 24 21 18 17 18 18 17
77 78 80 84 86 83 83 84 83 85 81 73 70 65 62 58 56 55 53 50 50 50 52 53 51 47 42 39 39 42 46 45 39 33 30 27 23 20 18 18 18 18 19 20
77 81 83 88 84 85 84 85 85 78 71 66 63 60 59 57 53 50 47 51 55 54 51 48 45 41 39 41 44 48 43 36 31 29 26 23 20 19 18 18 18 19 19 21
78 82 88 88 85 82 81 80 75 71 69 66 64 62 56 52 49 48 52 53 51 49 48 45 39 40 44 47 47 40 34 31 28 25 22 20 18 18 18 18 19 20 21 23
75 74 76 79 78 77 76 71 67 64 63 64 62 59 53 51 50 52 52 51 51 50 43 39 43 46 49 46 38 34 31 28 25 22 19 18 18 18 19 20 21 22 25 26
70 70 70 71 72 72 70 68 68 68 67 67 65 60 53 51 53 53 51 50 49 44 41 45 48 51 44 37 34 30 28 25 22 20 18 18 19 19 20 21 23 25 27 27
70 71 70 69 70 70 69 68 70 71 72 68 65 60 54 53 55 54 52 50 44 43 47 51 51 44 38 33 31 28 25 22 21 19 18 18 19 20 22 24 26 28 29 26
69 69 70 70 69 69 69 69 71 73 79 74 69 63 58 57 56 55 52 47 46 50 53 51 44 38 34 31 29 26 24 22 20 18 18 19 21 23 26 27 28 30 30 27
68 70 71 69 69 69 72 75 77 82 80 74 68 59 58 56 53 50 48 49 53 54 51 45 38 34 32 30 29 25 22 19 18 19 20 22 25 26 28 28 30 32 30 31
62 68 73 71 72 72 74 79 80 85 75 71 66 58 52 49 50 52 53 55 55 51 46 39 36 34 33 30 26 22 19 19 19 20 22 25 28 28 28 30 33 32 33 49
64 65 69 71 75 76 76 80 79 74 67 64 56 53 54 56 56 55 56 56 52 47 41 38 37 35 31 27 23 20 19 19 20 22 26 27 28 27 29 33 33 34 49 57
68 71 71 72 75 74 73 78 72 72 68 59 56 56 57 59 59 58 57 53 49 44 40 39 36 33 29 24 22 20 19 20 23 26 26 25 26 30 32 32 33 48 58 66
70 74 74 75 76 72 82 78 81 72 64 59 58 59 61 61 61 59 56 52 47 43 41 39 36 31 27 24 22 19 20 22 25 25 24 26 29 31 31 33 47 57 68 81

GFSNGP_prec_cthk_039.txt.gz
RH
65 73 76 83 88 87 97 96 89 66 80 65 63 65 71 77 75 74 66 59 57 63 72 61 60 59 57 57 65 69 71 76 80 82 82 83 86 82 77 74 76 78 80 77
86 78 85 88 86 89 94 85 79 77 70 64 61 60 64 69 68 72 63 57 63 72 72 58 57 57 57 63 71 77 80 80 81 85 85 86 81 84 78 77 83 81 79 81
85 80 79 90 92 94 93 86 78 72 59 62 74 84 87 86 77 66 62 66 74 75 65 55 58 59 66 68 72 77 76 79 79 83 85 84 81 77 83 85 81 82 85 84
95 81 91 81 81 81 85 91 90 76 68 71 81 93 95 93 92 82 81 80 75 67 63 63 72 72 71 75 78 76 76 81 85 88 84 85 87 86 82 82 85 86 84 81
90 83 74 75 76 76 81 94 93 93 87 74 83 94 97 93 89 84 79 76 70 64 69 81 85 82 82 81 82 82 85 86 89 89 90 83 79 80 85 86 85 87 79 66
84 90 79 69 70 68 75 83 88 94 94 85 90 90 98 94 87 83 78 82 82 76 79 85 86 84 86 86 89 92 93 89 83 78 76 79 86 85 87 90 84 69 54 44
91 93 76 69 69 70 70 73 79 92 95 94 89 89 97 99 98 97 97 98 98 98 97 98 98 98 96 94 89 83 76 75 77 81 85 86 88 94 86 72 54 45 39 38
91 93 89 72 73 76 72 71 72 87 95 94 91 92 93 96 97 94 91 90 91 90 90 90 89 88 84 80 77 79 83 85 85 86 91 95 87 74 53 45 38 38 39 37
85 81 74 75 76 76 72 72 74 79 90 95 95 94 95 96 95 94 92 91 90 89 86 85 87 90 90 88 84 84 86 90 94 92 86 71 52 45 38 36 39 39 37 37
76 75 75 74 74 75 73 74 73 81 83 89 92 91 90 93 93 91 89 90 91 91 89 88 86 85 87 89 89 93 93 89 78 62 53 46 39 35 38 41 39 36 36 32
70 71 72 72 74 75 75 78 76 77 82 84 85 86 87 87 89 90 88 86 84 83 82 83 85 87 89 90 85 77 68 60 53 46 39 35 37 40 42 38 35 32 26 22
63 70 73 75 76 76 76 78 79 79 80 79 80 83 86 86 88 89 88 88 87 86 86 84 79 75 72 69 65 60 54 49 42 37 37 39 43 40 37 34 28 23 19 17
61 67 73 78 79 78 79 81 80 80 84 82 85 86 87 88 88 89 87 84 82 79 75 73 70 67 64 59 54 50 45 40 37 38 42 43 39 35 30 26 22 20 18 16
66 69 72 76 78 79 79 81 81 82 84 83 84 87 88 87 86 85 80 74 71 71 69 67 60 55 53 50 49 44 39 38 41 43 42 36 32 28 24 20 18 17 17 18
69 71 72 75 78 79 80 85 87 88 85 83 83 84 84 81 77 72 69 68 67 63 58 55 56 55 52 47 42 38 39 43 44 39 33 30 26 22 20 18 16 16 17 18
70 76 77 79 80 82 87 85 87 85 86 79 80 80 77 73 68 64 63 60 55 54 56 56 54 48 44 40 38 42 46 43 36 31 29 25 22 19 17 16 16 18 19 20
75 80 81 83 86 85 85 85 86 87 85 78 74 70 66 63 62 58 54 51 53 55 53 49 47 43 38 41 45 46 39 34 31 28 25 21 19 18 17 16 17 18 20 22
80 79 81 87 88 85 84 84 84 79 70 68 68 66 61 60 54 53 51 53 53 51 49 47 42 39 42 47 45 38 34 31 28 24 22 21 19 17 17 18 18 21 22 23
82 81 84 87 89 85 82 85 79 73 69 69 67 63 59 55 55 53 53 54 51 49 46 42 40 44 49 45 39 34 31 28 25 23 22 19 17 17 18 18 21 23 24 25
76 76 78 80 81 80 77 77 72 70 70 71 68 63 58 55 55 54 54 54 52 49 44 41 46 51 46 39 35 32 28 26 25 22 19 17 17 18 19 22 24 25 26 27
74 76 77 75 75 76 75 74 70 69 72 71 67 63 58 57 56 55 57 56 52 45 42 48 52 46 40 35 33 30 29 26 22 19 18 17 18 20 23 24 25 26 27 28
73 74 75 75 74 73 73 70 68 68 72 73 72 68 64 60 59 59 58 54 48 45 50 53 48 41 36 34 32 30 26 22 20 19 18 19 20 22 23 25 26 28 29 29
69 71 71 72 74 73 72 69 70 72 75 80 76 71 65 60 59 57 52 49 48 52 55 49 43 38 35 34 31 27 23 21 20 19 20 20 22 23 25 26 28 31 30 31
61 62 66 72 75 75 73 70 71 75 83 81 74 69 62 56 53 52 51 52 53 56 51 45 40 37 36 33 29 24 22 21 20 20 21 21 22 25 26 29 30 30 33 52
62 65 66 66 68 70 72 73 74 77 85 76 68 62 57 54 54 53 54 55 56 53 48 42 40 39 37 34 28 25 22 21 20 21 21 21 24 26 27 28 29 37 51 57
62 65 68 71 70 68 70 71 72 81 81 70 66 60 57 56 56 57 58 58 55 51 46 44 42 41 38 33 27 24 21 21 21 21 20 22 24 25 25 28 40 50 55 66
68 69 70 71 71 71 73 73 72 85 76 74 66 60 58 58 59 61 62 57 55 51 48 46 45 41 36 30 26 22 21 21 22 20 21 23 24 25 29 41 49 58 70 78

GFSNGP_prec_cthk_042.txt.gz
RH
59 52 60 71 78 83 95 95 95 80 77 66 67 64 69 76 71 65 67 70 78 75 62 60 67 80 77 68 67 67 68 77 79 81 84 85 84 82 85 89 84 86 85 80
65 66 77 81 82 86 87 90 94 94 92 73 67 72 88 92 84 76 70 73 75 66 61 66 76 80 70 69 71 70 74 80 81 81 80 82 90 86 79 77 87 83 87 86
81 79 80 88 86 86 87 91 93 96 89 77 72 87 95 95 95 86 73 69 64 63 63 78 80 70 72 72 70 73 79 82 81 83 89 89 87 86 85 90 88 87 87 86
90 86 94 80 76 78 78 80 92 93 90 87 83 93 97 89 91 82 72 67 67 72 84 81 71 73 69 72 75 79 83 81 85 88 86 83 76 80 88 87 88 87 88 89
92 87 74 77 77 75 75 81 81 89 90 87 90 98 92 85 83 80 78 77 78 82 78 69 66 65 69 73 77 80 81 86 84 82 80 88 93 93 85 84 86 89 89 84
94 92 83 69 72 75 76 85 79 87 91 90 89 96 86 82 81 79 78 77 77 73 69 73 76 79 82 82 77 83 84 82 82 87 98 97 90 83 83 90 92 87 73 57
91 89 74 67 74 76 80 80 76 85 94 92 92 96 97 91 85 84 81 77 75 72 80 86 87 84 84 91 93 95 96 98 98 93 84 82 86 94 95 87 73 56 45 39
81 88 85 75 76 81 79 78 74 81 93 94 92 93 96 97 97 98 98 95 90 92 95 97 98 98 98 98 98 95 89 85 84 86 90 95 93 84 70 53 44 38 36 36
77 79 74 76 78 77 77 75 75 81 89 92 96 95 96 95 91 90 90 91 93 96 94 94 97 94 86 83 84 84 86 89 90 92 88 81 65 48 42 37 36 37 37 35
72 75 75 76 76 77 76 77 75 79 87 90 95 96 95 94 95 93 92 90 90 89 88 88 89 89 89 88 87 87 90 91 84 73 57 47 41 36 35 39 38 35 33 28
67 66 73 76 76 78 76 79 79 77 83 86 89 89 89 91 91 89 88 88 89 88 86 83 81 84 85 87 88 85 75 64 55 48 41 35 35 39 40 36 34 29 24 19
64 63 67 73 77 79 78 79 80 79 79 82 81 84 86 88 90 90 90 89 88 84 81 79 77 76 74 70 66 64 56 48 41 37 36 39 42 38 35 31 26 21 18 16
60 59 62 70 75 80 78 78 80 81 82 82 84 86 87 87 90 89 85 83 81 78 73 72 70 68 66 60 55 50 46 41 37 38 42 40 35 32 28 24 20 18 18 18
63 65 65 69 74 79 79 78 79 81 82 84 84 86 89 89 88 86 81 75 71 71 71 69 66 60 59 55 50 44 39 37 40 41 37 33 30 26 22 19 18 17 17 16
67 67 68 71 74 77 79 79 84 88 86 84 83 84 86 86 83 79 73 70 70 69 67 64 60 56 52 46 42 38 38 41 40 36 32 29 25 21 20 19 18 16 16 15
72 72 72 76 79 80 82 84 89 88 85 85 83 84 83 80 74 71 70 71 69 63 60 57 53 49 45 41 37 40 43 40 35 32 29 24 22 21 19 18 16 16 17 19
76 76 76 79 82 84 87 88 87 88 88 86 82 82 77 72 69 70 67 63 58 57 54 52 48 46 40 38 43 45 40 35 32 28 24 23 22 19 18 17 17 18 20 21
83 81 78 81 85 88 86 86 87 90 86 83 78 72 71 68 65 62 60 56 56 55 51 48 45 41 40 45 45 40 36 32 28 26 25 21 20 19 17 18 19 21 21 22
86 86 86 90 92 90 88 86 86 83 77 74 74 73 69 66 61 59 58 57 56 52 49 47 43 42 46 46 42 37 33 29 28 25 21 20 19 18 19 20 21 22 23 24
88 87 86 90 90 88 87 85 84 77 73 74 73 71 67 63 60 59 57 55 54 53 51 46 44 47 48 43 38 34 30 29 26 22 20 19 18 19 20 21 22 24 25 27
82 84 85 84 84 83 84 82 81 76 74 76 76 71 65 61 59 58 56 55 57 55 49 45 48 50 45 39 36 32 31 27 23 22 21 19 19 20 20 22 23 24 27 28
80 80 80 82 82 80 80 79 77 72 70 74 74 72 69 65 63 61 61 60 55 50 47 49 51 47 41 38 34 32 30 26 24 23 21 20 20 20 21 22 23 25 26 27
74 78 79 79 79 79 79 79 77 71 70 74 76 75 73 66 64 60 58 54 50 48 49 52 49 44 41 37 35 33 29 27 25 23 21 21 20 20 21 22 22 24 29 44
66 66 67 69 73 77 79 80 78 72 70 73 79 79 73 67 63 58 54 51 51 51 53 51 47 44 41 38 36 32 29 27 25 23 22 21 19 20 21 21 25 35 42 48
67 68 69 70 71 72 74 78 79 74 72 75 82 81 73 63 58 53 51 53 53 54 52 50 48 44 42 40 36 32 28 26 24 23 22 19 19 20 20 24 36 41 43 48
65 66 66 68 71 75 76 78 74 71 72 78 82 82 71 62 57 55 54 55 57 55 53 52 49 46 43 40 35 31 27 25 23 23 20 19 20 21 21 33 41 47 56 66
68 68 70 71 72 74 74 75 76 73 75 82 87 80 70 64 60 58 57 59 59 57 57 54 51 48 43 38 34 30 26 24 22 20 19 19 21 22 25 41 51 60 66 70

GFSNGP_prec_cthk_045.txt.gz
RH
63 62 59 58 67 79 86 84 89 71 79 77 81 80 74 80 88 92 80 69 61 63 70 70 72 66 63 67 71 80 77 78 72 77 84 83 81 84 87 93 88 86 86 88
62 57 59 75 79 83 85 84 88 89 86 84 82 81 84 87 94 94 85 73 72 76 79 71 64 64 69 79 85 82 88 83 77 82 83 83 89 87 94 83 84 87 84 92
68 63 81 89 85 83 81 81 86 89 80 82 82 87 89 86 86 84 76 72 71 72 71 70 66 80 86 86 87 88 86 78 78 83 83 83 95 95 86 93 92 90 97 96
75 84 92 82 73 77 78 78 78 81 81 82 86 90 86 80 79 75 73 67 68 71 72 78 90 90 85 86 88 87 81 79 80 86 91 91 81 82 95 95 90 92 91 91
92 93 77 78 76 75 75 74 75 82 82 88 87 90 82 78 78 78 78 78 79 84 89 89 88 84 83 84 84 83 84 83 95 85 80 91 97 96 89 96 97 89 88 90
95 94 87 77 69 73 74 77 74 82 89 89 89 94 90 84 74 74 75 79 81 86 86 77 71 79 82 79 80 81 87 97 95 97 99 98 95 88 90 89 88 95 87 75
94 91 77 69 73 77 79 75 73 78 94 89 91 95 97 92 86 78 75 71 71 73 73 74 76 79 80 88 92 94 97 95 96 98 97 98 97 91 91 94 84 67 54 45
93 88 85 74 77 80 76 74 73 78 90 95 94 96 94 95 94 94 89 85 88 90 96 98 98 96 95 97 94 94 97 97 97 95 92 91 96 94 76 58 47 40 35 33
78 77 73 77 78 75 76 75 75 79 89 93 97 91 93 94 94 95 95 96 98 98 98 98 97 98 98 98 98 98 97 94 92 94 96 83 62 49 40 36 34 33 34 36
78 76 77 76 76 77 76 77 78 79 89 91 95 93 90 90 92 92 94 97 97 97 97 98 98 97 97 97 95 93 89 90 88 69 52 43 38 34 34 34 35 36 32 27
73 68 68 71 76 78 79 78 79 80 87 90 91 91 91 92 90 89 88 87 89 90 90 90 90 88 85 86 84 82 72 57 50 44 38 33 35 38 38 36 33 28 24 20
76 66 64 65 70 76 80 80 80 82 83 85 87 87 88 92 92 91 90 89 87 85 84 82 79 77 74 68 62 58 53 45 40 37 39 41 39 36 33 29 25 21 19 19
70 66 62 63 67 74 78 81 80 81 83 84 85 87 89 90 91 89 86 83 78 74 73 70 70 67 62 58 55 52 46 40 38 40 41 36 34 30 27 23 20 19 19 19
72 67 67 69 68 73 75 80 81 81 83 85 87 89 92 93 90 88 81 70 67 69 70 69 65 62 60 56 50 43 38 39 42 38 35 32 29 25 22 20 19 19 18 18
68 66 68 71 71 73 74 78 81 86 88 89 88 88 90 90 88 82 74 69 70 71 70 65 64 59 52 46 42 39 41 41 37 35 31 28 24 22 21 19 19 18 17 18
76 74 74 75 73 73 78 81 85 89 89 87 87 87 89 87 79 75 74 73 73 69 66 64 57 50 46 43 39 41 40 38 35 32 28 25 23 21 19 18 18 18 18 18
79 78 77 77 75 76 80 84 89 90 91 90 88 87 86 79 74 73 74 72 68 65 61 55 52 47 43 40 42 40 39 37 33 28 26 23 21 19 19 18 18 18 18 19
78 81 82 81 79 82 85 90 91 91 91 89 88 86 81 74 74 72 69 65 61 59 56 52 48 45 43 44 41 40 38 34 29 27 24 22 20 21 20 19 19 18 18 19
82 85 86 85 84 87 90 90 90 91 86 82 79 78 75 72 71 69 66 60 57 56 52 49 48 47 45 44 42 40 37 31 28 26 24 23 23 22 20 19 18 18 19 20
94 91 89 92 96 96 93 89 89 88 82 78 79 78 74 71 67 65 62 59 57 54 52 52 51 47 45 44 43 39 34 30 28 27 26 26 24 21 20 19 18 19 20 20
91 93 89 90 95 94 90 87 87 87 82 79 80 77 72 68 63 62 60 58 55 55 56 52 48 45 45 44 42 38 33 30 29 28 28 26 23 21 20 19 18 19 20 26
89 88 88 88 88 88 87 86 87 87 82 76 78 78 73 71 67 65 64 61 57 55 52 49 46 45 47 45 42 37 33 32 31 30 27 24 22 20 19 18 18 20 28 34
74 82 87 87 86 87 87 86 86 86 82 76 76 78 77 74 70 65 61 59 57 53 50 49 47 48 48 46 42 37 35 34 32 29 26 24 20 18 19 18 19 27 33 36
70 69 69 70 71 74 79 82 85 86 81 76 75 75 78 78 74 69 62 57 53 52 51 51 49 50 49 47 43 39 37 34 32 29 26 22 18 19 19 19 21 31 37 38
70 71 72 71 71 73 74 76 77 80 82 79 77 75 83 84 76 68 61 54 52 52 53 51 51 51 51 49 44 41 38 34 32 28 25 20 19 19 20 20 24 36 41 47
67 66 67 69 69 71 73 75 76 77 77 73 73 74 85 85 79 69 61 54 54 56 54 54 56 56 54 51 46 42 37 34 30 27 23 20 19 19 21 21 30 46 55 61
68 68 69 70 71 72 72 73 72 72 74 75 72 75 88 89 78 68 64 58 58 58 57 61 61 59 56 50 46 42 37 33 29 24 21 19 20 20 22 28 44 59 64 67

GFSNGP_prec_cthk_048.txt.gz
RH
63 60 60 60 57 63 75 76 83 69 77 71 75 75 77 80 78 75 71 69 70 66 67 71 73 78 73 67 68 74 77 80 73 75 69 71 64 75 82 83 82 79 80 88
65 55 56 59 62 71 78 79 80 76 77 76 74 80 85 79 72 71 69 64 63 61 70 80 87 84 74 69 76 88 90 90 82 94 82 75 80 84 84 79 78 85 90 94
63 59 63 75 77 79 82 81 80 84 76 78 80 83 77 72 71 72 73 65 63 61 59 63 64 65 68 78 91 96 98 97 94 82 81 83 85 83 79 83 90 96 93 88
68 65 79 77 75 77 81 77 78 79 82 82 86 86 79 79 72 73 73 73 70 65 65 65 67 75 86 96 94 99 97 98 93 84 85 82 80 82 95 98 97 94 97 98
72 79 77 80 81 78 80 77 75 78 83 85 84 88 87 84 74 71 70 72 78 80 83 84 87 88 87 91 92 93 94 91 87 88 93 88 93 99 98 97 96 98 96 91
83 91 87 79 73 77 78 81 76 77 80 87 86 89 90 89 82 75 67 66 69 78 76 78 82 83 85 91 87 89 88 86 90 98 98 98 93 92 96 97 95 92 95 83
92 93 81 74 75 81 82 78 76 77 83 87 89 91 88 87 86 83 76 71 75 80 74 70 73 82 89 85 85 93 98 98 97 97 95 96 98 98 97 97 92 77 59 52
93 92 87 73 78 84 79 77 77 77 84 87 90 89 90 88 89 88 88 84 88 92 90 91 82 84 93 96 96 97 97 97 97 98 98 97 97 95 81 63 54 47 38 33
86 79 73 77 82 80 79 76 79 79 86 88 91 89 88 90 91 91 92 92 91 92 92 95 97 96 96 96 98 98 98 98 96 96 96 83 64 54 44 36 34 33 34 35
87 77 82 78 79 80 79 77 79 80 86 91 93 90 89 92 93 92 93 94 94 94 95 96 96 96 97 96 96 96 94 90 84 66 54 44 37 33 34 37 37 33 28 24
85 78 73 71 76 77 77 79 80 83 87 92 94 95 92 92 94 94 93 93 92 90 90 91 93 92 91 85 78 68 59 53 47 40 35 34 37 39 35 30 28 25 23 21
85 77 73 67 65 69 73 76 79 81 85 90 92 92 93 93 91 92 92 91 89 86 82 79 76 68 63 58 55 53 47 42 38 36 36 39 35 31 29 26 23 22 21 22
77 71 68 67 66 66 72 75 79 79 81 84 88 88 92 94 91 90 87 82 78 74 71 69 64 58 52 51 48 47 43 38 36 39 38 33 31 28 25 23 21 21 20 19
78 76 72 68 68 69 69 74 76 80 81 83 86 89 92 96 95 92 88 73 70 72 71 66 58 58 54 51 47 42 38 38 40 35 33 31 28 25 23 21 20 19 18 18
76 78 75 69 68 71 72 72 76 81 84 86 89 90 91 95 93 89 80 73 71 73 71 63 61 59 52 46 42 39 40 39 36 34 31 28 25 23 22 21 20 19 19 18
80 79 77 75 72 73 73 75 80 85 87 89 89 89 91 92 90 80 72 73 73 72 67 65 61 55 47 44 42 42 41 37 36 33 30 26 24 23 22 22 21 21 19 17
80 81 81 79 76 75 76 76 81 88 90 91 91 91 91 90 85 76 74 75 72 68 66 63 58 50 45 44 44 42 41 38 36 33 28 26 25 24 24 23 22 20 18 16
79 78 79 81 81 80 79 79 84 89 94 94 93 92 90 87 81 77 75 75 72 68 63 59 53 48 47 48 43 43 41 39 36 31 28 27 26 27 26 23 21 18 16 15
85 80 80 84 84 84 84 86 88 90 94 93 90 86 85 82 79 78 76 74 70 64 59 54 50 50 51 47 44 43 42 39 35 30 29 28 29 28 24 22 19 16 15 15
92 90 90 92 92 87 90 92 89 92 91 87 85 84 81 78 77 76 73 69 64 61 56 52 53 55 50 44 42 43 43 40 34 31 30 31 30 27 24 21 18 16 15 19
96 96 94 96 97 98 98 97 96 93 88 84 83 84 83 78 74 70 68 65 61 59 55 57 56 53 45 42 43 45 44 39 35 33 33 33 30 26 23 20 18 15 16 24
91 92 93 92 91 92 94 94 90 90 92 87 83 85 82 76 72 69 68 66 63 60 58 57 55 49 44 44 47 46 44 40 37 36 35 33 29 25 22 20 18 16 19 27
74 77 83 86 88 90 92 94 92 90 90 89 82 81 82 77 75 71 67 66 63 60 57 54 52 48 46 46 48 48 45 42 40 39 36 32 28 24 20 19 18 17 22 30
71 73 72 72 76 80 82 83 85 88 89 89 84 81 79 76 78 78 73 69 64 57 53 53 51 49 48 48 50 49 46 45 43 41 37 31 28 22 20 19 18 18 24 35
65 66 69 71 74 74 75 77 79 81 82 82 81 81 80 78 84 79 77 70 65 58 53 53 51 51 51 53 54 50 47 46 44 41 36 31 24 20 20 19 19 20 29 43
65 65 67 67 67 68 72 73 74 78 81 83 80 77 76 75 81 85 81 72 64 59 57 57 55 55 58 58 55 50 48 47 43 40 34 28 21 20 19 20 22 28 42 56
56 60 63 66 68 70 70 72 73 76 76 78 78 74 72 72 80 89 84 73 66 62 60 58 57 61 64 59 55 52 49 47 44 37 31 23 21 19 20 23 32 42 48 62

GFSNGP_prec_cthk_051.txt.gz
RH
63 62 61 61 58 58 57 64 75 73 72 67 68 68 70 74 69 64 61 60 58 60 58 53 59 72 70 69 71 78 73 68 73 75 76 76 76 72 75 84 86 86 82 85
68 59 60 63 58 60 66 73 79 76 75 67 72 75 80 74 69 64 63 66 60 62 62 57 60 63 77 78 75 73 73 77 84 84 81 78 83 76 71 72 73 75 87 84
67 62 62 60 60 65 71 76 74 79 71 76 78 82 84 78 73 65 65 63 63 64 63 61 60 62 68 75 80 79 83 84 87 81 80 82 81 76 71 67 78 93 91 88
70 62 68 56 71 75 77 76 76 73 72 80 83 83 85 82 72 65 65 65 68 70 72 72 71 71 79 87 95 96 96 96 98 88 97 95 89 83 79 87 96 98 90 92
71 69 61 70 82 82 82 79 76 77 78 82 85 85 86 82 77 68 64 65 68 69 73 78 80 83 84 86 88 93 98 98 97 95 91 84 95 92 98 87 91 96 97 98
75 73 78 77 79 79 80 84 79 79 79 85 87 86 84 81 80 76 69 70 73 74 71 73 79 85 86 88 87 90 89 89 88 86 85 95 97 98 96 96 98 98 97 89
73 84 80 75 80 81 85 82 81 78 80 85 86 84 83 82 82 81 80 78 80 82 83 76 75 77 86 86 87 92 92 93 91 94 98 97 97 98 98 98 94 81 68 60
82 95 90 73 81 86 84 81 80 78 82 84 84 85 84 80 83 82 81 81 82 84 85 83 83 80 86 91 94 93 97 97 98 98 98 98 98 94 80 65 57 52 46 39
85 84 75 79 78 83 82 80 78 79 81 87 87 86 86 84 82 84 84 84 86 87 88 88 90 92 92 92 94 95 97 97 97 96 92 76 61 53 45 38 36 34 34 32
88 86 84 83 81 79 80 81 79 79 82 88 90 89 89 88 86 85 85 85 84 85 87 88 89 91 91 92 94 96 94 87 68 54 44 37 34 35 38 38 34 29 25 22
88 85 82 80 75 77 78 79 79 80 82 88 91 91 91 92 90 88 88 87 85 85 84 84 84 83 80 77 68 59 52 44 40 37 36 37 39 37 31 28 25 23 22 20
86 84 78 75 71 68 70 74 75 80 82 86 90 91 92 93 93 91 87 83 80 78 75 72 70 65 59 54 51 49 44 39 37 36 38 37 31 28 27 25 23 21 19 17
76 80 75 72 69 67 65 71 74 76 79 83 88 89 90 93 93 95 90 86 75 72 69 64 57 54 53 50 47 44 40 37 37 37 34 30 29 27 25 23 22 20 19 19
75 81 78 72 69 69 67 69 72 75 77 82 85 88 90 93 95 93 90 82 72 72 69 62 56 55 52 48 45 42 38 36 38 35 32 31 28 26 24 23 21 20 20 20
73 79 79 77 75 72 69 70 71 74 80 83 86 89 92 92 96 93 90 75 73 73 72 63 58 56 52 48 44 40 39 41 38 35 33 30 27 25 24 23 22 22 22 20
72 75 81 80 78 74 73 72 74 74 81 87 87 89 92 94 96 93 85 74 76 76 70 64 60 57 53 47 42 42 42 40 38 36 33 29 26 26 25 25 24 23 21 20
72 70 77 84 81 79 77 75 75 76 82 86 90 89 91 94 94 88 80 76 77 76 71 66 61 56 50 44 45 46 42 40 38 36 32 29 28 27 28 27 25 24 22 19
75 74 78 81 82 81 80 77 75 77 81 86 90 92 93 93 92 87 81 80 78 74 69 66 59 53 47 47 48 44 42 39 38 37 33 31 29 30 30 29 26 25 22 19
84 81 80 79 81 83 82 81 82 84 86 89 94 94 93 90 89 86 82 79 77 73 67 62 55 50 49 51 48 43 39 39 40 38 35 33 32 33 33 29 27 26 22 18
92 89 88 89 87 88 88 87 87 91 91 92 94 91 89 87 84 80 79 78 76 71 63 59 53 51 54 52 45 40 40 42 41 39 38 37 36 37 34 29 28 26 21 17
96 96 96 97 97 97 93 93 96 93 91 91 89 87 86 84 81 79 75 72 68 66 63 58 54 55 54 49 43 41 41 43 42 42 42 41 40 39 35 30 29 25 20 17
92 93 95 96 95 96 96 97 97 97 94 89 85 84 88 87 80 75 73 72 68 65 62 57 55 55 52 47 44 42 43 44 43 44 44 44 42 40 35 32 28 23 20 17
78 78 82 87 88 91 94 97 96 94 91 91 96 86 86 87 82 76 70 69 68 66 62 57 54 54 51 48 47 45 45 46 46 47 46 46 43 39 34 31 26 23 20 18
70 73 76 76 76 78 81 84 85 87 92 93 94 94 88 86 85 79 78 77 72 69 64 59 56 55 52 50 49 49 51 51 50 49 49 47 43 37 34 28 24 22 20 20
62 64 66 68 70 73 74 75 79 82 83 85 86 90 88 85 87 81 82 82 77 73 68 63 59 58 56 54 53 56 58 54 52 51 49 47 41 37 30 26 23 22 25 30
45 48 54 59 63 65 66 68 69 72 77 82 84 86 87 83 81 81 86 87 84 79 71 65 61 61 58 56 57 61 58 55 55 53 49 45 39 34 27 24 24 28 36 41
13 14 19 30 45 55 61 64 68 69 70 73 78 81 86 84 80 78 81 90 87 81 73 67 66 64 60 60 65 63 58 56 56 54 49 42 37 29 25 24 30 39 45 47

GFSNGP_prec_cthk_057.txt.gz
RH
58 59 62 61 60 62 60 56 56 44 53 52 55 59 62 67 69 65 60 56 52 49 46 47 45 43 42 40 41 44 50 51 57 64 73 76 83 85 89 90 91 85 74 76
60 60 63 65 61 61 58 55 52 55 62 59 62 65 70 76 72 64 61 56 54 50 47 50 49 47 46 48 52 57 61 62 66 69 78 88 91 97 97 96 98 96 94 87
67 64 65 66 58 55 55 55 57 69 65 64 68 70 74 74 73 69 64 58 54 55 54 56 57 60 60 60 60 63 69 76 75 80 82 88 92 98 98 97 96 94 94 94
72 66 69 48 53 57 59 60 66 70 70 67 69 73 75 76 72 70 69 60 56 59 62 63 64 67 67 66 67 71 74 79 84 86 92 94 97 96 98 98 97 92 90 97
71 63 55 56 61 66 69 74 75 76 73 70 73 76 76 75 71 70 70 69 66 67 67 66 64 63 65 69 72 77 80 81 85 87 92 95 98 98 98 97 98 98 94 97
74 68 66 53 59 72 75 86 81 79 75 75 77 77 73 71 70 72 72 72 72 71 72 71 67 64 69 73 76 79 82 85 85 90 91 89 96 98 97 96 98 98 98 97
74 71 57 55 60 73 93 87 82 78 77 77 78 76 74 72 72 72 73 72 72 75 75 76 69 72 76 79 81 84 86 89 92 95 97 97 98 98 97 97 90 73 57 52
72 69 65 55 69 88 89 84 81 80 77 77 80 81 78 77 76 74 73 72 74 76 78 77 78 79 81 82 83 84 85 87 88 91 94 92 80 62 49 44 40 36 33 29
66 60 58 64 80 85 87 85 82 81 78 79 82 85 85 83 79 76 75 75 76 76 76 79 81 81 80 81 83 82 80 79 69 52 41 37 35 36 35 33 30 26 24 23
72 69 71 80 88 90 88 83 83 81 79 80 83 87 88 87 83 81 79 76 76 77 80 80 79 78 76 74 71 63 52 43 38 36 35 36 36 32 29 27 25 24 23 22
72 71 77 83 92 89 86 81 81 80 79 80 82 85 87 89 88 84 83 81 75 74 75 74 74 72 66 57 53 46 40 37 36 36 36 33 30 29 27 25 24 24 24 23
78 75 77 84 90 90 85 81 79 78 78 80 83 85 89 90 91 90 85 86 80 74 70 68 66 61 56 52 46 41 38 37 37 37 35 32 31 29 27 26 26 25 24 24
73 73 72 76 84 84 83 80 75 73 74 77 80 84 86 87 90 93 92 89 88 79 69 65 61 58 54 50 45 41 39 39 39 37 35 33 31 30 29 28 28 28 27 26
75 76 73 71 80 85 83 78 74 72 71 73 75 82 85 86 91 93 94 92 91 86 73 67 59 57 55 51 47 43 40 41 40 38 36 35 34 32 30 30 31 30 29 27
79 79 75 73 71 82 84 78 76 75 74 72 74 79 86 89 90 94 96 95 94 90 75 71 63 60 57 52 48 43 42 43 41 40 39 37 34 32 32 32 32 31 31 30
78 77 75 74 71 72 82 82 78 76 78 73 75 77 83 89 92 93 96 95 95 90 77 76 71 64 62 56 50 45 45 45 42 41 39 36 35 35 35 35 35 34 34 34
80 77 75 71 73 69 73 82 83 83 83 79 78 80 82 88 92 95 97 96 94 88 82 81 78 71 66 60 51 47 47 47 44 42 38 36 37 38 38 38 38 38 37 37
77 78 77 76 75 72 71 77 85 88 85 81 78 81 82 85 89 95 98 95 93 90 88 88 83 76 70 63 54 49 49 49 46 42 37 36 39 40 41 41 41 40 39 38
94 92 89 85 81 78 72 74 82 89 88 85 81 81 84 85 88 95 99 98 97 94 92 89 84 79 75 65 56 51 53 51 46 42 38 37 39 41 44 45 45 42 40 38
97 97 95 93 90 87 82 79 82 87 88 87 89 92 91 91 91 95 99 98 96 95 92 88 84 81 74 65 57 54 55 51 47 44 42 40 41 45 48 48 46 43 39 38
98 95 96 96 94 92 92 89 87 89 91 93 95 96 95 96 97 98 97 95 93 90 89 85 83 80 76 68 58 57 56 52 48 46 44 42 45 50 50 48 47 43 40 37
84 86 88 92 95 95 94 94 94 94 96 96 95 96 95 96 94 93 92 91 89 88 88 86 84 81 76 68 58 57 56 53 51 49 47 46 50 50 51 50 48 42 39 35
75 77 78 79 80 83 86 88 90 96 98 98 97 96 95 93 91 89 91 91 91 87 84 83 82 78 75 67 59 59 58 55 53 51 49 50 53 52 52 51 47 41 37 35
60 60 65 68 71 73 75 77 79 81 83 87 91 96 95 97 97 95 95 91 88 87 85 81 77 76 75 70 65 64 63 60 57 54 52 55 55 52 54 52 46 41 36 36
50 47 45 45 47 52 56 60 65 69 71 74 75 77 81 88 93 91 93 96 93 91 87 84 81 77 75 73 70 68 66 62 60 59 58 60 57 56 57 53 46 40 37 39
29 24 20 16 16 18 21 24 28 33 41 50 59 64 68 71 74 81 86 90 93 90 89 88 90 87 83 80 76 72 69 66 65 68 64 64 59 60 59 52 45 39 40 46
9 9 10 11 11 11 11 12 15 18 20 22 28 38 46 51 57 63 71 77 80 86 86 86 93 95 89 82 78 76 71 71 70 76 70 66 61 63 60 50 44 40 46 50

GFSNGP_prec_cthk_060.txt.gz
RH
60 60 59 59 57 55 57 54 59 43 41 38 41 48 54 59 63 65 63 56 53 51 47 47 46 44 43 42 41 41 43 45 47 48 49 53 60 66 72 81 82 80 81 78
63 56 58 61 55 56 55 53 51 47 45 47 54 58 60 68 70 68 63 58 55 53 49 50 50 48 48 49 50 49 51 55 58 56 58 61 64 73 83 90 97 98 98 98
57 57 59 61 54 52 52 52 50 54 54 57 60 64 70 74 72 67 65 65 56 52 53 55 55 52 55 54 55 55 57 60 61 65 66 71 75 77 85 91 98 98 98 98
61 61 65 47 51 50 49 47 50 55 62 65 68 71 74 74 70 67 65 65 62 57 56 58 57 54 55 56 59 62 64 65 66 67 70 73 77 81 86 88 94 98 97 93
66 60 50 50 54 57 60 63 65 70 72 73 72 75 73 70 69 67 67 67 66 65 64 62 59 57 56 60 63 67 68 70 68 70 70 74 79 83 89 92 97 97 98 97
70 69 53 52 59 62 64 74 75 78 78 75 74 74 71 69 67 67 66 66 68 68 68 65 64 59 63 67 68 72 74 74 77 77 79 80 84 87 90 91 95 97 97 97
68 68 51 50 54 64 79 75 80 83 79 73 74 74 73 71 69 68 67 68 68 70 71 70 65 68 71 72 75 76 77 76 77 78 80 83 85 87 88 78 60 51 46 44
69 70 62 49 61 71 74 76 84 83 79 77 76 77 79 76 74 71 69 68 70 71 72 71 73 74 76 76 77 79 76 72 72 72 68 55 41 35 35 34 32 30 27 26
65 58 54 57 66 68 75 84 87 85 80 78 79 81 82 82 77 76 72 69 70 73 73 76 77 76 76 75 73 71 69 61 46 37 34 34 34 32 29 26 24 23 23 22
68 64 62 63 68 77 83 89 87 85 82 80 80 81 84 83 83 78 76 73 70 70 72 73 73 72 70 68 65 53 46 37 34 33 34 33 30 28 28 25 23 23 23 22
72 69 71 70 74 84 88 89 86 83 82 80 80 82 84 86 86 84 80 79 75 73 70 70 70 69 64 55 48 42 36 34 34 34 33 32 30 29 27 25 24 24 25 25
70 69 67 73 80 88 92 90 85 81 81 80 80 82 84 86 89 88 85 82 82 78 74 69 67 59 52 50 44 39 36 36 37 36 34 33 32 29 27 26 26 27 27 27
72 73 71 72 77 80 86 87 84 82 80 78 77 79 81 85 86 88 89 89 87 86 81 67 60 56 54 49 44 40 38 39 40 37 36 35 33 31 29 28 28 29 30 30
73 74 74 72 70 71 81 85 84 83 76 72 70 72 75 82 83 88 90 91 91 89 87 74 62 56 54 50 46 43 41 42 41 38 37 36 35 33 31 31 32 33 33 33
77 77 78 77 74 72 70 82 85 82 76 73 71 71 75 78 82 88 91 94 94 93 89 81 68 58 55 53 49 46 43 44 42 39 38 37 36 35 34 35 36 35 35 35
78 77 76 76 74 71 69 70 79 82 78 76 74 75 75 78 82 87 92 93 93 95 91 87 76 70 62 57 54 50 46 46 44 41 41 40 38 35 36 38 39 38 38 37
81 79 76 75 74 71 71 69 70 78 81 80 78 80 79 81 84 85 90 93 95 96 95 89 82 81 75 68 61 54 50 49 46 44 44 42 39 36 37 39 41 42 42 41
83 77 74 74 77 76 73 72 69 70 80 86 82 81 82 83 83 85 86 91 95 97 96 92 89 87 85 78 69 60 54 51 48 47 48 45 41 37 38 40 43 46 45 43
87 92 92 89 86 84 80 75 73 71 76 89 90 87 84 84 82 83 85 90 94 96 96 93 90 89 86 82 77 66 56 53 50 51 50 47 43 41 41 43 47 48 47 45
95 95 96 96 95 92 88 84 79 76 77 86 92 89 87 89 90 90 90 94 96 97 97 98 95 93 90 86 83 70 59 56 54 54 51 48 45 43 44 47 50 50 49 46
97 97 97 98 98 97 95 94 88 85 84 85 89 91 92 93 94 94 93 96 98 98 99 98 98 96 90 88 82 72 63 58 56 55 52 51 49 47 46 49 51 51 50 47
82 83 84 87 90 92 94 95 96 96 95 95 95 95 97 98 98 98 98 98 97 98 98 97 95 89 87 86 84 79 67 59 57 55 54 52 50 48 48 51 53 53 52 48
70 72 74 75 77 81 83 83 85 87 93 96 97 98 98 97 96 96 96 93 92 92 90 89 89 88 87 86 85 78 69 61 60 60 60 59 56 51 52 54 55 56 55 50
60 58 58 60 63 67 69 72 74 76 79 81 83 89 95 96 96 96 95 91 90 91 93 92 89 87 87 87 83 79 71 66 65 64 63 62 62 57 56 59 58 60 57 52
55 49 46 42 40 39 39 43 47 52 59 66 72 74 77 79 83 88 92 94 95 95 91 91 90 91 90 88 84 79 73 70 70 68 70 66 67 71 64 64 62 63 58 53
39 31 25 20 15 10 9 10 15 20 25 29 34 40 49 56 61 64 67 70 75 81 81 80 83 86 88 88 89 86 80 79 80 76 73 71 79 78 69 66 68 64 57 52
12 9 9 10 11 12 12 11 11 11 13 16 18 22 24 28 34 41 47 52 56 62 68 68 68 71 77 87 90 89 87 84 83 80 75 81 84 77 70 72 69 61 56 55

GFSNGP_prec_cthk_063.txt.gz
RH
56 56 59 62 61 61 67 58 65 46 41 40 40 41 41 47 55 56 57 57 56 55 49 47 45 44 42 42 42 40 39 40 42 43 44 45 44 46 48 51 58 66 72 76
67 58 56 61 56 54 54 56 49 44 44 40 39 40 49 56 62 65 64 62 60 54 53 51 48 48 50 52 49 46 46 45 46 47 50 51 54 55 56 61 65 70 76 81
62 58 55 58 49 49 50 49 48 51 42 42 44 52 59 67 67 68 65 63 60 56 54 52 52 54 54 53 52 52 51 53 54 54 54 58 58 61 65 68 71 74 79 83
59 59 66 55 49 48 47 46 46 45 46 49 56 61 67 69 69 67 64 63 64 62 60 56 55 56 56 53 52 55 57 58 57 58 57 59 62 64 66 69 73 78 83 85
61 55 48 44 49 52 53 52 44 47 56 63 65 70 74 71 68 65 65 66 65 64 64 63 62 60 57 56 56 60 61 62 61 62 63 64 66 69 71 73 75 79 83 85
66 67 58 58 54 56 58 64 62 65 69 73 76 80 78 71 68 66 65 64 64 65 67 66 62 61 60 62 64 65 68 67 66 66 67 69 69 69 70 71 72 75 77 73
66 66 54 46 57 60 71 71 71 73 79 79 79 78 76 74 72 70 66 65 65 66 68 68 66 65 67 69 69 71 70 68 68 66 65 65 62 55 40 32 30 29 27 26
66 69 64 47 57 60 71 70 74 77 82 82 78 78 79 78 76 72 69 66 67 69 70 70 71 72 73 72 72 72 72 71 65 58 47 34 30 30 29 27 25 23 22 21
62 61 54 53 60 59 63 68 73 78 85 84 82 80 81 81 79 75 74 71 69 69 68 72 74 75 74 74 73 70 66 55 38 31 30 30 30 28 26 25 24 22 22 22
65 61 60 59 61 62 66 71 77 84 88 86 83 81 80 82 82 78 75 75 72 68 67 69 69 70 69 67 64 56 42 33 31 31 32 30 28 26 26 25 24 23 23 24
66 65 66 67 66 68 71 74 79 83 86 85 84 82 82 83 83 82 79 76 78 72 71 67 67 67 67 63 51 41 34 32 33 34 32 30 29 28 27 26 25 25 25 25
68 67 67 68 70 73 76 80 83 87 85 84 81 82 82 83 85 85 84 80 78 80 76 73 69 68 65 50 43 38 35 35 36 35 33 32 32 31 30 29 27 27 27 27
62 69 69 69 71 70 75 80 85 87 85 84 81 82 83 83 84 86 83 82 81 81 82 77 71 64 55 48 45 41 39 38 38 37 36 35 34 33 33 31 31 30 30 30
61 64 70 70 69 69 69 74 82 86 86 84 82 79 76 76 78 81 82 81 82 85 86 84 79 64 55 49 46 44 41 40 41 39 38 37 37 36 35 35 34 34 34 35
66 66 69 72 72 72 72 71 73 83 86 86 82 74 71 73 75 77 77 82 87 89 91 87 85 74 60 53 47 44 43 44 45 42 41 40 39 38 37 37 35 36 38 38
75 72 71 73 74 74 73 71 68 68 78 84 83 77 75 75 75 77 78 83 88 92 92 91 88 84 71 60 54 50 47 47 49 47 45 43 41 41 39 38 36 37 39 40
80 80 77 75 73 73 72 73 71 69 68 76 82 82 78 77 80 80 81 81 86 91 92 93 90 88 83 77 67 61 56 52 53 52 48 46 44 44 41 40 39 39 40 44
84 83 82 80 76 73 71 73 72 71 70 70 76 83 82 79 81 83 84 85 85 88 91 94 94 90 87 87 84 74 66 58 56 55 52 48 48 46 43 41 41 42 44 47
87 84 84 90 90 86 84 81 78 74 72 71 69 77 88 86 84 84 87 89 87 86 91 95 97 96 92 90 88 82 75 67 62 58 54 51 50 48 45 43 43 44 46 48
95 94 94 95 96 96 94 91 85 81 77 77 76 77 84 92 91 90 89 90 92 92 95 97 99 99 96 92 90 88 85 79 67 62 55 53 53 51 47 45 44 44 46 48
97 97 96 97 98 98 98 96 94 90 85 83 83 82 84 91 92 92 94 95 96 96 98 98 99 99 98 96 92 90 90 85 74 64 59 55 54 52 51 48 47 47 49 50
83 82 82 84 85 87 89 92 93 96 95 95 94 91 90 93 95 97 97 97 97 99 98 98 98 98 98 98 98 92 91 87 77 71 64 60 57 56 56 55 53 51 51 54
67 68 69 70 72 72 73 76 80 83 85 87 89 92 96 97 98 97 98 98 98 98 98 98 98 98 98 98 96 90 89 88 84 75 68 63 61 61 63 62 62 57 54 60
63 60 56 53 55 58 61 63 64 65 68 74 78 81 85 91 96 97 98 98 98 96 95 95 97 97 96 95 92 90 90 91 88 81 74 67 65 66 70 70 70 69 64 65
64 59 52 46 43 40 35 32 33 35 41 48 53 58 68 74 77 80 85 89 91 91 92 92 95 96 95 93 93 94 95 95 89 81 76 73 75 75 79 76 77 76 70 70
56 47 35 29 24 18 13 10 9 9 10 15 23 29 35 39 46 53 60 64 68 70 71 73 72 72 75 77 79 82 83 80 78 76 74 75 81 83 82 83 83 78 72 77
20 10 10 10 9 10 11 12 13 13 12 11 11 13 16 19 21 24 28 32 38 44 48 53 58 60 62 62 67 70 69 71 73 71 69 75 78 76 78 82 86 84 82 76

GFSNGP_prec_cthk_066.txt.gz
RH
57 57 57 61 62 64 70 66 69 60 49 45 43 40 40 43 45 51 54 54 52 52 51 52 48 43 43 42 43 41 40 40 40 38 39 42 43 43 43 43 44 47 53 56
66 56 56 57 56 59 60 61 61 59 57 48 45 42 43 45 52 58 57 56 56 57 57 52 51 49 48 47 47 47 47 47 46 45 46 48 49 49 48 49 51 55 57 59
67 60 59 61 52 53 55 53 53 57 44 45 43 43 44 53 63 63 62 61 59 60 59 55 55 52 49 49 49 49 49 51 52 51 51 52 51 52 53 55 56 60 63 63
71 64 73 53 47 49 49 48 48 49 48 46 45 44 52 64 65 64 62 63 64 62 61 60 58 55 52 52 52 52 54 56 56 54 55 55 54 55 57 59 60 61 62 65
71 64 51 53 50 51 55 54 47 48 48 47 48 58 66 68 67 66 63 64 62 59 61 62 63 63 59 57 57 56 60 60 60 59 60 59 58 59 59 58 58 58 60 64
70 65 62 58 59 55 57 63 52 44 46 55 67 75 74 71 69 68 64 61 59 61 62 65 65 63 62 60 60 64 65 66 65 63 61 61 60 58 51 44 37 32 27 25
69 67 54 51 53 60 71 70 64 63 67 71 75 77 83 77 75 71 68 64 62 63 63 64 63 63 64 67 68 70 70 68 67 65 63 56 39 30 27 25 23 21 21 20
67 71 63 49 51 59 66 64 69 72 74 75 78 82 82 80 78 75 72 69 65 65 66 65 64 68 71 72 73 73 72 71 70 61 37 28 28 27 24 23 22 21 21 20
62 63 54 52 55 57 64 67 68 70 74 77 82 84 81 80 80 76 72 73 69 67 67 65 67 69 71 73 74 75 74 70 44 31 28 29 28 26 24 23 23 23 23 22
65 60 58 55 58 60 61 61 63 66 73 78 85 87 82 79 82 81 77 76 73 70 68 66 66 66 67 68 67 65 52 36 30 29 31 30 28 27 26 25 25 26 25 24
63 63 64 63 60 59 66 64 66 70 74 78 84 86 84 81 81 83 82 78 76 74 71 72 67 65 65 65 62 51 37 32 30 33 33 31 30 29 28 27 28 29 28 27
70 64 64 67 68 67 69 71 72 73 75 77 83 86 86 83 82 85 87 85 82 77 76 75 73 71 68 65 56 42 36 34 35 36 35 34 33 32 31 31 31 32 32 31
59 60 64 64 65 67 69 67 72 73 78 80 82 85 86 84 84 84 88 86 83 80 77 78 77 75 72 63 50 41 40 38 39 39 37 36 36 35 34 34 35 34 34 33
55 54 55 55 61 66 67 69 68 71 77 84 86 87 86 84 84 84 85 86 83 81 78 79 82 81 74 62 51 44 42 41 42 42 40 40 39 38 37 37 38 37 37 36
58 56 56 58 60 64 68 69 68 68 74 83 87 87 87 85 79 74 75 79 78 77 80 81 85 85 81 70 57 50 44 41 42 44 44 44 43 42 40 40 41 41 39 39
63 62 63 65 64 64 68 70 71 70 69 70 81 84 85 85 77 76 76 78 79 78 83 87 89 87 85 81 68 58 51 46 45 48 49 48 48 46 44 43 43 42 41 41
71 70 72 72 72 70 71 71 71 71 70 69 69 73 80 85 81 81 82 83 83 82 82 86 89 89 86 86 83 72 63 60 56 53 53 52 51 50 49 46 45 44 42 42
84 83 82 79 79 77 74 72 71 71 72 71 70 69 72 81 85 82 82 84 87 87 89 88 88 89 89 87 88 85 83 73 65 60 58 56 55 52 51 49 49 47 45 44
91 90 87 85 83 83 85 82 79 79 76 73 72 72 72 73 82 88 85 86 89 90 91 92 92 92 92 93 91 91 89 86 76 68 64 63 59 56 53 52 52 50 47 47
93 93 92 91 92 92 93 92 90 87 83 81 78 78 76 75 74 83 90 93 93 93 93 93 94 96 98 98 98 93 92 91 87 81 74 68 64 62 57 54 53 51 51 50
98 98 98 97 97 98 98 98 98 96 94 90 86 83 82 80 81 83 91 96 96 96 98 98 98 99 99 98 98 98 95 94 89 89 85 77 72 64 61 58 55 54 54 56
86 82 80 79 79 80 81 84 87 90 91 94 94 93 92 91 91 91 91 94 95 96 98 98 98 98 98 98 98 98 98 97 92 92 92 81 72 68 64 62 61 60 62 69
68 69 69 68 68 69 70 70 70 71 73 77 82 86 88 91 96 96 96 97 98 98 97 98 98 98 98 97 97 98 98 98 96 96 91 87 80 75 73 71 69 69 76 76
67 66 63 59 54 49 47 49 54 56 57 57 58 63 70 78 85 91 95 98 98 98 98 98 98 97 97 98 98 98 98 98 97 95 93 92 86 80 80 72 72 80 84 80
71 67 62 56 50 44 37 34 31 26 24 25 30 38 46 53 57 68 77 81 85 90 93 93 92 92 93 95 97 97 95 95 92 83 81 82 75 68 66 65 63 75 77 74
60 55 45 36 27 17 15 12 10 11 11 10 9 10 14 22 28 33 38 44 50 57 63 67 70 69 67 68 71 71 73 75 75 74 74 75 69 63 61 59 64 73 73 72
43 33 23 16 11 10 11 11 12 13 14 14 14 14 12 13 15 17 19 21 22 25 29 34 36 42 47 51 54 56 60 62 62 63 66 67 65 64 63 66 67 70 69 71

GFSNGP_prec_cthk_069.txt.gz
RH
60 63 64 66 71 75 75 71 74 65 58 55 50 45 43 41 44 44 45 50 52 51 51 52 51 49 46 42 40 40 40 41 41 42 42 40 41 43 44 42 41 43 44 46
65 58 58 60 58 62 66 66 66 65 64 54 54 52 47 43 47 46 52 55 56 55 54 54 54 52 47 43 46 46 46 46 47 48 49 48 47 47 48 47 47 48 50 51
68 62 63 63 53 52 53 56 53 60 55 53 53 52 49 52 48 52 60 58 57 57 58 57 56 54 52 52 50 48 48 48 50 53 52 52 51 50 52 52 53 54 54 53
71 67 71 45 49 49 49 50 52 50 49 50 50 48 49 46 50 61 60 59 59 59 59 62 62 62 57 55 51 51 51 53 57 55 54 54 55 55 56 56 56 55 53 52
70 69 51 52 51 51 54 53 48 47 48 50 50 48 47 49 63 64 63 61 60 61 62 62 63 63 63 62 56 55 57 59 59 58 59 59 59 59 59 58 52 48 38 26
72 72 69 55 54 54 52 61 53 47 46 48 51 56 59 66 67 65 65 65 64 64 63 63 64 64 63 62 61 60 62 64 63 63 63 63 62 57 43 32 25 22 20 19
73 70 58 47 54 56 70 62 56 45 46 48 54 66 74 76 71 73 72 71 67 64 64 63 63 62 63 61 63 67 68 68 67 67 67 62 41 29 26 23 22 20 19 19
75 75 68 50 53 61 63 66 68 66 65 69 71 74 77 79 78 78 75 73 71 66 66 65 64 63 64 67 71 72 72 72 71 69 56 36 31 26 25 24 22 21 21 21
66 62 55 54 53 56 62 65 67 69 71 73 75 78 79 82 82 81 78 74 73 70 68 66 64 65 68 69 72 73 74 74 69 49 35 30 27 26 26 25 23 23 24 24
65 60 59 57 58 60 63 64 65 65 68 73 74 77 80 83 82 81 81 78 76 73 70 69 66 65 66 67 68 68 67 55 39 34 31 29 29 29 28 27 27 27 27 28
59 61 65 64 61 61 64 66 66 63 62 65 72 78 83 85 84 81 84 85 81 77 74 73 73 71 67 65 65 63 52 40 34 33 32 31 32 32 31 31 31 31 31 31
66 63 61 64 64 65 65 67 70 70 68 70 72 75 78 84 87 86 86 88 88 84 79 77 75 74 73 72 68 60 46 38 35 35 35 35 35 35 34 33 34 34 35 36
57 60 64 67 67 69 68 69 70 70 72 74 76 76 77 82 87 87 87 87 89 87 84 80 76 75 74 75 72 58 45 39 38 40 40 39 38 37 36 35 36 37 39 41
57 58 60 61 61 61 60 64 67 69 68 73 76 79 80 84 89 88 86 85 88 89 85 83 79 76 79 79 76 62 51 43 40 41 42 42 40 40 40 39 39 40 42 43
59 58 56 56 58 60 61 61 64 68 69 70 73 79 84 87 90 90 88 85 84 83 79 75 78 80 83 86 80 67 57 51 46 42 43 43 43 46 45 44 42 41 42 44
64 61 62 61 60 62 65 64 64 67 71 72 72 73 80 85 88 90 90 85 77 78 81 82 80 84 91 88 86 79 68 58 53 48 46 50 51 50 49 49 47 46 46 47
66 66 66 67 66 67 67 69 69 67 71 73 73 71 70 72 82 85 89 85 81 83 85 85 85 84 89 88 86 85 81 70 61 59 58 56 55 53 52 51 51 50 49 49
72 71 73 74 74 75 76 77 76 73 73 72 72 72 71 70 70 76 83 86 81 85 87 90 88 88 88 88 88 86 86 83 78 73 67 63 62 60 58 58 55 54 52 51
77 82 89 89 87 87 86 85 86 83 79 75 75 73 72 72 72 72 76 84 84 85 87 89 92 92 93 92 93 93 92 92 92 89 84 77 69 64 64 61 60 59 55 53
93 95 94 93 93 92 94 93 94 92 89 85 83 81 79 78 77 75 74 76 85 89 93 91 93 95 95 96 97 98 99 98 95 97 96 89 81 76 72 66 64 63 60 58
98 98 98 98 98 98 98 96 96 97 98 96 94 90 86 82 81 80 78 79 81 86 94 97 97 98 98 98 98 99 99 98 98 98 98 96 92 86 79 76 70 64 62 61
92 87 83 82 79 78 76 76 76 77 80 84 90 92 92 93 91 89 87 87 88 90 92 96 98 98 98 98 98 99 98 98 98 98 98 96 95 95 88 79 74 70 69 69
75 76 76 74 72 69 67 67 67 68 69 69 68 69 73 81 87 90 94 95 95 94 95 96 98 98 98 98 98 98 98 98 98 98 98 98 98 98 91 85 80 76 72 64
72 71 69 66 61 55 49 45 41 37 40 49 54 53 52 55 63 72 81 88 95 98 99 99 98 98 98 98 98 98 98 98 98 98 98 98 98 97 95 85 74 69 62 54
76 73 70 62 55 49 44 38 28 23 20 17 18 21 21 24 29 41 52 60 69 79 84 89 94 95 95 96 96 96 97 97 97 96 92 87 85 82 79 76 68 60 58 56
58 59 54 43 36 31 27 17 10 10 10 11 12 13 12 12 13 16 20 25 28 33 38 44 51 55 58 61 63 61 64 65 66 67 69 70 71 71 71 71 64 58 57 59
48 48 39 27 21 18 15 12 11 12 13 14 14 15 15 15 15 15 16 16 18 19 20 22 24 27 32 34 39 43 46 47 52 54 56 58 60 63 65 66 62 59 55 63

GFSNGP_prec_cthk_072.txt.gz
RH
62 66 68 67 76 80 84 81 84 72 70 65 65 66 59 52 55 52 52 50 50 52 53 54 53 52 51 49 47 43 39 38 39 39 40 43 43 42 42 42 41 38 39 40
64 58 58 63 62 67 73 71 70 69 68 65 60 58 54 49 48 48 46 49 52 54 54 55 54 53 53 50 47 43 44 43 44 46 48 49 49 47 47 45 43 44 46 46
66 62 60 61 54 53 55 58 58 65 55 57 57 54 58 55 48 47 47 50 58 58 57 57 57 55 54 52 50 48 48 47 48 49 52 52 51 52 50 48 51 51 50 50
74 67 72 46 48 47 47 47 48 47 49 51 50 51 54 53 53 52 58 64 61 59 59 59 59 60 60 58 56 54 52 50 50 55 56 53 53 55 54 55 54 54 52 48
77 73 55 44 47 51 53 49 47 45 47 49 51 53 51 47 47 47 59 64 63 62 62 61 60 61 64 65 63 58 55 54 56 60 58 57 58 57 58 58 55 46 29 21
81 75 70 50 49 51 54 59 49 46 45 47 49 55 50 46 46 57 68 68 67 64 65 65 64 66 66 65 64 63 63 60 62 64 63 62 62 62 57 41 28 24 19 18
76 77 59 49 55 54 65 60 58 54 50 47 50 49 52 56 71 74 74 72 72 71 68 67 66 65 64 62 61 60 61 66 69 67 66 66 59 41 32 26 24 20 19 19
79 79 69 51 55 59 60 64 65 58 50 49 53 54 60 76 81 77 75 76 76 73 68 67 65 64 63 62 63 68 71 73 72 71 70 56 41 35 29 26 22 21 22 22
72 66 55 56 54 52 56 66 70 71 71 67 69 73 76 80 82 81 85 81 76 74 71 68 66 66 65 66 68 71 74 75 74 73 56 43 36 31 27 24 24 25 25 25
74 65 62 61 60 61 63 65 70 73 72 74 75 74 76 80 81 85 84 85 80 78 75 72 70 66 64 66 68 69 70 71 67 50 38 34 33 32 27 27 27 28 29 30
59 61 66 67 65 65 65 65 66 66 66 66 70 75 80 83 83 84 86 86 85 83 80 77 74 71 70 70 68 67 67 61 47 38 35 32 31 30 30 31 31 32 33 34
61 61 62 63 66 68 68 67 67 69 68 67 67 67 72 78 83 82 86 89 89 89 87 83 78 76 75 75 74 71 64 53 42 37 36 34 33 33 34 34 35 35 35 36
58 61 62 67 70 70 71 70 69 71 71 72 73 73 76 76 79 82 84 89 90 91 89 88 86 81 77 76 77 77 69 52 43 38 38 38 37 37 37 37 36 36 38 39
57 57 58 57 62 67 69 70 69 67 67 70 70 73 77 80 79 81 82 88 90 92 93 89 85 85 82 82 79 78 77 60 49 43 40 40 40 40 40 39 38 41 42 42
62 60 58 57 58 57 58 58 60 60 62 64 68 70 72 79 82 83 84 90 91 90 91 92 86 83 82 80 83 83 82 68 57 51 47 45 43 42 41 42 45 45 45 44
66 63 62 62 62 60 59 59 60 62 63 62 65 69 72 74 79 84 87 91 93 93 91 89 88 83 81 80 82 87 91 81 68 60 55 51 49 47 47 49 49 48 47 45
73 69 68 66 65 65 64 64 64 64 64 65 64 68 74 74 74 76 82 86 91 93 94 90 88 87 86 84 87 94 92 88 80 72 65 57 54 55 56 55 54 53 51 51
76 73 70 67 66 67 68 68 68 69 70 70 71 68 71 74 75 75 74 74 83 89 90 92 90 92 91 90 89 91 89 89 88 83 78 70 65 64 63 63 60 58 57 57
78 76 75 75 75 74 75 76 79 79 79 81 80 76 74 74 73 74 75 74 75 78 85 88 88 92 94 95 95 94 95 93 93 92 90 87 83 77 75 73 67 63 62 60
81 81 81 86 89 92 91 90 92 92 91 91 88 86 84 82 81 79 78 78 77 77 79 85 91 95 97 96 96 97 98 99 99 98 97 97 96 94 90 85 76 75 72 66
94 97 98 97 97 98 98 98 97 96 94 98 98 97 95 92 90 87 85 84 81 79 81 81 83 90 96 98 98 98 98 98 98 98 98 98 98 97 97 95 90 84 77 75
97 95 93 90 88 85 83 81 80 77 76 77 79 82 86 90 95 96 94 92 89 87 85 86 88 91 93 95 98 98 98 98 98 98 98 98 98 97 97 97 96 88 84 79
79 80 81 81 80 77 75 70 65 62 60 60 64 67 67 67 69 74 86 92 94 96 95 94 95 95 96 96 98 98 98 98 98 98 98 97 97 97 97 97 97 97 89 83
79 78 78 78 73 68 60 53 49 45 39 30 29 36 45 51 53 53 55 65 77 85 93 98 99 98 98 98 98 98 98 98 98 97 97 97 97 97 97 97 97 97 89 75
75 72 70 67 58 50 44 41 37 31 19 11 11 11 12 16 20 21 22 27 38 52 62 71 80 86 91 95 96 96 94 94 92 90 89 88 88 87 85 82 79 77 75 71
61 55 52 49 40 36 34 31 27 23 16 12 13 13 13 14 14 13 13 13 14 17 20 24 26 31 36 41 46 47 49 51 51 56 58 59 60 61 63 65 67 67 67 67
53 44 45 46 34 22 22 21 19 17 15 13 14 15 15 15 15 16 16 16 16 17 18 19 20 21 22 23 25 32 38 41 43 46 47 47 51 55 56 56 58 60 64 67

GFSNGP_prec_cthk_075.txt.gz
RH
74 73 76 75 79 88 87 83 82 68 70 66 64 64 64 62 59 57 53 54 56 57 58 60 58 57 56 54 53 51 50 47 45 42 40 38 41 43 43 42 42 41 40 39
69 64 67 70 70 70 80 83 84 79 70 66 67 65 63 66 66 58 57 55 53 53 57 61 62 60 58 56 55 56 52 49 45 42 43 44 47 49 49 48 46 45 44 43
69 64 64 65 52 54 58 59 63 72 58 58 59 60 65 61 55 52 52 52 52 55 61 61 57 58 58 60 60 54 51 47 47 45 46 48 51 53 52 50 49 48 49 50
77 72 76 49 45 48 48 46 50 49 48 49 50 54 58 56 58 56 52 53 51 56 60 59 59 59 59 59 60 58 55 51 50 49 50 53 55 54 54 54 53 53 54 52
82 80 60 46 45 49 51 46 44 45 44 42 43 48 48 49 54 58 58 57 60 73 64 61 62 62 62 62 64 66 63 57 55 53 53 56 59 58 58 58 56 54 41 31
83 84 75 51 53 50 51 55 51 49 47 46 46 51 49 51 52 54 50 52 60 66 67 64 62 64 65 66 68 67 66 66 61 58 59 61 61 61 61 60 48 33 25 21
85 81 69 51 50 56 63 54 59 58 54 46 47 46 48 51 52 51 51 62 69 70 68 66 66 68 69 69 68 65 65 66 65 64 65 64 65 66 55 40 32 26 24 21
84 83 74 52 55 59 58 61 64 61 54 51 48 49 49 50 55 64 73 73 73 75 75 74 71 69 68 68 66 64 65 66 67 68 66 68 66 46 37 33 29 26 24 22
72 65 55 55 54 55 54 57 66 67 64 54 52 53 57 60 73 83 80 77 84 78 79 77 73 70 69 68 68 68 71 72 72 70 71 70 47 40 36 32 28 26 24 25
68 61 60 58 58 60 59 62 66 72 76 79 78 71 76 80 82 84 84 85 86 88 81 80 77 74 70 67 67 70 72 72 71 71 71 50 43 36 30 28 28 28 29 30
62 65 67 66 65 63 62 64 65 68 72 74 78 82 81 81 84 84 85 88 88 89 85 84 82 78 75 72 70 68 68 68 67 64 47 38 35 32 30 30 30 29 31 33
58 51 51 57 63 64 66 66 67 68 71 72 71 70 73 76 82 86 87 86 89 89 91 88 87 84 79 77 76 75 73 70 63 52 41 37 35 33 31 30 29 31 33 35
59 54 54 58 60 63 64 70 71 70 70 70 70 71 70 71 72 76 80 86 83 87 93 93 91 89 86 83 80 78 75 74 67 51 42 38 37 36 34 34 34 34 34 36
65 60 57 58 59 61 66 69 71 71 71 69 67 67 69 72 74 77 79 81 84 85 91 95 94 91 89 89 86 82 80 77 72 57 50 44 40 38 38 38 38 38 38 37
70 66 61 57 59 59 60 64 64 62 60 60 60 62 64 68 70 75 81 83 85 85 87 92 94 94 89 87 85 85 86 81 78 66 59 53 49 46 42 41 41 40 40 41
77 75 68 60 59 60 59 59 58 58 57 58 58 59 59 62 67 72 78 82 84 86 87 92 93 94 94 89 87 83 80 81 83 80 70 63 58 54 52 50 47 46 46 50
83 81 76 68 64 64 64 63 62 61 60 60 60 59 61 61 63 69 73 77 79 83 87 91 96 96 95 93 89 87 88 86 88 93 84 75 66 62 58 55 53 51 54 56
86 84 80 76 73 69 67 64 63 63 63 64 64 65 64 65 64 66 72 75 75 76 80 88 92 95 96 97 94 92 91 91 91 91 89 85 78 71 66 62 60 62 64 64
89 86 83 80 77 76 73 72 70 71 71 72 72 74 73 71 71 71 69 73 76 77 78 76 80 86 89 93 97 96 96 95 96 96 94 92 90 86 83 80 76 73 75 74
86 84 83 83 81 81 82 82 81 83 84 86 86 87 84 83 83 83 80 79 77 77 78 78 79 81 83 88 95 96 97 99 98 98 98 98 98 97 94 92 90 84 86 88
91 90 89 89 89 91 94 95 96 96 95 92 90 93 95 93 95 94 91 88 86 86 85 84 82 81 81 84 88 91 98 98 98 98 98 98 98 98 98 98 97 97 97 95
98 97 96 96 95 93 89 86 82 79 78 77 75 75 76 77 80 85 91 97 96 94 92 90 89 87 87 88 89 91 93 95 97 98 98 98 98 98 98 98 98 98 97 97
84 84 83 82 82 80 77 74 71 68 66 62 59 56 56 61 66 67 68 71 80 91 94 96 96 95 95 95 95 96 97 98 98 98 98 98 98 98 98 98 97 97 97 97
82 82 80 77 74 71 67 61 57 54 48 41 30 14 13 18 34 47 52 52 52 55 68 83 90 96 98 98 98 98 98 98 98 98 98 98 98 97 97 97 95 95 94 93
78 72 67 63 59 53 48 43 42 38 34 31 27 14 12 12 12 17 25 25 23 22 25 34 48 60 69 78 85 88 90 91 92 92 89 86 81 75 71 69 69 70 70 71
65 62 57 47 41 36 23 21 26 27 26 24 22 18 14 15 15 15 16 16 15 15 15 15 16 18 21 23 26 30 34 39 41 41 42 45 47 51 55 56 58 59 60 63
63 59 56 54 45 40 33 22 21 20 21 21 21 19 16 15 16 16 16 17 17 17 18 19 19 20 20 21 22 23 24 26 32 35 37 39 43 45 46 50 51 52 57 61

GFSNGP_prec_cthk_078.txt.gz
RH
85 81 86 85 85 88 86 78 79 63 63 61 65 65 66 66 63 61 61 56 55 56 59 65 66 65 61 60 58 55 53 52 51 48 45 43 40 39 43 45 45 43 42 41
84 76 77 78 78 79 80 79 79 78 66 71 67 69 70 66 68 69 67 65 56 55 58 59 61 64 64 64 63 62 63 62 59 54 51 46 44 47 49 50 49 48 47 46
76 68 65 67 54 58 59 62 63 72 58 65 65 64 65 68 68 70 67 62 58 56 55 58 63 64 63 65 66 66 65 62 57 54 52 48 49 51 52 52 51 51 50 50
82 75 78 49 44 47 50 48 52 51 49 49 52 52 55 60 64 67 63 64 61 60 60 62 68 69 68 65 62 63 62 62 60 53 51 50 51 52 55 55 55 54 54 54
88 83 65 51 48 51 51 46 44 45 42 45 45 46 45 49 56 60 62 64 63 62 63 69 69 66 65 63 62 62 65 67 62 56 54 54 56 57 59 61 60 58 52 46
91 87 81 52 57 56 54 55 52 55 52 48 47 49 44 44 48 54 57 59 63 65 68 73 77 67 64 65 65 65 67 67 66 67 62 60 59 62 65 65 62 51 44 35
91 89 71 59 57 60 64 54 58 59 56 54 51 47 46 46 49 52 55 59 56 56 62 68 68 71 70 67 68 69 68 67 69 70 69 66 64 66 67 64 52 41 32 27
86 89 82 63 63 63 57 60 60 61 55 54 52 48 47 48 51 54 55 55 62 69 72 72 72 72 72 72 72 71 69 69 68 68 70 69 69 69 63 51 43 34 29 27
76 72 68 61 58 59 59 56 61 64 62 57 55 53 51 53 54 56 62 71 75 78 80 77 79 77 74 71 71 71 70 70 72 74 74 73 73 65 50 41 36 32 30 28
69 66 68 64 61 61 58 60 63 65 64 72 69 64 61 62 64 71 79 82 81 83 83 82 81 81 77 75 72 71 72 74 75 76 75 74 72 51 43 40 36 29 28 27
63 62 70 72 70 64 61 62 64 64 65 67 77 80 80 77 80 83 85 85 85 85 86 87 85 85 83 78 77 73 71 71 72 72 71 71 52 40 36 33 29 28 29 29
63 62 59 63 67 69 67 67 67 68 70 71 71 72 74 79 80 81 85 89 88 88 88 90 90 89 88 86 81 79 78 76 75 71 68 58 42 39 35 33 32 30 29 29
68 66 61 58 59 60 62 66 71 72 71 72 72 71 72 74 73 75 79 84 87 85 91 86 92 92 91 90 86 83 81 80 78 75 70 55 46 42 38 36 34 33 32 31
73 67 67 66 63 62 63 65 67 72 76 75 73 70 68 67 68 71 73 75 78 80 85 85 85 90 93 90 89 89 87 85 83 80 73 58 50 48 46 41 38 37 37 37
82 76 71 70 68 65 64 63 65 70 71 72 68 65 64 64 65 66 68 72 76 80 82 82 84 87 89 92 89 88 88 88 87 87 85 72 58 53 54 52 48 44 42 41
80 77 75 73 74 69 67 66 63 61 62 61 59 57 56 56 56 56 58 65 69 78 81 82 85 88 87 89 94 91 89 88 87 86 86 81 70 62 60 59 57 55 52 50
85 83 80 79 79 75 71 70 68 66 64 62 59 57 57 57 56 56 57 59 61 66 75 82 86 85 88 88 94 96 94 91 88 86 87 86 88 80 73 66 63 61 60 58
86 84 81 83 84 84 80 74 71 68 65 62 60 59 60 60 61 61 61 62 62 64 69 75 78 80 84 88 92 96 97 97 93 93 93 92 92 92 87 79 73 71 67 63
86 86 85 87 88 88 86 81 78 75 72 70 68 68 68 69 68 70 70 68 66 66 68 72 76 78 80 81 85 92 94 96 98 97 98 98 98 98 95 92 88 84 83 81
86 86 86 88 86 87 89 89 87 86 82 81 82 83 82 81 79 79 79 79 76 75 76 74 77 80 81 82 83 84 86 90 94 98 98 99 98 98 98 98 98 97 96 94
93 92 92 92 92 91 91 91 90 88 89 89 88 87 86 84 84 82 82 89 89 88 87 84 83 85 86 85 85 85 86 87 88 90 97 98 98 98 98 98 98 98 98 98
97 97 97 97 97 96 95 94 88 82 75 69 66 66 66 64 65 69 76 82 83 93 97 97 96 95 94 92 90 88 89 89 89 90 92 95 96 98 98 98 98 98 97 97
93 91 90 89 87 84 81 78 74 71 69 66 63 60 54 41 33 43 58 67 69 68 70 81 93 97 97 97 96 95 94 94 93 94 96 97 98 97 97 98 97 97 97 97
90 89 85 81 77 72 65 61 59 57 54 50 47 43 36 25 12 13 20 37 50 52 51 48 52 65 83 91 97 98 98 98 98 98 98 98 98 97 97 97 97 96 90 84
89 79 70 67 61 51 41 33 30 37 41 41 39 34 30 25 18 15 14 15 27 33 30 25 23 23 29 43 52 59 67 74 78 80 81 80 79 77 70 60 56 55 54 56
72 69 64 60 56 53 41 32 27 22 20 22 28 29 26 24 20 16 16 16 17 18 18 17 16 16 16 17 18 19 20 21 24 28 30 33 35 34 39 41 46 48 49 50
76 68 65 64 62 59 55 44 31 24 24 24 24 23 22 22 22 20 18 18 18 17 17 17 18 18 19 20 20 21 21 22 23 24 24 26 29 33 36 36 39 43 41 46

GFSNGP_prec_cthk_081.txt.gz
RH
86 76 77 73 74 78 80 73 73 56 52 48 50 52 55 55 60 62 60 61 61 56 55 56 55 58 60 59 60 59 58 58 57 57 53 49 44 42 40 39 41 44 45 43
93 86 83 82 83 84 81 78 76 72 60 59 58 58 59 61 62 62 63 61 63 61 58 51 55 59 63 67 67 67 66 62 61 62 60 56 52 49 47 47 49 52 50 51
94 88 86 84 73 70 69 69 67 71 55 54 55 58 60 61 60 62 61 64 65 64 60 56 55 58 61 67 69 69 68 68 66 65 64 61 59 59 57 56 57 59 55 51
91 82 86 60 51 54 54 48 52 53 46 48 48 48 51 54 57 60 62 64 68 65 63 62 59 58 62 65 70 68 66 67 67 69 67 62 58 59 62 59 56 56 55 56
93 85 69 55 50 52 54 47 44 44 41 42 45 47 44 48 49 54 59 61 65 64 66 66 67 67 69 72 72 73 73 70 68 66 66 63 59 57 56 57 58 59 60 55
94 90 81 57 59 57 58 59 55 55 54 53 52 50 44 45 43 45 53 58 60 62 63 69 70 74 76 77 73 70 69 70 72 70 72 72 65 63 64 64 64 62 55 50
94 91 77 63 65 63 69 57 61 60 59 55 55 52 48 46 44 42 45 50 56 58 63 67 68 67 74 76 77 72 72 73 72 72 72 74 75 69 67 67 67 58 49 44
94 93 84 63 68 71 63 63 64 62 60 55 52 53 50 48 48 49 49 54 57 61 61 63 61 67 71 72 73 76 75 75 74 75 73 74 75 73 72 73 65 52 43 36
77 69 63 64 66 63 63 62 63 66 65 59 54 55 54 53 53 54 55 57 59 61 69 72 75 76 78 76 77 78 77 77 76 75 74 73 74 73 74 66 54 45 39 34
73 64 66 65 66 66 65 64 65 65 68 66 71 63 61 60 60 61 61 63 65 76 81 82 83 83 84 83 81 78 76 75 77 77 78 79 77 78 73 55 46 40 37 34
72 64 64 63 66 68 65 65 65 67 67 69 71 76 81 78 74 72 72 79 86 85 85 90 86 85 85 88 86 82 80 77 75 76 79 78 78 76 56 47 43 39 36 31
83 73 67 60 60 64 69 71 72 72 73 74 73 72 74 82 87 88 88 87 89 89 88 87 90 91 91 91 90 88 85 83 82 79 76 74 73 63 45 40 38 35 32 30
86 83 69 65 62 60 66 70 72 75 77 77 77 78 74 74 79 80 81 83 86 92 93 95 92 93 93 92 93 93 90 88 87 85 82 78 75 60 49 46 42 38 35 34
90 88 82 72 66 65 62 64 67 72 78 81 80 78 75 73 72 72 74 76 77 80 87 88 88 87 90 88 90 92 92 92 91 89 88 86 79 63 55 53 49 45 41 39
93 87 87 81 71 68 66 64 64 68 72 75 76 77 76 71 69 68 68 68 69 72 76 78 79 81 83 86 88 90 93 91 90 91 91 90 89 78 67 60 55 51 50 48
91 93 91 86 80 78 76 70 68 68 67 66 69 71 67 64 61 59 57 57 57 60 64 71 78 82 85 84 86 90 92 92 91 91 90 89 90 89 81 70 61 58 58 56
95 92 91 88 85 85 83 80 75 72 72 70 68 65 63 60 58 57 57 56 57 59 61 60 64 70 80 86 88 89 91 91 92 95 93 91 90 92 89 85 81 74 71 68
86 92 92 91 89 88 89 89 87 81 76 73 71 68 64 62 60 60 61 61 62 61 62 65 63 65 70 76 84 88 89 90 92 97 98 98 98 97 96 96 96 90 84 79
95 95 94 94 93 92 93 93 92 89 84 81 78 74 71 68 69 69 68 69 70 71 70 69 68 70 70 73 77 83 84 86 91 94 97 99 98 98 99 98 98 98 97 94
93 94 93 91 91 90 91 92 92 93 92 89 86 84 81 81 82 80 78 77 78 79 78 77 76 76 76 76 78 84 87 89 89 89 89 92 94 96 98 98 98 98 98 98
95 95 95 95 96 95 94 93 94 93 90 87 85 81 78 74 70 67 67 72 77 79 81 90 88 85 84 84 85 87 90 90 90 90 89 90 90 91 95 98 98 98 98 98
99 98 98 98 97 96 94 91 84 78 74 71 70 68 63 60 59 56 47 51 59 70 82 82 88 97 98 97 97 95 94 94 93 91 90 90 90 91 93 94 97 98 97 97
97 97 96 94 91 88 84 79 75 70 67 64 62 58 54 50 45 38 29 22 23 39 59 72 70 67 76 91 97 98 98 97 97 96 95 94 94 94 94 96 96 96 96 95
95 90 87 84 80 74 67 60 55 51 49 48 48 48 47 44 39 36 32 22 15 18 34 54 56 50 44 48 57 73 86 93 96 98 98 98 98 98 97 97 96 96 96 95
96 86 78 73 67 59 51 39 30 23 22 22 21 25 35 36 34 32 28 23 18 16 16 29 34 31 27 23 22 26 37 45 50 54 56 56 55 56 53 49 47 45 44 44
85 81 75 67 62 60 58 54 47 38 26 22 23 24 24 23 26 28 28 23 20 18 17 18 20 20 19 18 18 18 18 19 20 21 22 22 23 25 29 34 35 34 37 38
90 86 81 72 69 67 64 60 58 51 44 35 29 24 24 25 25 25 24 25 25 23 23 23 22 21 21 20 20 20 21 21 20 20 20 22 23 24 26 29 32 35 38 42

GFSNGP_prec_cthk_084.txt.gz
RH
85 79 81 81 74 71 77 75 73 56 53 49 48 44 40 41 42 45 47 50 50 49 48 47 50 51 50 50 52 52 53 54 54 55 56 54 53 52 51 49 47 46 44 43
98 94 86 87 80 73 68 64 63 66 56 65 54 50 48 46 47 47 49 52 55 55 55 54 53 51 53 56 56 57 58 58 59 58 59 60 59 56 55 52 50 50 48 49
93 94 97 92 76 73 69 66 69 68 59 58 52 49 47 46 46 50 52 55 58 61 61 60 57 56 52 53 55 57 61 64 65 64 65 66 65 62 59 60 59 59 59 60
87 84 89 63 62 66 62 58 57 55 47 46 49 48 47 49 53 56 55 53 56 61 65 65 63 63 60 58 55 58 61 63 67 72 66 67 71 68 64 64 66 66 60 59
92 84 70 58 56 58 57 49 46 44 42 41 42 44 42 44 43 49 55 55 57 62 68 69 70 67 67 66 67 67 68 67 68 72 72 74 69 68 65 63 65 67 65 62
96 87 77 57 60 59 57 52 52 54 54 54 52 48 46 44 41 42 46 50 55 60 65 67 67 67 69 71 74 75 75 74 73 73 77 77 76 75 73 69 67 66 65 61
91 86 73 62 63 64 62 55 57 58 61 58 54 50 48 47 42 41 41 43 49 57 61 64 63 65 72 76 77 76 77 76 77 77 80 79 76 77 79 76 74 72 66 60
90 89 78 64 66 63 59 64 63 62 63 59 54 52 48 49 46 44 43 43 46 53 58 61 64 69 69 66 63 70 75 79 82 83 81 81 79 80 84 82 78 74 65 58
80 70 65 63 63 63 63 65 63 65 66 62 58 53 52 52 51 50 48 48 50 55 59 63 65 62 62 69 75 77 79 81 82 82 81 79 78 79 83 81 80 73 59 49
83 70 68 67 66 67 67 68 64 64 64 64 64 65 57 58 58 56 55 56 58 61 63 64 71 76 77 82 87 86 84 82 80 79 81 82 82 82 81 81 80 61 49 44
86 78 73 69 65 68 69 68 65 66 66 66 70 72 76 75 69 67 65 65 65 66 67 77 83 84 87 84 85 87 86 84 83 80 79 81 84 82 82 81 65 55 48 43
89 89 78 71 65 65 65 69 70 72 71 72 73 74 73 74 81 86 85 82 85 90 91 94 90 95 91 91 91 93 92 88 86 85 84 83 79 78 79 66 51 45 42 39
74 80 88 78 68 65 63 63 70 75 77 77 76 77 78 76 76 82 86 86 90 94 94 94 93 92 96 94 92 92 96 96 92 90 89 88 87 85 81 61 48 45 42 40
76 81 90 87 80 71 68 64 67 72 77 78 79 80 79 78 77 75 75 76 79 82 83 85 90 94 95 95 93 93 91 90 96 97 97 94 91 88 83 67 56 52 49 46
71 72 95 89 86 82 72 67 68 71 73 74 76 76 79 79 76 73 71 71 72 72 73 75 78 81 82 83 86 87 88 90 87 89 94 96 96 96 94 84 71 63 59 56
72 87 97 90 88 87 83 79 76 73 74 75 72 68 69 70 69 68 68 66 65 64 64 63 66 70 72 78 83 86 87 89 91 91 89 94 94 93 94 93 87 79 72 65
78 87 93 93 92 90 88 85 84 82 78 75 74 71 67 64 64 62 61 59 59 58 57 59 60 61 62 65 70 78 85 89 91 92 92 94 97 95 95 95 94 91 85 77
75 83 94 97 94 92 92 92 92 91 89 83 77 73 70 68 65 62 60 59 60 60 61 61 61 63 65 66 69 71 74 80 86 91 93 93 96 99 99 98 98 98 97 96
92 96 96 97 96 96 96 96 96 96 95 93 91 86 81 77 72 70 69 68 66 67 67 68 69 70 70 71 73 73 73 76 80 82 87 91 94 96 97 99 98 98 98 98
98 99 97 97 96 97 95 95 94 94 94 93 94 91 86 82 79 77 74 71 70 70 72 74 77 80 80 79 80 79 80 82 82 82 85 89 90 90 90 92 95 97 98 98
95 95 96 96 96 95 96 96 95 96 95 93 88 85 81 74 67 63 60 58 55 52 55 63 75 78 86 91 91 91 88 87 87 88 88 90 91 91 91 91 92 92 93 96
97 97 98 98 98 97 94 92 87 84 79 76 73 70 68 66 62 57 51 44 36 29 26 30 40 70 80 81 94 98 96 94 94 95 94 94 94 93 93 92 91 92 92 93
98 97 96 94 91 87 81 77 73 70 68 66 63 60 56 52 49 46 43 39 35 31 26 18 22 45 75 80 75 78 91 97 98 98 98 98 97 97 96 96 95 95 95 95
98 92 90 87 84 79 73 64 54 47 41 38 34 31 31 34 39 39 39 37 33 29 25 22 17 27 54 52 48 46 48 54 65 82 88 94 96 97 97 97 98 98 98 98
97 92 87 85 81 73 66 59 50 42 33 25 23 23 24 24 23 23 28 31 29 29 28 26 20 18 21 32 32 28 26 26 29 34 41 45 47 49 52 51 49 47 44 40
97 96 88 84 78 72 70 67 61 56 49 43 34 32 31 28 26 24 24 24 25 25 26 24 23 21 21 20 21 21 20 20 20 19 19 19 20 21 22 23 24 25 28 32
97 96 94 89 85 77 75 73 66 64 64 57 49 41 39 39 38 38 39 38 38 40 41 40 40 39 37 36 34 32 31 29 28 27 26 26 25 25 24 25 26 29 32 35

GFSNGP_prec_cthk_087.txt.gz
RH
84 82 81 78 77 77 81 80 83 72 66 60 52 47 49 50 45 44 40 40 43 44 44 44 45 45 45 47 49 49 48 48 48 48 48 48 49 49 50 52 50 47 47 46
96 97 85 83 77 78 75 75 72 70 58 62 54 52 47 48 49 46 40 41 44 48 48 49 49 49 48 48 46 47 50 51 52 53 53 54 54 56 56 55 54 54 51 51
95 96 98 96 74 71 70 71 68 64 58 59 55 51 47 43 42 42 40 43 46 50 52 53 54 56 55 52 49 51 52 54 55 56 57 58 60 60 61 60 60 61 61 59
95 96 94 67 62 66 65 64 62 59 55 54 50 48 46 45 43 40 43 48 48 51 55 58 59 61 59 58 56 56 56 57 57 58 59 61 64 67 67 67 66 65 65 64
93 83 67 64 59 58 60 57 55 50 47 45 44 44 41 44 43 42 44 49 55 54 57 62 62 66 65 63 61 63 62 67 70 67 65 65 65 68 72 73 73 68 65 68
97 95 74 62 58 56 57 55 53 51 50 51 52 52 50 50 48 45 45 46 53 56 58 63 65 68 68 65 66 65 67 68 71 71 72 71 73 76 77 82 77 76 71 68
84 83 73 63 62 63 62 61 62 58 57 57 55 51 49 47 45 45 42 45 46 51 57 63 67 66 63 63 63 68 71 73 74 76 75 76 79 82 82 82 81 82 77 74
94 93 81 64 67 66 65 63 60 59 61 61 57 52 48 48 47 47 44 42 42 47 54 59 61 62 62 63 66 68 69 67 65 70 78 79 83 84 82 81 82 84 82 77
83 79 75 72 66 66 65 65 65 66 70 67 63 60 53 51 50 51 48 47 47 48 51 55 57 59 62 66 66 63 66 69 73 76 81 82 84 84 82 82 85 86 84 75
77 73 75 75 70 68 70 68 70 66 66 66 68 69 65 58 58 57 57 56 53 52 54 57 60 63 67 66 73 76 80 83 81 81 81 81 81 84 84 83 85 86 83 73
79 79 79 77 73 72 72 71 69 68 66 68 70 72 73 74 68 67 66 64 63 63 63 64 65 66 70 79 83 82 83 85 86 83 83 83 82 82 85 86 86 87 86 64
70 87 92 81 77 73 73 73 73 70 70 71 74 73 73 72 74 80 79 78 76 73 72 72 73 78 86 91 95 89 86 91 92 90 87 86 86 85 83 82 83 83 70 56
59 71 84 87 81 74 70 69 70 72 74 75 77 77 77 75 72 72 76 83 88 90 89 91 93 97 97 94 92 93 93 91 96 96 97 91 91 90 88 87 84 70 52 45
62 65 81 85 86 81 73 68 66 67 69 75 79 79 81 80 78 76 74 73 74 78 83 84 84 85 86 92 95 97 97 94 92 93 93 94 97 95 92 90 87 73 56 52
60 66 82 79 87 87 83 78 70 68 67 70 74 74 77 78 79 78 75 73 70 70 71 73 75 78 79 80 83 86 88 88 87 88 87 89 89 93 97 97 95 90 73 64
58 65 83 86 90 91 89 86 83 76 72 71 72 72 71 70 69 68 68 69 70 69 68 67 67 68 70 71 73 74 78 81 84 87 87 87 88 89 91 94 97 97 93 81
63 70 82 88 94 95 90 89 89 89 85 78 73 72 72 70 67 65 65 66 65 62 62 62 59 58 59 61 64 64 65 68 72 78 82 85 89 90 92 93 93 93 95 95
68 71 83 95 97 96 94 93 92 92 90 88 85 83 78 75 73 71 69 66 64 64 63 62 61 60 61 62 63 64 65 68 70 72 77 81 84 87 91 93 93 96 98 99
84 82 93 96 96 99 98 97 96 96 95 94 93 91 89 87 83 78 74 73 72 69 66 66 66 67 68 69 70 70 72 74 74 75 75 77 79 82 84 88 93 94 95 97
91 93 97 98 98 99 99 99 98 95 93 94 93 90 89 87 85 82 78 74 68 63 61 62 65 67 69 72 74 78 82 82 82 83 82 81 82 81 81 84 88 91 91 92
97 98 98 97 96 96 96 96 95 95 94 93 91 88 84 79 75 70 68 68 63 59 50 41 36 34 38 51 61 76 86 89 91 93 92 90 89 89 88 88 88 90 92 93
93 95 95 95 95 95 93 91 88 87 86 83 79 76 72 69 66 62 58 55 50 44 39 34 30 27 25 26 44 63 76 87 93 96 98 97 96 94 93 94 94 94 94 94
95 95 94 93 89 85 81 78 75 71 69 67 65 62 59 56 53 51 49 47 44 42 38 35 31 29 23 20 34 63 65 65 73 86 95 98 98 97 97 98 98 98 98 98
98 98 94 89 87 86 82 76 67 56 47 41 33 29 27 24 24 24 23 23 27 32 35 34 31 28 27 26 20 21 37 39 40 44 50 57 67 78 87 90 93 94 92 97
98 97 92 90 88 85 80 72 65 58 50 43 36 31 30 30 30 28 25 24 23 23 24 25 26 26 26 25 21 20 20 25 29 28 27 28 31 35 40 43 46 46 46 45
98 98 98 98 93 86 80 75 73 69 62 59 54 48 40 37 37 37 37 38 41 42 40 38 39 39 40 39 38 37 36 34 32 30 28 26 25 23 23 22 22 22 22 23
91 94 96 97 97 92 86 82 78 76 71 67 68 64 57 51 49 47 48 50 53 55 55 55 54 54 52 51 51 50 49 47 45 43 42 43 42 42 41 39 37 36 35 35

GFSNGP_prec_cthk_090.txt.gz
RH
78 79 86 91 88 87 92 91 87 72 71 65 64 60 57 53 52 52 46 44 42 43 42 41 42 43 44 46 47 48 49 49 51 52 51 49 49 48 48 48 47 46 46 48
94 92 92 90 87 83 78 81 81 76 66 64 61 59 56 49 46 49 51 45 44 41 42 43 47 48 48 48 48 50 51 51 50 51 51 51 52 50 50 50 51 51 51 51
98 97 99 98 87 77 75 76 76 77 65 64 57 55 51 49 48 43 42 43 41 40 39 44 46 50 52 52 54 54 50 49 50 52 53 53 53 53 54 56 56 56 56 57
98 98 96 65 67 69 68 67 66 64 63 64 61 54 51 51 46 43 42 39 40 41 44 46 49 52 54 57 57 56 56 55 55 56 58 57 57 56 55 57 59 61 63 65
98 91 78 71 65 69 69 65 62 61 60 58 53 51 49 44 45 44 42 40 38 41 50 50 51 56 60 62 63 62 60 59 60 62 62 64 65 67 64 62 63 66 69 70
94 92 92 72 65 63 62 63 55 53 57 58 56 58 57 54 51 49 46 44 41 45 50 55 58 62 65 68 68 65 64 66 65 65 65 67 68 67 69 70 71 73 75 75
94 96 82 72 69 66 67 72 66 64 64 64 62 59 55 49 46 45 44 45 44 47 51 56 64 67 68 73 74 70 68 67 68 68 69 69 68 70 73 75 77 81 81 83
87 94 88 75 71 71 72 70 64 63 65 62 62 57 53 50 48 47 45 48 44 44 49 55 61 65 69 72 70 67 69 69 67 66 68 64 66 70 78 79 81 82 82 85
95 87 82 78 76 71 70 68 68 68 70 69 67 64 62 56 55 53 50 47 48 47 48 53 61 66 66 67 67 70 71 68 68 70 69 69 71 76 79 83 84 85 85 89
79 76 88 83 75 72 68 70 71 71 67 65 65 68 70 70 64 61 58 56 53 52 53 56 61 64 63 66 70 71 71 75 76 78 81 79 80 81 82 82 83 85 88 91
64 68 76 75 74 73 74 76 76 73 71 70 69 71 75 78 77 71 68 65 64 63 61 60 62 65 67 70 73 75 79 85 83 83 86 84 82 82 84 85 84 86 87 90
69 72 78 84 81 78 83 80 79 79 79 77 76 78 79 76 74 75 78 77 75 74 74 71 71 72 74 75 78 81 87 92 88 88 89 89 89 87 87 88 87 85 85 89
64 69 70 76 84 85 87 85 82 81 82 82 82 83 83 80 77 74 73 74 82 85 87 88 86 87 89 93 98 95 91 95 93 93 93 92 93 96 93 92 91 90 88 84
62 62 68 76 88 92 89 84 82 78 80 84 86 86 86 85 83 81 79 76 74 73 76 80 84 86 86 89 90 93 96 96 96 96 95 91 92 91 89 91 95 93 91 81
58 59 65 76 87 90 95 89 82 78 77 74 76 79 80 81 82 82 80 77 75 74 72 71 73 75 78 81 82 82 83 86 87 88 87 87 87 88 90 91 92 94 96 94
59 61 69 75 86 90 95 95 91 86 81 78 76 74 74 74 73 70 69 69 69 70 71 70 69 69 69 71 74 75 75 76 77 78 80 81 83 86 88 89 89 93 97 97
57 63 62 71 82 92 92 95 94 91 92 90 86 81 76 72 71 71 69 67 65 65 66 65 65 65 65 65 66 64 66 67 68 68 68 68 71 77 80 83 86 91 94 94
68 72 70 75 90 90 94 96 94 93 94 93 91 90 86 83 81 78 76 74 71 68 67 66 67 67 67 65 64 64 65 67 69 68 69 71 71 73 75 78 82 84 87 93
76 75 83 87 93 94 98 97 96 96 97 97 96 94 93 90 88 83 81 79 75 73 66 62 59 58 61 62 64 66 68 70 73 75 76 77 77 78 79 80 81 82 83 86
81 81 85 91 91 94 98 95 99 99 98 98 94 92 90 88 86 84 82 80 75 69 64 59 56 50 46 47 51 55 56 59 63 72 79 81 83 85 88 88 87 86 86 86
83 86 93 92 96 98 98 97 97 97 96 93 90 88 85 82 77 75 73 71 68 62 55 50 47 43 38 34 32 32 42 52 53 63 72 83 89 91 93 94 96 95 92 92
90 88 92 96 97 98 95 91 87 86 83 80 79 77 76 72 68 64 60 57 53 50 48 48 45 40 35 32 30 27 28 42 55 68 81 87 90 92 94 97 98 98 98 96
87 92 91 88 84 83 81 80 79 76 72 70 68 66 64 60 57 54 47 40 37 35 36 38 37 35 33 32 32 29 26 27 27 23 36 40 49 67 83 92 96 97 98 98
85 92 96 95 93 90 88 86 82 76 65 51 40 34 29 27 25 25 25 25 24 23 22 22 22 23 25 28 29 28 27 28 24 20 20 25 30 30 33 44 52 57 64 69
86 90 96 97 93 90 89 88 81 74 66 60 55 50 44 37 35 36 37 37 37 38 41 44 44 41 39 39 39 40 40 39 38 38 37 36 34 34 33 31 30 33 36 39
87 92 94 95 96 97 97 91 86 77 75 73 66 64 61 56 50 47 47 48 49 52 56 56 55 55 54 54 54 54 55 55 54 53 50 47 45 44 44 44 44 44 41 38
72 76 82 87 88 91 93 93 89 87 83 81 78 76 74 69 65 60 58 57 58 59 60 59 59 58 56 54 54 54 54 54 54 52 51 49 48 46 44 42 42 42 42 43

GFSNGP_prec_cthk_093.txt.gz
RH
96 92 96 97 92 95 97 89 87 71 73 66 65 67 64 62 57 53 47 43 40 40 39 38 39 39 41 41 43 45 48 52 52 51 54 56 56 57 57 55 52 50 49 48
90 88 92 87 86 92 92 93 89 80 71 68 67 65 66 66 64 60 54 51 49 46 44 42 39 40 41 43 44 45 46 48 49 52 53 54 55 55 53 52 51 49 50 50
87 92 98 93 81 85 79 81 81 80 66 73 64 64 61 61 60 56 52 48 46 46 45 44 42 42 42 44 49 51 52 54 54 54 53 54 54 55 54 53 52 52 53 54
89 97 96 77 71 75 72 72 75 72 71 69 67 66 61 55 50 50 50 46 44 43 42 42 42 42 45 48 51 54 58 59 58 60 60 58 58 59 60 60 60 60 58 57
88 96 89 75 74 76 76 73 74 71 67 63 63 61 61 56 51 47 45 43 40 40 38 41 43 49 51 52 57 60 63 63 64 64 63 64 65 64 65 67 67 67 67 69
86 95 89 76 70 69 70 72 65 57 57 58 60 58 57 54 55 52 48 46 45 43 40 40 45 55 58 56 60 67 69 69 69 69 69 71 69 67 66 68 69 69 71 73
83 92 79 76 73 69 66 69 76 71 66 64 66 65 62 58 53 49 46 45 44 44 44 43 49 59 65 67 69 73 75 75 74 72 72 73 71 69 69 67 66 69 77 79
85 88 88 76 76 73 72 73 70 69 68 67 67 66 64 61 55 53 50 46 44 46 47 45 50 60 70 76 77 79 79 76 73 76 75 73 69 69 70 67 69 77 81 83
88 91 85 85 80 76 72 72 73 73 77 81 74 73 69 71 61 57 54 50 48 48 49 49 51 59 68 72 77 79 75 73 77 77 73 72 73 74 73 73 75 78 80 83
61 66 78 96 94 87 81 75 74 76 77 76 73 73 73 75 75 69 64 61 54 52 53 55 59 66 72 74 74 71 71 74 74 73 77 79 81 85 84 82 83 83 83 83
64 62 59 71 86 88 84 82 81 78 78 77 79 78 77 79 80 78 75 72 67 63 60 60 63 67 71 71 70 71 72 73 77 79 84 88 87 88 87 84 83 85 86 85
70 67 70 71 72 81 87 83 84 85 84 83 83 83 84 80 80 79 80 83 79 75 73 72 72 71 72 73 74 75 77 77 80 85 90 90 90 92 90 91 90 89 88 89
65 64 64 64 77 79 88 91 92 91 90 87 88 88 88 85 82 80 79 77 77 80 82 84 86 84 84 82 84 86 91 95 96 91 93 96 96 95 92 91 93 90 88 90
68 68 66 64 62 75 85 95 94 94 91 88 89 90 91 89 90 89 86 83 80 78 76 77 81 83 85 89 88 89 91 91 97 98 98 98 96 96 96 93 91 91 89 88
58 62 62 63 74 78 85 92 97 95 93 90 87 86 89 92 90 88 85 83 80 78 77 75 74 73 74 77 80 83 85 85 86 88 90 91 92 91 89 88 90 90 91 92
52 59 65 71 75 77 87 98 98 96 93 90 87 82 80 79 79 78 75 74 74 73 73 75 75 75 73 72 73 75 77 77 78 78 80 82 82 82 80 80 81 84 86 90
65 62 64 69 79 88 96 95 97 98 97 96 96 94 89 83 79 76 75 74 75 74 72 68 68 69 70 70 71 70 72 73 72 71 73 73 71 70 69 70 72 75 79 83
74 74 70 74 80 92 95 94 95 98 98 97 97 96 95 94 93 92 89 86 81 77 75 74 67 62 60 69 72 73 73 72 72 72 73 73 72 72 72 71 72 73 76 79
76 78 75 78 81 89 92 93 97 97 98 98 98 98 98 95 93 92 90 87 83 81 77 70 63 60 58 56 56 59 62 63 63 61 60 61 67 74 78 80 81 81 82 83
79 76 79 81 82 88 89 90 93 95 95 98 98 98 96 92 88 84 82 81 79 76 72 67 61 57 53 48 44 44 45 50 53 56 56 57 60 65 69 73 79 85 86 88
76 85 81 85 85 85 88 92 97 98 96 95 94 90 85 81 78 76 76 75 73 66 61 58 55 53 50 47 45 40 34 33 36 45 57 62 65 69 78 87 87 87 90 91
71 80 88 89 90 95 93 89 87 81 74 72 72 72 73 72 70 68 67 62 57 54 51 49 47 46 44 42 39 35 33 31 30 34 31 30 31 31 35 51 68 83 90 92
68 76 81 84 85 80 82 80 77 76 74 73 71 68 66 64 61 58 56 50 38 32 29 27 26 26 28 31 33 33 33 31 31 31 30 28 27 26 21 22 27 30 34 50
69 76 85 89 93 94 92 92 89 84 79 71 57 45 40 34 31 29 29 28 28 31 33 35 38 40 40 38 38 39 40 40 41 42 41 40 39 39 39 38 36 35 35 35
74 78 82 89 96 98 95 92 91 89 86 78 66 61 58 54 48 42 41 42 43 45 48 54 56 56 55 54 54 54 54 54 55 55 54 54 52 51 48 46 43 42 42 43
67 74 81 87 93 98 98 98 98 97 91 83 78 77 73 70 66 61 58 57 57 58 61 63 62 61 59 59 57 55 53 50 49 47 45 42 39 37 36 36 37 38 40 41
62 65 68 70 72 82 87 90 91 94 93 91 90 89 86 85 86 83 76 72 70 69 68 68 65 64 63 60 56 50 43 40 39 36 33 33 33 32 31 31 31 31 32 33

GFSNGP_prec_cthk_096.txt.gz
RH
86 89 98 98 96 96 98 92 88 73 72 67 65 66 65 64 59 53 48 43 40 38 37 38 37 35 35 38 42 43 46 51 54 58 63 65 64 65 67 69 73 74 69 61
71 81 89 87 89 94 98 96 86 87 79 73 75 72 68 66 67 63 57 51 47 46 43 41 39 38 37 37 38 42 44 49 54 55 57 53 54 56 56 58 59 57 54 50
69 80 89 82 78 84 86 87 87 89 68 80 81 74 74 71 66 62 62 60 55 54 52 46 41 41 40 40 41 43 45 48 50 53 53 55 55 55 55 54 54 53 51 51
81 91 95 81 77 73 74 76 78 74 75 77 74 74 71 69 66 64 62 60 57 53 49 48 47 46 46 47 46 47 48 52 56 57 59 57 57 56 55 57 58 57 59 60
87 94 88 75 74 82 83 77 69 68 72 73 71 68 67 68 64 61 57 53 51 49 44 40 42 44 45 47 51 53 52 56 60 61 61 63 62 62 63 63 61 60 61 63
78 86 84 80 74 73 75 75 73 64 66 71 69 68 64 62 60 61 54 51 47 46 46 45 43 41 43 52 58 57 59 61 63 67 68 67 67 68 68 67 66 64 64 65
74 80 83 83 76 70 69 72 77 74 71 68 67 64 63 61 59 57 55 50 46 43 42 44 44 43 45 55 61 66 68 69 69 70 73 73 72 72 69 69 70 67 66 67
78 86 84 82 77 80 80 77 72 73 73 71 68 65 63 63 62 59 55 51 47 45 45 47 47 46 51 59 67 74 76 79 80 79 79 76 76 75 75 71 69 69 69 70
73 71 80 82 84 83 83 81 80 76 78 75 71 71 69 68 69 68 63 58 52 50 49 49 50 49 55 62 72 80 84 87 89 86 80 79 80 79 76 74 75 74 76 76
65 65 63 68 78 98 92 87 83 79 74 76 74 74 71 72 76 77 72 64 58 55 55 54 55 57 62 68 73 78 82 86 84 79 80 79 79 77 81 81 83 84 82 82
63 64 64 67 64 65 92 96 90 84 77 77 78 80 81 81 87 82 81 76 69 65 62 60 62 65 70 75 78 80 78 76 77 78 78 79 81 84 86 89 88 89 86 84
59 61 64 62 66 68 68 86 97 89 84 85 85 87 89 91 87 84 81 81 82 78 75 71 70 70 72 75 76 76 76 76 76 77 80 84 84 90 93 92 92 91 89 88
60 62 62 62 65 69 70 76 82 93 89 90 91 92 93 94 91 86 82 80 79 77 81 82 82 81 80 82 83 83 82 83 83 86 94 97 93 93 97 98 95 94 91 90
63 64 61 62 62 64 66 77 80 96 94 96 94 94 95 96 93 91 90 85 82 80 78 77 77 82 86 89 89 91 95 95 93 96 94 95 98 98 99 98 97 98 96 92
57 53 55 61 60 61 60 81 88 93 94 95 95 97 97 96 97 94 90 88 84 81 79 78 77 77 76 75 76 80 82 84 86 87 88 90 92 92 94 93 92 91 91 90
55 56 54 62 65 72 77 88 95 98 91 95 95 96 95 93 89 85 84 81 77 74 73 73 74 74 75 76 77 77 77 79 80 79 79 79 80 83 84 85 83 83 85 82
58 65 58 60 69 71 81 85 88 96 97 96 97 97 97 96 91 87 82 79 76 75 74 72 71 70 64 61 69 69 70 72 76 77 75 75 75 74 75 73 72 71 71 72
59 64 70 67 74 85 92 97 96 95 98 98 98 97 98 98 95 94 93 91 89 88 85 81 77 71 62 59 61 67 71 73 74 76 77 77 76 76 75 74 74 74 74 75
60 63 68 73 73 79 90 94 93 92 96 98 99 98 98 96 96 94 91 88 86 85 82 78 73 67 63 60 57 52 53 56 61 63 63 61 59 59 59 58 61 64 69 74
58 65 67 76 78 77 80 86 92 91 92 94 93 95 98 98 96 90 86 81 76 73 72 72 69 66 60 55 52 48 47 50 52 55 55 55 59 63 64 67 71 74 76 78
55 62 70 77 82 87 81 83 89 91 91 94 96 94 94 89 83 80 79 80 76 74 68 63 60 57 56 55 54 51 49 46 43 40 41 45 46 43 45 48 50 53 57 64
54 57 63 72 83 90 93 94 86 81 82 81 78 76 75 72 71 69 69 70 67 63 58 53 47 43 40 39 40 40 40 39 37 36 33 32 30 30 29 29 29 28 28 28
54 58 62 62 65 74 81 86 85 82 79 76 74 72 72 70 68 67 63 60 57 50 38 34 30 28 29 31 33 34 35 37 38 39 40 40 38 38 38 37 36 36 36 36
56 61 64 67 72 78 86 94 96 97 96 90 82 72 63 47 37 35 34 32 32 33 31 35 44 51 54 56 56 56 55 53 51 52 52 53 52 51 50 48 46 45 43 42
58 64 68 71 76 84 88 92 98 97 97 96 92 88 73 65 60 53 46 42 43 45 49 54 60 64 65 63 62 62 60 57 55 51 47 44 40 37 35 33 31 30 29 28
45 48 52 58 67 77 87 91 94 98 98 98 97 92 90 86 81 76 69 63 61 61 64 69 71 71 70 68 67 65 61 55 47 42 41 39 37 36 34 33 32 31 30 30
44 46 49 54 59 67 72 75 77 83 93 97 97 97 96 97 95 93 91 89 83 78 75 74 72 69 68 67 67 65 57 48 45 40 37 37 36 34 33 32 31 29 28 28

GFSNGP_prec_cthk_099.txt.gz
RH
75 85 90 91 95 95 97 87 85 65 68 69 66 68 66 65 62 59 56 51 46 44 42 39 38 37 38 38 39 41 42 44 48 53 57 60 63 63 62 65 63 67 75 75
59 68 81 88 88 91 96 97 93 88 80 75 74 69 65 67 65 63 60 52 49 46 43 43 42 40 39 42 41 40 41 44 48 51 54 56 59 64 63 56 53 54 56 56
65 68 85 84 81 82 80 89 93 98 77 83 82 74 70 68 70 67 62 59 56 52 50 46 46 44 41 38 39 40 41 43 46 50 55 58 58 59 57 56 54 53 53 53
73 75 84 78 79 78 75 81 87 83 80 79 79 80 79 78 74 71 67 62 60 58 57 57 53 50 46 42 40 41 43 45 46 48 50 52 54 56 58 57 55 54 54 54
78 81 82 78 79 80 86 80 80 78 73 77 83 83 80 78 73 70 69 67 65 62 57 55 53 51 46 46 46 47 50 53 53 52 54 57 59 58 59 59 59 60 59 57
70 80 80 80 80 73 78 84 85 81 74 72 81 82 79 74 69 66 65 64 62 58 52 51 52 50 47 45 47 50 53 56 61 63 61 59 61 64 64 65 66 65 64 62
68 72 64 78 80 75 78 80 90 88 85 79 77 77 76 73 68 66 63 61 59 56 50 48 48 50 50 48 48 53 59 64 66 66 64 65 66 68 71 72 71 70 68 68
65 72 70 74 77 83 89 87 90 91 88 88 84 80 76 73 69 65 62 59 55 54 51 48 48 47 48 49 53 60 66 69 72 74 73 73 75 76 76 73 74 74 72 70
61 56 64 69 75 82 86 87 87 87 86 84 85 80 80 78 75 71 69 64 58 55 53 51 50 50 51 53 57 62 68 73 79 83 85 87 86 85 82 80 79 79 77 76
57 53 56 61 66 66 65 80 90 88 90 83 79 80 79 81 82 79 74 72 66 60 59 57 55 55 54 56 62 67 71 75 80 88 91 91 89 85 82 82 82 79 82 82
49 48 55 59 60 61 62 62 73 95 92 86 80 77 80 83 86 85 81 81 77 70 66 63 62 63 63 63 66 69 74 78 81 86 88 86 85 85 84 81 78 83 87 88
47 49 54 58 58 59 61 62 65 76 94 92 87 83 83 88 92 91 86 85 84 81 77 73 71 70 72 75 77 77 79 80 80 79 80 80 79 78 79 82 84 89 92 91
48 53 57 56 57 61 62 62 63 70 83 96 91 90 90 89 94 94 92 88 81 78 78 81 81 78 75 75 76 76 77 78 80 80 79 79 80 82 91 93 90 92 93 95
51 55 55 46 51 56 56 59 63 70 81 97 91 90 91 92 96 95 92 92 90 86 81 78 77 78 81 83 83 84 87 88 87 89 90 90 90 92 93 95 95 97 97 98
53 52 50 47 54 57 56 62 70 74 83 94 92 90 93 96 97 98 98 93 90 87 84 81 79 77 75 74 74 76 78 81 82 83 84 87 89 89 90 91 93 95 94 94
52 50 53 48 56 60 66 67 78 81 85 92 92 89 93 95 93 93 92 91 89 85 81 79 78 76 76 75 73 75 77 77 79 81 81 81 81 80 80 83 84 86 86 86
51 51 56 53 57 67 73 78 87 95 93 93 93 93 96 97 96 94 91 89 87 85 85 84 78 72 69 66 59 58 65 68 69 71 76 78 78 79 79 80 78 77 76 75
50 52 54 60 60 68 75 79 82 84 90 91 98 98 98 99 99 99 98 97 96 95 91 88 84 80 76 69 63 59 59 63 70 73 74 76 76 78 79 79 78 76 74 73
48 52 54 54 63 63 71 80 86 90 92 92 95 97 97 99 98 99 99 98 95 92 87 79 74 71 67 65 62 60 58 55 52 59 64 66 66 67 65 62 61 62 63 66
45 50 55 57 60 67 69 72 75 83 87 88 91 94 96 94 95 96 97 96 90 83 76 69 66 66 64 63 60 57 53 53 55 57 58 59 60 60 60 64 68 66 62 64
45 47 51 57 62 64 68 77 81 78 81 88 86 85 87 87 88 87 82 78 79 78 73 67 63 61 60 58 56 56 55 55 54 52 49 48 47 48 49 44 39 39 38 38
44 47 49 54 59 62 63 66 71 76 78 76 75 77 81 79 76 74 71 69 66 64 63 62 58 54 48 43 39 36 35 37 39 41 42 43 42 41 41 39 36 35 35 36
48 48 49 51 50 52 56 61 67 75 81 83 81 78 74 72 72 72 69 66 65 61 59 56 49 40 36 37 37 40 44 45 43 42 42 42 42 43 43 44 45 45 45 44
52 52 53 54 57 61 65 69 74 80 86 94 94 92 88 79 70 60 50 43 40 42 41 37 36 37 46 56 61 61 59 59 58 57 56 55 52 50 46 42 38 35 32 31
50 49 52 55 59 63 68 72 75 82 87 91 96 97 96 93 86 74 61 50 38 34 35 38 47 59 65 68 71 71 69 68 66 63 57 49 44 42 40 38 37 35 34 32
46 43 42 42 43 45 48 54 62 73 84 93 95 97 97 97 95 93 87 80 71 63 60 61 65 73 82 81 75 71 70 69 66 58 47 43 42 41 39 37 36 35 34 33
47 45 44 44 45 48 51 55 60 64 69 75 81 92 98 98 98 98 98 97 97 96 91 87 81 78 76 75 73 70 70 70 64 52 46 42 41 41 40 39 38 36 34 33

GFSNGP_prec_cthk_102.txt.gz
RH
53 58 80 86 82 82 95 92 94 72 69 68 66 61 62 65 64 62 59 54 52 50 46 42 40 38 37 37 36 36 38 39 43 46 47 50 54 55 55 57 58 59 59 55
52 51 63 75 79 82 83 90 86 86 81 73 70 66 65 68 70 66 64 61 59 56 54 48 45 46 43 41 41 40 39 41 44 44 47 51 54 57 56 58 61 58 56 50
64 57 66 80 83 80 81 85 90 88 81 89 83 74 70 72 71 70 67 66 64 61 57 53 49 45 44 40 38 38 38 42 44 46 48 50 53 56 60 62 57 54 52 54
69 68 68 76 82 84 85 86 83 86 92 86 86 80 70 71 71 69 68 66 65 64 63 60 58 55 51 45 42 39 37 38 44 46 47 48 51 58 59 55 53 53 54 55
67 72 71 79 86 84 95 93 88 88 89 78 73 81 77 80 77 74 70 67 66 65 64 63 62 56 51 49 47 43 41 40 42 47 49 49 50 51 52 54 56 56 55 56
61 69 72 78 86 84 84 95 92 89 89 79 74 80 87 84 81 80 77 75 72 68 65 62 60 55 54 52 48 42 45 47 50 52 54 57 58 58 59 60 60 60 61 62
57 62 52 61 77 83 88 83 95 95 94 93 91 86 85 83 82 83 78 70 64 60 59 58 58 52 51 51 52 50 50 54 56 58 61 63 65 66 66 67 66 65 67 68
58 61 59 60 67 78 90 92 93 95 95 95 95 91 89 86 84 81 77 70 63 60 57 54 53 56 53 51 52 54 57 59 61 65 68 71 72 72 72 71 70 71 72 71
52 50 52 57 61 65 73 83 92 94 95 95 94 90 88 86 84 81 77 74 69 63 60 58 54 54 56 54 54 55 58 63 66 71 75 79 78 79 79 79 80 79 80 81
51 46 48 49 57 60 62 63 60 64 83 91 92 88 85 85 86 87 85 82 80 71 66 64 60 55 55 57 57 60 63 65 70 73 76 81 84 87 89 89 86 86 85 83
46 44 47 52 53 57 59 61 62 65 64 75 94 88 86 83 84 87 90 87 87 83 75 71 70 68 66 65 66 68 68 69 71 74 79 84 86 89 89 86 85 84 83 81
40 40 44 48 53 54 52 56 57 58 66 67 94 94 89 85 87 86 91 89 93 90 86 83 78 78 77 75 73 72 75 76 77 78 79 82 86 86 85 83 81 80 80 81
37 42 46 50 50 45 51 53 54 60 60 68 81 96 93 91 89 90 93 94 91 90 90 87 85 86 82 81 81 84 84 83 85 85 86 86 83 81 80 80 81 85 92 93
37 43 47 48 41 46 51 50 52 58 62 68 85 96 92 92 94 95 94 97 94 95 92 89 87 87 88 91 90 88 87 86 86 85 85 86 87 88 89 89 91 91 92 93
39 44 47 46 41 46 51 53 56 56 64 77 93 95 89 92 94 96 96 98 98 95 91 90 88 86 85 83 81 80 80 83 88 92 91 91 91 91 91 94 93 90 90 91
38 43 46 49 45 49 54 59 62 64 70 88 93 92 92 90 92 97 98 95 95 93 91 89 88 87 85 84 83 80 75 75 80 81 83 86 84 84 85 85 85 85 85 83
41 42 44 49 49 54 58 63 68 72 77 81 84 86 89 91 92 91 94 95 92 90 88 88 88 87 85 80 74 68 61 61 64 71 72 74 78 80 81 83 84 84 83 82
39 41 43 47 53 55 58 62 67 70 74 81 85 89 91 90 92 94 94 96 96 96 97 95 93 90 86 79 73 68 65 64 64 66 69 73 76 78 78 80 81 81 81 79
40 42 44 46 48 57 57 59 64 69 76 77 82 87 92 96 96 95 94 95 98 96 95 92 87 81 72 65 60 58 58 59 61 62 62 61 63 68 71 71 69 65 60 61
41 45 46 46 50 54 57 60 62 65 66 71 77 82 87 92 96 96 97 94 95 95 90 81 76 72 68 62 57 56 56 56 57 62 63 64 63 62 62 62 62 63 62 59
41 45 47 48 50 53 56 60 61 63 68 72 73 73 75 81 83 83 83 85 83 82 81 78 74 64 58 55 53 52 54 52 51 52 53 54 54 54 52 52 52 46 40 39
44 46 50 50 49 50 51 50 49 49 51 54 57 63 73 76 78 80 81 79 79 78 76 68 65 61 56 54 48 44 41 41 41 43 44 46 49 51 52 53 54 53 51 48
49 50 52 52 50 45 45 48 52 57 60 62 64 65 69 75 77 73 70 74 75 72 70 67 63 60 56 53 49 47 48 49 50 50 50 49 48 46 46 46 46 46 46 44
50 52 53 54 52 49 54 58 60 63 68 70 71 78 82 88 89 86 83 76 63 59 57 54 52 51 50 51 50 52 58 61 62 63 63 62 58 53 50 46 44 42 39 37
49 49 49 50 48 46 47 50 54 61 65 71 76 79 85 91 96 97 92 86 78 67 51 39 35 37 42 50 59 68 73 80 79 76 73 69 59 52 47 45 43 40 39 39
47 45 45 45 42 41 42 44 45 47 49 53 57 66 82 93 98 98 98 98 95 90 84 69 56 50 57 69 83 88 80 77 73 71 70 66 52 47 45 42 41 40 40 39
50 47 47 44 43 42 41 41 42 44 48 56 62 65 71 81 90 96 98 98 98 98 98 97 93 87 85 84 83 80 78 75 72 72 70 61 51 47 43 42 41 41 41 39

GFSNGP_prec_cthk_105.txt.gz
RH
53 53 53 67 75 81 83 85 97 93 83 74 73 69 67 67 64 61 59 57 56 54 52 47 47 44 44 44 47 50 51 51 49 46 44 44 46 48 50 51 53 55 59 59
55 50 48 65 66 70 72 72 81 84 86 82 81 73 66 68 71 70 66 62 58 55 55 52 51 49 46 44 42 39 39 40 42 42 43 45 47 51 56 58 60 62 61 61
58 56 55 67 75 81 79 78 77 80 75 82 80 77 74 73 72 71 71 71 68 65 60 58 56 53 51 48 45 43 41 42 43 44 46 48 50 50 52 55 59 60 63 57
61 62 62 77 77 85 87 85 85 82 79 80 76 74 76 76 71 68 67 67 68 69 71 70 69 64 56 49 46 45 44 41 42 44 47 48 49 49 50 52 57 58 57 57
57 60 57 69 77 81 83 90 91 93 92 84 79 70 79 87 80 73 70 71 68 69 72 71 69 65 65 59 54 50 48 46 43 42 44 45 47 48 51 54 56 54 52 56
53 60 59 58 65 72 80 91 96 95 91 90 82 85 84 87 90 82 78 76 73 71 68 67 65 62 59 59 56 52 49 48 46 46 48 52 52 54 55 55 56 55 58 60
53 55 44 46 59 66 81 80 93 98 97 93 90 90 89 87 90 88 86 82 78 73 69 65 62 59 57 55 52 53 51 49 51 54 55 59 60 59 60 63 65 68 67 66
50 55 50 50 56 60 66 77 88 93 96 96 93 91 91 90 89 89 87 84 81 73 67 64 62 58 57 56 53 49 52 53 58 61 61 62 64 65 67 70 71 71 72 73
44 42 40 48 49 52 59 62 63 67 76 89 93 95 91 88 90 89 86 82 79 78 75 66 59 55 54 54 55 56 57 59 63 65 66 70 72 75 81 81 82 83 83 80
45 39 42 44 47 53 54 57 61 61 62 63 73 89 94 89 85 84 87 86 83 78 74 69 64 61 56 57 58 59 65 67 68 69 69 73 78 81 84 85 87 89 88 90
41 38 40 44 45 49 50 51 53 55 56 62 64 69 88 90 86 86 84 85 86 85 83 79 73 69 65 63 64 66 67 71 71 71 74 77 81 83 86 87 89 93 93 90
33 31 33 38 44 48 48 49 50 50 54 57 61 66 79 93 87 83 84 84 85 85 83 82 82 78 76 75 75 76 77 75 74 75 77 78 80 83 88 90 92 89 87 88
30 31 34 40 46 41 42 45 45 47 49 54 57 65 82 92 92 87 85 88 91 85 83 86 86 85 85 83 84 83 82 79 80 79 78 77 80 82 85 87 88 89 85 81
32 34 37 40 40 38 42 44 49 51 51 55 58 66 85 94 91 89 88 92 90 91 92 90 89 89 90 91 90 88 86 88 96 86 90 92 92 92 93 91 88 87 87 88
34 35 37 39 40 39 43 47 54 52 54 57 60 70 87 94 93 92 91 95 96 99 98 95 92 90 89 89 88 85 84 85 87 90 92 91 91 93 95 96 95 93 92 93
36 37 39 40 41 42 46 51 54 55 58 63 75 86 92 88 88 91 93 97 97 98 96 94 92 92 94 93 91 89 86 83 79 78 82 85 89 89 89 90 89 89 88 88
37 39 40 44 45 47 47 52 56 60 63 70 78 84 85 85 86 85 88 93 92 93 93 91 90 91 93 91 90 87 82 76 72 70 70 77 79 82 85 89 90 89 89 87
37 38 41 44 47 49 51 51 57 61 66 70 74 77 80 83 87 88 88 90 94 97 98 98 98 96 93 89 84 79 75 73 71 69 66 73 73 76 78 79 80 80 81 82
38 40 43 43 45 47 50 54 54 55 58 64 71 76 81 84 88 90 94 94 95 98 97 98 97 92 88 81 77 70 64 59 59 61 62 64 69 70 73 73 73 73 73 71
38 40 43 46 46 47 49 53 51 52 57 60 62 67 69 73 79 84 91 95 96 95 97 95 93 88 80 77 75 71 64 59 57 60 64 66 66 66 70 71 70 67 64 62
39 40 42 45 47 50 50 50 50 50 49 50 51 54 58 61 65 68 74 77 84 89 84 82 80 80 79 73 68 65 58 53 52 51 52 54 56 58 57 56 57 56 56 53
41 42 43 45 48 51 51 48 44 43 44 45 44 45 46 49 53 57 63 75 83 82 84 84 81 74 70 68 64 60 57 53 50 49 51 52 51 51 53 55 56 57 57 57
44 45 46 47 48 48 47 48 50 54 57 57 58 61 65 65 63 64 66 69 70 71 75 78 81 76 71 66 62 60 59 63 60 55 53 54 53 51 49 46 45 45 45 46
44 47 48 49 50 49 51 55 55 55 56 59 62 64 66 70 75 78 83 82 84 83 78 69 66 65 65 63 63 63 66 63 60 56 59 63 66 64 58 53 51 48 44 41
46 47 46 45 45 46 46 44 42 42 43 45 46 48 54 62 71 81 86 96 97 92 87 81 72 63 56 52 55 54 60 62 64 77 85 81 80 76 63 56 52 48 43 41
45 45 43 43 43 43 43 42 41 41 42 43 45 48 52 58 62 70 83 96 98 98 98 97 92 84 71 59 56 52 58 79 86 82 79 76 76 74 58 52 50 45 42 40
47 46 44 44 43 41 42 41 39 36 34 34 33 35 40 49 62 72 83 91 97 98 98 98 97 97 96 90 86 85 90 90 86 84 79 75 74 73 56 52 48 43 41 41

GFSNGP_prec_cthk_108.txt.gz
RH
40 41 42 55 61 61 76 76 83 88 94 74 74 72 67 69 67 67 68 66 62 59 55 52 53 57 58 56 58 60 61 60 59 56 52 49 46 44 46 48 52 53 58 56
47 45 47 48 52 58 66 66 70 69 78 76 76 74 73 75 72 70 66 67 68 65 62 60 57 54 52 54 56 58 57 56 57 53 50 48 46 45 46 49 51 52 53 55
46 45 57 62 64 73 79 77 80 79 71 74 77 78 80 77 76 74 72 69 66 65 64 63 62 60 59 56 52 49 48 46 45 44 44 45 46 46 48 49 50 53 57 63
47 51 56 59 62 74 77 83 83 81 81 80 79 79 82 80 78 75 74 74 72 70 69 68 67 66 64 63 61 57 53 51 48 46 46 46 47 48 49 53 54 55 59 60
46 42 46 56 62 64 66 81 88 90 91 90 86 82 78 80 82 79 75 74 73 72 73 73 72 70 68 66 63 60 58 55 53 53 49 49 51 50 50 52 56 56 61 62
42 43 38 47 52 59 63 66 79 88 91 90 91 91 89 88 85 83 80 78 75 73 73 73 71 70 70 68 65 63 61 59 56 54 54 54 54 54 57 60 59 59 62 61
38 40 30 34 45 52 63 59 71 82 87 90 92 94 96 95 93 91 90 92 86 78 71 70 70 69 66 64 63 61 58 59 58 58 60 61 61 63 64 63 66 68 67 63
38 45 36 35 46 47 46 47 55 62 72 84 88 91 91 91 91 92 94 95 93 88 80 73 71 67 64 62 59 58 56 54 54 55 57 61 63 61 65 72 72 70 72 70
32 28 31 38 39 41 45 49 51 51 53 57 64 80 93 91 89 88 92 91 90 88 86 83 75 70 67 62 59 58 57 55 56 61 66 67 67 69 71 72 73 74 76 78
35 30 31 34 38 40 43 46 48 48 52 55 58 60 69 90 91 87 86 89 88 84 80 80 79 79 74 65 61 59 59 61 65 68 71 72 71 74 76 80 82 85 87 86
33 31 32 33 34 36 42 44 45 46 48 49 51 55 58 64 91 87 86 83 83 86 84 83 81 77 72 69 66 65 65 67 71 74 77 80 80 80 82 84 88 89 89 90
25 26 26 29 31 36 39 41 41 41 41 44 47 49 54 60 75 83 83 79 79 81 84 83 82 82 82 76 74 73 76 78 79 80 79 79 81 83 85 87 90 91 93 94
25 27 28 30 33 39 33 36 39 43 45 44 45 47 51 58 74 82 83 81 79 82 82 83 83 79 77 83 84 88 82 88 87 86 84 84 85 84 84 86 87 90 91 90
28 28 31 32 36 35 34 39 43 45 46 49 50 51 56 62 78 85 89 85 83 83 86 86 85 85 87 90 91 91 91 91 88 90 94 90 89 88 84 86 87 90 90 91
30 30 32 34 36 37 39 45 49 46 48 51 52 51 57 67 84 89 86 84 85 87 89 97 96 89 86 85 85 86 86 86 86 88 92 96 95 94 95 96 96 97 97 94
30 33 35 37 37 39 43 46 51 52 51 53 56 59 67 74 82 85 86 87 88 92 96 97 97 95 94 93 92 89 90 89 88 87 86 86 90 93 93 95 95 95 96 95
33 35 36 37 38 41 45 48 52 54 54 54 59 64 69 75 81 84 85 85 86 87 88 91 93 93 92 92 88 89 90 89 88 85 83 81 81 86 89 92 93 94 93 92
33 33 34 37 40 43 46 48 52 54 55 56 58 61 66 71 75 79 83 87 89 91 92 92 93 96 97 96 93 90 87 84 81 80 79 79 78 82 81 81 81 82 82 81
34 35 35 37 42 44 46 48 52 54 55 54 54 58 63 67 70 75 82 84 86 92 95 97 98 97 96 96 91 85 80 76 74 73 73 71 69 76 77 81 80 80 82 82
35 37 38 41 44 44 46 47 49 50 51 52 55 57 59 60 63 67 70 74 79 83 89 94 96 96 93 90 88 83 79 76 72 72 73 70 69 67 68 68 70 74 76 77
37 36 39 43 46 46 46 49 50 48 47 45 44 43 42 43 45 48 51 56 61 69 76 80 83 83 86 85 80 77 74 70 68 67 68 66 62 62 62 65 69 70 70 69
36 38 41 44 47 48 48 49 47 45 47 50 52 52 54 53 52 53 52 51 51 53 56 62 73 85 90 85 80 74 71 67 63 61 61 57 55 52 50 49 49 50 53 56
37 38 42 46 49 49 48 45 46 51 56 57 57 59 60 60 62 65 68 69 69 67 66 66 61 66 76 86 85 80 75 71 70 72 70 68 63 59 54 51 49 48 47 47
39 42 45 48 50 50 47 47 49 49 48 48 48 48 49 51 56 61 68 73 77 82 83 85 80 73 72 73 76 78 79 78 79 76 72 69 66 61 58 57 56 56 53 51
43 44 46 48 46 43 42 42 41 41 42 42 41 42 44 46 48 52 56 64 76 83 90 96 96 91 84 74 70 70 69 73 78 75 72 72 71 72 75 73 66 59 55 52
45 44 45 44 43 41 41 40 39 38 37 34 33 32 31 32 35 41 52 62 70 81 95 97 98 98 97 92 82 74 71 72 70 69 75 81 87 85 87 85 71 64 57 53
48 47 47 45 43 41 39 39 39 36 35 35 34 31 30 30 29 30 32 35 42 51 64 86 97 98 98 98 98 94 86 84 82 81 86 95 90 84 83 84 72 58 55 49

GFSNGP_prec_cthk_111.txt.gz
RH
39 39 40 45 50 52 65 69 75 68 72 79 77 76 79 74 70 68 70 66 64 63 62 61 63 62 60 59 67 79 80 76 74 71 68 65 63 59 55 52 51 54 53 53
45 41 44 44 44 45 53 61 62 63 65 69 78 76 80 81 77 76 70 70 68 65 62 62 61 61 64 68 66 68 68 67 67 66 67 66 63 59 55 52 54 54 56 62
42 40 54 57 53 57 62 63 67 67 62 65 66 70 76 77 82 84 81 74 70 69 68 66 64 62 61 60 61 64 66 67 66 67 67 66 62 57 53 52 53 56 60 63
42 49 55 49 50 58 60 64 70 70 71 74 72 71 73 74 77 80 81 81 77 72 71 69 67 65 63 63 62 60 59 57 56 56 54 53 52 52 52 53 55 56 56 55
41 34 34 42 48 52 53 58 67 74 77 77 78 79 76 74 84 84 83 82 82 83 79 73 72 70 69 67 64 62 60 59 58 58 55 54 54 54 54 53 54 55 56 60
40 38 33 35 42 46 48 53 58 68 74 81 81 83 89 89 84 83 85 85 85 84 83 81 78 75 73 71 70 67 62 59 58 57 57 55 54 53 54 54 53 53 55 57
32 35 25 30 35 40 52 56 53 57 65 75 81 84 84 88 92 91 86 84 82 82 80 77 74 73 74 73 70 67 66 65 63 61 62 60 59 59 60 61 61 61 61 62
31 37 34 27 35 39 42 41 44 45 49 53 58 72 81 83 83 85 86 88 85 85 86 80 78 75 71 70 67 65 66 63 60 60 61 63 64 67 70 69 70 69 69 70
26 27 27 27 33 33 35 38 43 44 46 46 48 51 55 71 84 83 82 83 82 86 85 88 87 83 75 68 65 64 63 64 63 61 62 65 69 69 68 71 72 74 75 74
30 25 25 30 31 31 36 37 39 42 43 42 44 48 52 53 63 84 85 81 81 83 83 83 85 87 87 82 75 70 69 68 67 64 64 66 67 69 72 74 76 77 76 76
28 24 26 26 28 32 32 35 37 40 41 40 41 42 47 52 54 65 84 83 81 80 83 84 84 83 83 81 80 79 78 74 72 72 71 74 78 80 81 82 82 80 81 83
22 23 23 25 26 28 32 34 34 34 36 39 40 39 42 44 53 57 77 82 79 77 79 82 85 84 84 84 82 80 79 82 81 82 82 81 82 85 87 86 88 90 89 91
23 23 23 24 26 29 33 30 33 37 39 43 44 45 43 45 49 56 66 74 78 78 76 76 79 81 79 79 81 82 87 87 85 88 88 87 88 87 87 88 88 92 94 97
23 25 27 28 27 31 31 32 36 40 42 46 47 48 47 48 48 60 70 73 82 81 77 76 78 79 81 86 84 83 84 90 92 96 98 96 93 94 93 92 90 91 92 94
25 26 27 28 30 32 33 35 40 43 47 49 50 48 47 48 51 62 68 77 81 81 82 81 81 83 86 89 86 84 85 86 89 92 93 92 93 97 96 96 94 92 92 94
27 29 29 30 30 33 36 40 42 45 50 51 53 55 55 56 59 63 70 76 77 80 80 84 88 92 93 96 97 95 93 92 91 90 91 93 94 95 97 97 97 98 98 99
28 30 30 31 32 34 37 42 44 45 51 53 53 56 60 62 63 66 71 71 76 80 81 82 84 86 89 91 90 89 89 89 89 88 92 92 91 89 89 90 94 98 98 98
29 30 30 31 32 35 39 43 44 47 50 51 52 53 56 59 61 62 65 67 72 76 80 84 88 90 91 93 93 96 94 92 88 88 88 88 88 88 87 88 90 92 95 97
32 32 32 31 34 38 41 44 45 48 47 48 48 51 53 56 58 60 62 63 66 70 74 77 82 88 92 97 98 97 98 93 87 81 82 85 82 81 80 84 86 89 94 94
34 36 35 35 37 39 41 45 47 47 46 46 45 46 48 50 50 51 51 52 52 54 57 62 69 72 75 81 87 92 96 95 91 87 87 88 85 80 79 78 78 78 85 86
37 38 36 36 38 41 44 47 49 49 45 42 41 40 40 40 41 42 43 42 42 43 46 51 54 56 58 63 69 77 81 82 83 82 80 81 79 75 76 78 78 78 79 80
39 38 36 38 39 42 46 48 50 47 43 44 48 51 51 53 56 57 58 58 59 59 59 57 56 60 64 65 67 69 71 79 79 76 75 75 74 74 71 69 65 62 59 57
39 39 39 41 43 46 48 48 48 45 47 51 53 53 52 53 52 52 53 55 58 62 66 68 68 70 70 68 65 67 74 78 81 83 83 81 80 77 75 71 68 63 60 55
38 39 40 42 45 48 49 48 46 46 46 45 43 43 42 41 42 41 41 46 51 58 66 73 77 80 81 80 75 72 73 81 85 85 84 86 84 82 78 74 67 62 56 52
40 40 43 45 48 48 46 43 42 42 42 40 40 37 35 32 29 29 29 32 40 47 56 65 73 82 87 93 97 89 80 74 76 79 89 91 86 82 79 78 74 66 59 59
43 45 46 46 47 45 43 41 40 39 38 37 34 31 28 27 26 26 25 24 27 29 31 38 44 52 73 94 97 98 95 85 81 80 83 83 83 85 83 86 94 90 81 72
46 46 47 48 46 44 43 40 39 39 39 37 34 33 32 30 30 31 30 29 32 32 30 34 39 43 45 51 72 94 98 98 94 89 86 82 79 79 90 95 90 93 86 79

GFSNGP_prec_cthk_114.txt.gz
RH
37 37 41 44 45 46 58 61 74 70 72 74 74 74 76 71 70 73 68 64 63 63 66 67 68 69 70 66 70 79 83 86 88 87 85 82 77 72 70 69 65 64 66 66
44 35 39 40 39 39 45 54 57 63 68 74 73 72 67 72 72 72 70 69 66 64 64 64 63 65 68 67 66 67 74 81 88 88 85 80 76 72 69 69 66 65 65 62
45 39 52 53 46 48 52 56 59 63 67 70 70 67 66 67 70 70 72 72 70 70 68 66 66 63 62 65 71 73 77 79 83 86 84 79 75 73 68 66 66 63 61 61
46 49 55 40 40 46 46 49 54 60 66 70 71 71 69 68 68 70 75 78 79 77 73 71 70 67 65 65 63 64 67 72 74 76 76 73 69 67 62 57 57 60 61 61
47 45 32 35 34 42 40 41 46 52 59 64 69 71 77 79 75 73 73 73 76 81 82 79 77 74 70 67 66 66 65 64 63 61 61 59 58 56 55 56 57 61 62 63
44 43 37 38 34 35 36 53 46 45 53 59 64 71 79 82 84 82 76 76 75 71 72 78 79 75 72 70 70 68 65 65 65 63 63 61 61 62 63 63 63 62 62 61
45 41 30 30 29 32 45 42 40 39 41 44 50 60 69 76 82 88 84 82 81 78 76 74 71 69 70 70 70 68 68 68 68 66 64 62 61 60 62 62 61 61 61 62
34 40 40 25 28 36 34 35 37 38 37 39 42 43 45 56 70 79 82 85 83 79 75 74 72 69 69 67 65 63 63 64 64 64 63 66 68 69 70 70 69 69 68 68
29 31 24 23 26 27 29 31 34 38 40 40 38 38 41 44 46 59 77 79 79 82 80 77 75 73 72 69 66 65 63 63 65 64 62 67 69 70 72 72 73 72 72 75
27 23 23 22 25 27 27 29 30 34 36 38 38 37 38 41 44 45 56 75 78 78 81 81 79 80 80 79 82 78 74 71 68 66 66 65 66 71 75 76 77 78 78 78
26 23 24 23 24 26 27 28 30 32 33 34 34 35 36 36 41 46 46 60 70 74 76 77 78 82 81 81 80 78 77 77 80 80 74 71 71 73 79 84 84 83 81 82
27 20 22 22 22 24 26 27 31 31 31 32 35 37 37 36 38 42 44 51 62 72 75 74 74 78 82 85 86 85 84 82 82 81 82 83 84 87 86 89 88 87 85 83
21 23 22 22 23 24 25 29 28 30 34 34 35 41 41 40 40 42 44 51 56 62 68 71 70 71 74 78 78 80 81 83 88 91 91 89 90 91 88 88 86 88 86 86
21 22 24 23 24 25 26 27 29 32 34 38 40 41 42 44 44 44 47 53 57 59 64 70 73 75 75 76 78 79 80 83 84 84 86 90 95 97 95 96 92 91 92 91
21 23 22 23 25 26 27 29 32 36 40 42 45 45 43 45 45 46 53 55 59 62 69 74 76 77 79 83 84 85 87 89 87 85 87 89 92 94 97 99 95 98 99 96
22 25 25 25 26 27 29 32 36 38 40 45 49 48 50 53 54 56 58 59 62 69 71 71 73 78 78 79 86 88 90 97 98 97 96 93 92 93 95 96 97 98 98 98
24 27 28 29 28 28 30 34 37 39 42 44 48 50 50 53 57 58 60 63 67 69 70 70 71 74 79 83 86 88 90 92 91 91 93 93 91 91 92 94 94 94 98 98
23 25 27 28 29 29 32 35 38 40 42 45 46 47 48 51 53 55 57 58 59 63 64 66 69 72 76 79 85 89 92 96 97 95 93 93 91 91 92 95 94 93 94 96
26 27 29 30 30 30 32 36 39 41 42 43 45 46 47 49 52 54 54 53 53 54 56 57 61 64 68 70 73 78 82 89 96 98 96 93 89 87 90 90 85 86 92 96
29 30 31 31 31 31 34 37 41 42 42 42 43 44 43 43 42 42 40 40 39 40 41 43 46 50 52 53 53 54 59 65 74 81 95 97 97 97 97 97 93 88 83 83
31 32 32 33 33 35 36 38 42 43 43 42 39 38 40 42 45 47 49 50 53 54 54 55 56 56 56 57 60 62 60 60 60 61 66 77 90 94 91 90 90 90 86 82
33 34 34 34 35 36 37 39 43 45 44 41 41 45 48 50 51 50 50 48 50 52 55 58 60 59 59 61 64 63 70 66 68 70 68 64 64 77 86 87 87 85 84 83
36 35 36 36 37 38 38 42 45 45 42 41 44 46 46 42 41 38 38 40 40 42 46 51 56 62 67 70 70 73 71 70 69 76 73 70 73 73 74 83 83 79 74 70
38 37 39 40 39 40 43 44 45 43 42 41 39 40 40 38 36 33 30 26 25 26 28 34 42 52 56 60 71 80 84 86 79 77 84 85 78 85 90 87 90 85 80 76
38 37 39 40 41 43 44 45 44 41 40 38 38 37 34 31 28 26 25 24 23 23 23 22 27 32 34 39 48 58 79 94 95 86 78 81 86 96 95 91 89 87 84 77
39 40 42 45 45 44 43 42 41 40 38 37 36 34 32 31 30 31 30 29 27 28 30 30 30 33 34 32 38 46 52 65 87 97 89 86 86 90 96 97 94 93 97 91
43 44 46 47 44 44 43 42 41 39 38 36 36 35 34 32 32 32 33 35 35 35 34 33 31 31 31 34 34 34 40 46 56 73 95 97 92 89 88 88 87 92 97 97

GFSNGP_prec_cthk_117.txt.gz
RH
37 38 37 39 39 43 52 58 70 63 74 76 73 70 70 69 66 64 64 66 64 66 69 72 74 73 73 71 73 77 81 86 89 88 86 85 87 85 80 79 76 75 78 76
47 41 41 37 34 35 40 47 50 55 64 67 65 68 68 67 67 68 70 68 71 69 67 65 67 70 73 74 72 68 75 83 86 87 87 88 86 84 83 80 75 71 70 70
42 40 47 45 37 39 43 42 48 54 57 59 59 61 68 67 65 72 71 71 69 67 69 68 64 65 64 66 68 73 72 75 81 84 83 83 86 87 83 80 75 72 70 69
46 47 39 31 36 39 39 40 42 46 53 55 56 58 63 64 62 64 70 71 68 67 69 69 70 70 66 65 64 64 67 74 75 77 83 85 84 84 82 81 78 75 69 67
41 47 33 35 33 36 37 36 39 41 48 52 51 53 59 65 66 65 65 69 72 70 69 69 68 68 68 66 66 67 67 64 63 62 64 67 70 74 75 68 63 59 61 60
41 42 37 27 30 30 32 42 38 38 45 48 49 51 51 56 62 67 68 66 66 70 70 69 68 68 67 66 66 66 65 66 67 64 64 65 66 65 66 66 65 67 68 68
43 42 29 27 31 29 33 24 34 34 36 36 37 38 43 45 50 56 64 66 67 65 64 66 67 67 65 64 64 65 64 63 63 65 64 65 66 65 65 65 67 65 65 66
36 41 30 26 29 28 25 29 28 29 31 32 32 36 37 36 35 42 55 59 63 65 64 64 65 64 63 64 63 61 59 57 57 58 63 64 67 71 70 68 69 68 67 67
30 24 20 23 21 22 25 26 28 29 31 33 33 33 33 34 36 35 36 51 57 60 64 66 66 64 62 62 63 63 62 59 58 57 57 59 63 67 68 69 73 77 75 75
24 17 20 20 22 22 24 25 27 30 32 31 31 31 32 34 34 35 36 36 51 53 56 60 63 64 65 64 64 66 66 65 65 65 66 66 66 67 69 71 73 76 78 81
27 21 20 19 20 21 22 24 26 27 30 30 31 30 30 31 31 34 37 38 43 49 54 56 59 58 58 61 63 66 70 75 77 79 78 76 77 75 71 71 73 80 84 86
24 17 17 17 17 20 22 24 25 26 28 28 31 32 34 34 32 33 38 41 42 45 51 54 58 61 60 60 64 71 77 78 79 79 80 81 82 81 83 83 83 84 87 90
21 18 19 20 20 21 23 24 24 26 25 29 32 34 37 38 37 38 40 41 45 49 50 52 57 57 55 58 62 67 72 77 79 79 81 84 89 91 93 94 92 94 94 94
20 21 23 22 22 22 23 23 25 26 28 30 35 36 37 38 40 41 43 43 48 53 53 54 54 57 63 65 67 68 72 74 76 77 80 82 85 87 90 97 95 97 97 96
21 20 20 22 23 22 24 24 25 28 32 34 37 38 39 42 43 44 45 47 54 57 57 60 64 68 72 70 72 75 78 80 82 84 83 83 88 89 91 92 96 98 99 98
21 21 21 23 23 24 25 25 26 30 33 35 39 41 40 44 48 49 51 52 56 60 61 65 70 71 72 74 76 77 80 82 86 88 88 90 95 97 96 95 95 95 96 98
27 25 23 24 25 26 26 26 27 31 34 36 39 42 43 43 44 48 52 54 56 57 58 59 63 65 68 71 73 76 79 82 85 92 96 95 94 93 94 95 96 95 95 97
25 20 21 22 25 27 28 28 31 33 36 38 41 42 42 42 43 46 48 50 52 53 53 54 55 57 57 60 63 66 68 71 77 84 88 93 97 98 97 96 96 97 97 97
27 24 24 25 27 29 29 31 33 35 38 41 43 43 43 43 44 45 47 47 46 45 44 43 43 43 44 48 49 50 52 51 53 56 63 74 86 93 98 97 98 98 96 97
29 28 28 28 30 30 31 32 34 37 40 43 44 44 43 41 40 38 38 39 40 42 44 46 48 48 47 47 48 51 54 57 57 58 58 57 58 71 86 94 97 97 97 97
30 31 31 31 31 32 32 34 37 38 41 44 45 43 40 39 43 45 47 49 51 49 49 50 51 51 51 50 50 53 55 57 62 64 64 67 66 65 65 73 91 97 97 97
34 35 35 34 33 33 34 37 39 41 44 45 44 42 44 46 47 45 44 41 40 40 41 41 43 46 47 51 56 61 62 63 65 64 66 68 71 74 74 69 67 82 95 97
39 39 39 37 35 34 36 39 41 44 46 46 44 45 45 42 40 39 39 37 34 30 27 26 26 28 32 39 45 48 50 57 68 72 70 69 75 78 76 77 72 69 76 80
44 43 42 40 38 38 38 41 45 47 46 46 45 43 41 39 37 34 31 28 27 26 25 24 22 23 24 25 28 32 36 43 51 61 77 82 77 79 87 88 89 86 82 78
44 44 44 41 39 40 43 46 49 48 47 45 42 40 38 35 33 31 31 31 31 30 31 29 28 29 29 30 30 30 33 37 41 49 60 71 88 85 85 90 92 94 92 95
50 49 45 41 42 44 47 51 50 49 47 43 40 38 36 35 34 33 33 32 31 32 32 31 31 29 28 28 28 29 30 32 37 42 46 56 68 86 89 91 96 97 97 98
55 52 48 46 46 49 52 51 49 48 44 41 40 39 38 37 36 35 34 33 33 33 29 25 26 28 30 32 34 35 35 34 33 35 41 48 55 66 86 95 95 97 97 97

GFSNGP_prec_cthk_120.txt.gz
RH
35 37 36 38 36 35 43 50 58 53 59 67 70 68 67 63 64 61 60 59 60 60 67 72 76 73 71 69 73 79 85 90 92 94 95 95 94 93 94 94 93 93 95 96
40 37 40 35 32 32 35 38 41 46 49 55 55 61 65 66 65 62 61 61 60 59 59 57 62 66 72 72 72 69 73 80 85 91 92 90 88 90 93 92 90 93 92 89
41 40 38 32 32 31 37 38 40 47 41 47 49 52 55 60 62 62 63 62 62 61 59 59 56 57 60 62 66 69 72 73 76 82 91 84 82 90 88 86 85 83 81 80
43 40 21 19 30 31 35 34 35 38 41 43 44 48 53 55 56 58 59 62 62 62 60 59 55 56 57 57 58 61 63 69 76 79 81 82 83 84 88 90 88 87 85 83
37 43 28 27 30 32 34 26 30 34 38 40 41 44 46 49 52 55 55 56 59 59 59 60 59 57 56 56 57 58 59 60 62 64 67 72 77 81 83 84 88 87 83 78
40 37 28 20 25 28 30 33 27 29 34 38 39 43 40 44 47 49 52 55 54 54 55 55 54 54 57 58 58 58 57 57 59 62 64 65 66 67 65 67 70 71 72 73
41 41 28 20 27 28 29 14 25 27 28 32 32 31 34 36 36 41 47 52 53 53 53 53 52 52 52 52 54 56 57 58 59 59 59 60 61 63 65 67 68 68 70 73
38 40 22 23 28 26 18 22 23 26 26 28 27 27 29 30 30 30 32 43 49 50 52 53 54 52 51 53 53 53 53 53 54 55 58 60 61 62 63 65 67 69 71 73
27 23 16 21 17 18 19 21 23 23 24 27 29 29 30 27 28 30 31 31 39 49 49 50 52 53 54 54 54 55 56 57 57 56 57 58 58 59 60 61 63 66 70 74
25 17 18 18 19 20 20 21 23 23 25 27 28 31 29 28 29 28 30 32 32 38 47 49 50 51 50 48 50 53 56 60 62 61 63 65 67 66 65 64 63 65 68 74
27 21 20 17 17 18 21 22 23 24 25 27 27 28 27 27 27 26 27 30 33 35 39 44 48 50 50 49 47 48 51 55 62 65 66 69 72 72 74 76 77 72 71 74
26 22 20 17 15 16 20 21 22 23 24 25 26 26 27 28 30 29 27 29 32 34 39 40 40 45 47 51 52 51 52 56 60 63 65 70 74 78 82 84 83 83 85 83
26 24 22 20 18 17 19 21 23 23 23 24 24 27 30 33 34 33 33 35 35 35 40 43 45 46 46 49 51 49 51 52 58 63 67 69 70 71 75 81 85 89 91 93
29 27 25 20 20 20 21 22 23 23 24 24 27 30 32 34 36 37 37 37 37 39 42 44 48 49 49 51 52 54 58 61 64 65 67 69 72 75 76 76 78 82 90 97
31 27 22 21 20 22 24 23 23 23 24 27 30 32 34 37 38 40 40 38 40 42 49 50 52 52 54 55 58 61 62 62 63 69 74 76 80 84 86 87 87 86 87 94
33 30 28 25 20 21 23 24 24 24 26 29 32 34 36 38 40 42 43 44 45 49 54 55 56 59 58 59 60 61 61 62 64 66 70 75 78 84 91 91 92 97 97 98
37 37 35 29 25 22 21 23 25 26 29 32 35 38 40 41 41 42 45 46 47 49 52 53 54 53 53 53 52 53 55 56 57 60 64 70 74 80 85 90 96 96 96 98
38 38 33 30 26 22 23 25 27 28 31 34 37 39 42 43 44 45 45 46 47 48 49 49 49 49 48 46 44 43 43 42 42 42 44 47 51 61 73 83 89 96 98 98
40 38 34 31 27 23 24 26 29 30 33 35 38 40 43 45 46 46 46 46 46 45 43 41 40 40 40 40 41 43 44 45 47 48 48 50 52 54 55 60 70 85 94 98
45 40 35 32 30 27 26 28 31 33 35 37 39 41 43 45 45 43 41 40 42 45 48 50 51 51 50 50 48 45 45 46 48 52 55 56 57 59 59 58 58 66 77 90
48 45 39 31 31 31 30 31 33 35 36 39 41 43 44 43 41 42 46 48 50 47 44 44 44 44 43 44 44 45 47 50 53 54 56 60 59 62 62 63 65 64 66 76
56 51 43 33 35 35 34 33 35 36 38 41 43 44 43 44 47 48 47 44 44 43 41 37 33 30 28 27 28 32 38 44 46 45 46 52 60 64 65 66 69 71 70 69
56 57 49 39 39 39 38 37 37 36 39 43 45 46 46 49 48 44 44 43 40 35 30 28 27 25 23 21 22 23 25 28 32 36 40 46 54 56 64 72 77 80 78 73
61 57 58 50 44 44 42 39 39 41 44 47 49 48 48 47 45 43 40 38 35 34 33 30 29 27 27 29 31 32 32 32 33 35 39 42 46 53 56 62 81 87 91 88
64 60 61 61 54 47 42 41 43 45 46 50 51 50 47 45 42 40 39 38 37 35 33 32 31 31 30 28 26 26 27 29 30 31 33 38 42 48 51 55 63 84 91 95
71 65 57 58 55 46 42 44 45 47 51 53 51 48 44 42 41 42 42 39 37 35 34 33 29 25 24 25 27 29 31 33 35 37 41 42 40 41 47 52 57 68 90 97
80 68 59 56 54 50 47 47 48 52 55 55 50 46 44 44 45 44 40 38 36 36 32 25 22 22 23 26 28 30 31 33 36 37 39 42 45 47 46 48 54 62 80 97